[[{"header":{"parameterUnit":"m.s-1","parameterCategory":1,"la1":30.6,"la2":29.2853,"lo1":-89.7004,"lo2":-87.6739,"dy":0.0162,"dx":0.0183,"nx":112,"ny":82,"refTime":"2025-03-21T18:00:00:Z","depth":0,"parameterNumber":2,"parameterNumberName":"U-component_of_WINDS"},"data":[0.0,0.0,0.0,0.0,0.0,0.0,0.0,0.0,0.0,0.0,0.0,0.0,0.0,0.0,0.0,0.0,0.0,0.0,0.0,0.0,0.0,0.0,0.0,0.0,0.0,0.0,0.0,0.0,0.0,0.0,0.0,0.0,0.0,0.0,0.0,0.0,0.0,0.0,0.0,0.0,0.0,0.0,0.0,0.0,0.0,0.0,0.0,0.0,0.0,0.0,0.0,0.0,0.0,0.0,0.0,0.0,0.0,0.0,0.0,0.0,0.0,0.0,0.0,0.0,0.0,0.0,0.0,0.0,0.0,0.0,0.0,0.0,0.0,0.0,0.0,0.0,0.0,0.0,0.0,0.0,0.0,0.0,0.0,0.0,0.0,0.0,0.0,0.0,0.0,0.0,-2.1912,-2.4232,-2.7797,-2.9383,-2.7835,-2.7587,-2.5753,-2.1645,0.0,0.0,0.0,0.0,0.0,0.0,0.0,0.0,0.0,0.0,0.0,0.0,0.0,0.0,0.0,0.0,0.0,0.0,0.0,0.0,0.0,0.0,0.0,0.0,0.0,0.0,0.0,0.0,0.0,0.0,0.0,0.0,0.0,0.0,0.0,0.0,0.0,0.0,0.0,0.0,0.0,0.0,0.0,0.0,0.0,0.0,0.0,0.0,0.0,0.0,0.0,0.0,0.0,0.0,0.0,0.0,0.0,0.0,0.0,0.0,0.0,0.0,0.0,0.0,0.0,0.0,0.0,0.0,0.0,0.0,0.0,0.0,0.0,0.0,0.0,0.0,0.0,0.0,0.0,0.0,0.0,0.0,0.0,0.0,0.0,0.0,0.0,0.0,0.0,0.0,0.0,0.0,0.0,0.0,0.0,0.0,0.0,0.0,0.0,0.0,0.0,0.0,0.0,0.0,-2.2026,-2.6625,-2.8306,-2.8726,-2.7778,-2.7014,-2.5091,-2.1542,0.0,0.0,0.0,0.0,0.0,0.0,0.0,0.0,0.0,0.0,0.0,0.0,0.0,0.0,0.0,0.0,0.0,0.0,0.0,0.0,0.0,0.0,0.0,0.0,0.0,0.0,0.0,0.0,0.0,0.0,0.0,0.0,0.0,0.0,0.0,0.0,0.0,0.0,0.0,0.0,0.0,0.0,0.0,0.0,0.0,0.0,0.0,0.0,0.0,0.0,0.0,0.0,0.0,0.0,0.0,0.0,0.0,0.0,0.0,0.0,0.0,0.0,0.0,0.0,0.0,0.0,0.0,0.0,0.0,0.0,0.0,0.0,0.0,0.0,0.0,0.0,0.0,0.0,0.0,0.0,0.0,0.0,0.0,0.0,0.0,0.0,0.0,0.0,0.0,0.0,0.0,0.0,0.0,0.0,0.0,0.0,0.0,0.0,0.0,0.0,0.0,0.0,0.0,-2.159,-2.3569,-2.73,-2.8421,-2.8574,-2.7778,-2.6899,-2.4921,-2.1464,-2.0467,0.0,0.0,0.0,0.0,0.0,0.0,0.0,0.0,0.0,0.0,0.0,0.0,0.0,0.0,0.0,0.0,0.0,0.0,0.0,0.0,0.0,0.0,0.0,0.0,0.0,0.0,0.0,0.0,0.0,0.0,0.0,0.0,0.0,0.0,0.0,0.0,0.0,0.0,0.0,0.0,0.0,0.0,0.0,0.0,0.0,0.0,0.0,0.0,0.0,0.0,0.0,0.0,0.0,0.0,0.0,0.0,0.0,0.0,0.0,0.0,0.0,0.0,0.0,0.0,0.0,0.0,0.0,0.0,0.0,0.0,0.0,0.0,0.0,0.0,0.0,0.0,0.0,0.0,0.0,0.0,0.0,0.0,0.0,0.0,0.0,0.0,0.0,0.0,0.0,0.0,0.0,0.0,0.0,0.0,0.0,0.0,0.0,0.0,0.0,0.0,0.0,0.0,-2.3427,-2.5313,-2.7472,-2.8077,-2.8134,-2.774,-2.6358,-2.4173,-2.1091,-1.9871,0.0,0.0,0.0,0.0,0.0,0.0,0.0,0.0,0.0,0.0,0.0,0.0,0.0,0.0,0.0,0.0,0.0,0.0,0.0,0.0,0.0,0.0,0.0,0.0,0.0,0.0,0.0,0.0,0.0,0.0,0.0,0.0,0.0,0.0,0.0,0.0,0.0,0.0,0.0,0.0,0.0,0.0,0.0,0.0,0.0,0.0,0.0,0.0,0.0,0.0,0.0,0.0,0.0,0.0,0.0,0.0,0.0,0.0,0.0,0.0,0.0,0.0,0.0,0.0,0.0,0.0,0.0,0.0,0.0,0.0,0.0,0.0,0.0,0.0,0.0,0.0,0.0,0.0,0.0,0.0,0.0,0.0,0.0,0.0,0.0,0.0,0.0,0.0,0.0,0.0,0.0,0.0,0.0,0.0,0.0,0.0,0.0,0.0,0.0,0.0,0.0,0.0,-2.3744,-2.6593,-2.7587,-2.7033,-2.688,-2.7644,-2.4724,-2.2045,-2.0104,-1.8354,0.0,0.0,0.0,0.0,0.0,0.0,0.0,0.0,0.0,0.0,0.0,0.0,0.0,0.0,0.0,0.0,0.0,0.0,0.0,0.0,0.0,0.0,0.0,0.0,0.0,0.0,0.0,0.0,0.0,0.0,0.0,0.0,0.0,0.0,0.0,0.0,0.0,0.0,0.0,0.0,0.0,0.0,0.0,0.0,0.0,0.0,0.0,0.0,0.0,0.0,0.0,0.0,0.0,0.0,0.0,0.0,0.0,0.0,0.0,0.0,0.0,0.0,0.0,0.0,0.0,0.0,0.0,0.0,0.0,0.0,0.0,0.0,0.0,0.0,0.0,0.0,0.0,0.0,0.0,0.0,0.0,0.0,0.0,0.0,0.0,0.0,0.0,0.0,0.0,0.0,0.0,0.0,0.0,0.0,0.0,0.0,0.0,0.0,0.0,0.0,0.0,0.0,-2.2876,-2.5371,-2.6746,-2.6593,-2.6536,-2.6861,-2.4718,-2.2332,-1.9996,0.0,0.0,0.0,0.0,0.0,0.0,0.0,0.0,0.0,0.0,0.0,0.0,0.0,0.0,0.0,0.0,0.0,0.0,0.0,0.0,0.0,0.0,0.0,0.0,0.0,0.0,0.0,0.0,0.0,0.0,0.0,0.0,0.0,0.0,0.0,0.0,0.0,0.0,0.0,0.0,0.0,0.0,0.0,0.0,0.0,0.0,0.0,0.0,0.0,0.0,0.0,0.0,0.0,0.0,0.0,0.0,0.0,0.0,0.0,0.0,0.0,0.0,0.0,0.0,0.0,0.0,0.0,0.0,0.0,0.0,0.0,0.0,0.0,0.0,0.0,0.0,0.0,0.0,0.0,0.0,0.0,0.0,0.0,0.0,0.0,0.0,0.0,0.0,0.0,0.0,0.0,0.0,0.0,0.0,0.0,0.0,0.0,0.0,0.0,0.0,0.0,0.0,-1.9945,-2.2576,-2.4855,-2.6249,-2.6179,-2.6122,-2.6383,-2.4318,-2.2099,-1.9935,0.0,0.0,0.0,0.0,0.0,0.0,0.0,0.0,0.0,0.0,0.0,0.0,0.0,0.0,0.0,0.0,0.0,0.0,0.0,0.0,0.0,0.0,0.0,0.0,0.0,0.0,0.0,0.0,0.0,0.0,0.0,0.0,0.0,0.0,0.0,0.0,0.0,0.0,0.0,0.0,0.0,0.0,0.0,0.0,0.0,0.0,0.0,0.0,0.0,0.0,0.0,0.0,0.0,0.0,0.0,0.0,0.0,0.0,0.0,0.0,0.0,0.0,0.0,0.0,0.0,0.0,0.0,0.0,0.0,0.0,0.0,0.0,0.0,0.0,0.0,0.0,0.0,0.0,0.0,0.0,0.0,0.0,0.0,0.0,0.0,0.0,0.0,0.0,0.0,0.0,0.0,0.0,0.0,0.0,0.0,0.0,0.0,0.0,0.0,0.0,0.0,0.0,-2.0093,-2.3086,-2.5491,-2.6294,-2.5663,-2.551,-2.6326,-2.3274,-2.0888,0.0,0.0,0.0,0.0,0.0,0.0,0.0,0.0,0.0,0.0,0.0,0.0,0.0,0.0,0.0,0.0,0.0,0.0,0.0,0.0,0.0,0.0,0.0,0.0,0.0,0.0,0.0,0.0,0.0,0.0,0.0,0.0,0.0,0.0,0.0,0.0,0.0,0.0,0.0,0.0,0.0,0.0,0.0,0.0,0.0,0.0,0.0,0.0,0.0,0.0,0.0,0.0,0.0,0.0,0.0,0.0,0.0,0.0,0.0,0.0,0.0,0.0,0.0,0.0,0.0,0.0,0.0,0.0,0.0,0.0,0.0,0.0,0.0,0.0,0.0,0.0,0.0,0.0,0.0,0.0,0.0,0.0,0.0,0.0,0.0,0.0,0.0,0.0,0.0,0.0,0.0,0.0,0.0,0.0,0.0,0.0,0.0,0.0,0.0,0.0,0.0,0.0,0.0,-1.9945,-2.2557,-2.4606,-2.5453,-2.5344,-2.5306,-2.5529,-2.3422,-2.1417,-1.9909,0.0,0.0,0.0,0.0,0.0,0.0,0.0,0.0,0.0,0.0,0.0,0.0,0.0,0.0,0.0,0.0,0.0,0.0,0.0,0.0,0.0,0.0,0.0,0.0,0.0,0.0,0.0,0.0,0.0,0.0,0.0,0.0,0.0,0.0,0.0,0.0,0.0,0.0,0.0,0.0,0.0,0.0,0.0,0.0,0.0,0.0,0.0,0.0,0.0,0.0,0.0,0.0,0.0,0.0,0.0,0.0,0.0,0.0,0.0,0.0,0.0,0.0,0.0,0.0,0.0,0.0,0.0,0.0,0.0,0.0,0.0,0.0,0.0,0.0,0.0,0.0,0.0,0.0,0.0,0.0,0.0,0.0,0.0,0.0,0.0,0.0,0.0,0.0,0.0,0.0,0.0,0.0,0.0,0.0,0.0,0.0,0.0,0.0,0.0,0.0,0.0,0.0,-1.9878,-2.2328,-2.4224,-2.5115,-2.5191,-2.5168,-2.5095,-2.3436,-2.162,-1.9832,0.0,0.0,0.0,0.0,0.0,0.0,0.0,0.0,0.0,0.0,0.0,0.0,0.0,0.0,0.0,0.0,0.0,0.0,0.0,0.0,0.0,0.0,0.0,0.0,0.0,0.0,0.0,0.0,0.0,0.0,0.0,0.0,0.0,0.0,0.0,0.0,0.0,0.0,0.0,0.0,0.0,0.0,0.0,0.0,0.0,0.0,0.0,0.0,0.0,0.0,0.0,0.0,0.0,0.0,0.0,0.0,0.0,0.0,0.0,0.0,0.0,0.0,0.0,0.0,0.0,0.0,0.0,0.0,0.0,0.0,0.0,0.0,0.0,0.0,0.0,0.0,0.0,0.0,0.0,0.0,0.0,0.0,0.0,0.0,0.0,0.0,0.0,0.0,0.0,0.0,0.0,0.0,0.0,0.0,0.0,0.0,0.0,0.0,0.0,0.0,0.0,0.0,-1.9768,-2.2213,-2.411,-2.5,-2.5141,-2.5069,-2.4801,-2.3303,-2.1538,-1.9609,0.0,0.0,0.0,0.0,0.0,0.0,0.0,0.0,0.0,0.0,0.0,0.0,0.0,0.0,0.0,0.0,0.0,0.0,0.0,0.0,0.0,0.0,0.0,0.0,0.0,0.0,0.0,0.0,0.0,0.0,0.0,0.0,0.0,0.0,0.0,0.0,0.0,0.0,0.0,0.0,0.0,0.0,0.0,0.0,0.0,0.0,0.0,0.0,0.0,0.0,0.0,0.0,0.0,0.0,0.0,0.0,0.0,0.0,0.0,0.0,-1.6346,-1.5304,0.0,0.0,0.0,0.0,0.0,0.0,0.0,0.0,0.0,0.0,0.0,0.0,0.0,0.0,0.0,0.0,0.0,0.0,0.0,0.0,0.0,0.0,0.0,0.0,0.0,0.0,0.0,0.0,0.0,0.0,0.0,0.0,0.0,0.0,0.0,0.0,0.0,0.0,0.0,0.0,-1.8856,-2.1321,-2.3212,-2.4072,-2.4651,-2.4695,-2.4011,-2.2802,-2.1099,-1.8802,-1.6664,0.0,0.0,0.0,0.0,0.0,0.0,0.0,0.0,0.0,0.0,0.0,0.0,0.0,0.0,0.0,0.0,0.0,0.0,0.0,0.0,0.0,0.0,0.0,0.0,0.0,0.0,0.0,0.0,0.0,0.0,0.0,0.0,0.0,0.0,0.0,0.0,0.0,0.0,0.0,0.0,0.0,0.0,0.0,0.0,0.0,0.0,0.0,0.0,0.0,0.0,0.0,0.0,0.0,0.0,0.0,0.0,0.0,0.0,0.0,-1.7645,-1.6679,0.0,0.0,0.0,0.0,0.0,0.0,0.0,0.0,0.0,0.0,0.0,0.0,0.0,0.0,0.0,0.0,0.0,0.0,0.0,0.0,0.0,0.0,0.0,0.0,0.0,0.0,0.0,0.0,0.0,0.0,0.0,0.0,0.0,0.0,0.0,0.0,0.0,0.0,0.0,0.0,-1.8631,-2.0733,-2.2338,-2.3193,-2.3589,-2.3606,-2.3127,-2.2185,-2.0708,-1.8572,-1.6779,0.0,0.0,0.0,0.0,0.0,0.0,0.0,0.0,0.0,0.0,0.0,0.0,0.0,0.0,0.0,0.0,0.0,0.0,0.0,0.0,0.0,0.0,0.0,0.0,0.0,0.0,0.0,0.0,0.0,0.0,0.0,0.0,0.0,0.0,0.0,0.0,0.0,0.0,0.0,0.0,0.0,0.0,0.0,0.0,0.0,0.0,0.0,0.0,0.0,0.0,0.0,0.0,0.0,-2.0202,-1.995,-1.9154,-2.0011,-2.0817,-2.1367,-1.9041,-1.8274,-1.8465,-1.6023,0.0,0.0,0.0,0.0,0.0,0.0,0.0,0.0,0.0,0.0,0.0,0.0,0.0,0.0,0.0,0.0,0.0,0.0,0.0,0.0,0.0,0.0,-1.9147,-1.8425,-1.9429,-1.9878,-1.7481,0.0,0.0,0.0,0.0,0.0,0.0,0.0,0.0,0.0,0.0,0.0,-1.8478,-2.0279,-2.1655,-2.2319,-2.2503,-2.2467,-2.2205,-2.1549,-2.038,-1.8619,-1.7014,-1.5159,0.0,0.0,0.0,0.0,0.0,0.0,0.0,0.0,0.0,0.0,0.0,0.0,0.0,0.0,0.0,0.0,0.0,0.0,0.0,0.0,0.0,0.0,0.0,0.0,0.0,0.0,0.0,0.0,0.0,0.0,0.0,0.0,-1.5446,-1.6723,0.0,0.0,0.0,0.0,0.0,0.0,0.0,0.0,0.0,0.0,0.0,0.0,0.0,-2.0086,-2.0437,-2.1764,-2.2115,-2.1509,-2.3774,-2.4407,-2.3594,-2.4453,-2.4922,-2.4973,-2.3862,0.0,-2.1151,-1.9355,0.0,0.0,0.0,0.0,0.0,0.0,0.0,0.0,0.0,0.0,0.0,0.0,0.0,0.0,0.0,0.0,0.0,0.0,0.0,0.0,0.0,0.0,-2.1044,-2.0929,-2.1593,-2.1779,-1.9993,-1.7912,-1.6105,-1.5115,-1.4316,-1.351,0.0,0.0,0.0,0.0,0.0,0.0,-1.7661,-1.9897,-2.1445,-2.156,-2.2078,-2.2141,-2.1426,-2.1098,-2.0252,-1.8604,-1.7624,-1.66,-1.5466,-1.4114,0.0,0.0,0.0,0.0,0.0,0.0,0.0,0.0,0.0,0.0,0.0,0.0,0.0,0.0,0.0,0.0,0.0,0.0,0.0,0.0,0.0,0.0,0.0,0.0,0.0,0.0,0.0,0.0,0.0,-1.5466,-1.613,-1.6413,-1.7023,-1.7234,0.0,0.0,0.0,0.0,0.0,0.0,0.0,0.0,0.0,-2.1413,-2.1803,-2.2702,-2.4185,-2.4927,-2.5356,-2.5472,-2.6605,-2.6965,-2.6601,-2.6992,-2.7147,-2.709,-2.6699,-2.5845,-2.4504,-2.1812,-2.0252,-1.9394,0.0,0.0,0.0,0.0,-1.7839,-1.8342,-1.9684,-1.9815,-1.9457,-1.9816,0.0,0.0,0.0,0.0,0.0,0.0,0.0,-1.8693,-2.0016,-2.1206,-2.2071,-2.2071,-2.2715,-2.2868,-2.1187,-1.9988,-1.8669,-1.6854,-1.6586,-1.6109,-1.4309,-1.4401,0.0,0.0,0.0,-1.7389,-1.8211,-1.9701,-2.0671,-2.0671,-2.0922,-2.0966,-2.0601,-2.0505,-1.9758,-1.8108,-1.7633,-1.6766,-1.5337,-1.4534,-1.3696,0.0,0.0,0.0,0.0,0.0,0.0,0.0,0.0,0.0,0.0,0.0,0.0,0.0,0.0,0.0,0.0,0.0,0.0,0.0,0.0,0.0,0.0,0.0,0.0,0.0,0.0,0.0,0.0,-1.6646,-1.6924,-1.6934,-1.8423,-1.8969,0.0,0.0,0.0,0.0,0.0,0.0,-2.0263,-2.1514,-2.2803,-2.4052,-2.4307,-2.5361,-2.7313,-2.7333,-2.7664,-2.8305,-2.8524,-2.8629,-2.8613,-2.8847,-2.8918,-2.8845,-2.8633,-2.8184,-2.7386,-2.4141,-2.2548,-2.1986,-2.0507,-1.9941,-1.9941,-1.9953,-2.0102,-2.0449,-2.1696,-2.1711,-2.1198,-2.1432,-2.0755,-1.9737,-1.9078,0.0,0.0,0.0,0.0,-2.0046,-2.1718,-2.2551,-2.3014,-2.3223,-2.3766,-2.3823,-2.2357,-2.186,-2.0967,-1.8425,-1.8459,-1.823,-1.6109,-1.6277,0.0,-1.5841,-1.6988,-1.8177,-1.8822,-1.9601,-2.0093,-2.0093,-2.0093,-2.0093,-2.0093,-2.0093,-1.9486,-1.8024,-1.7678,-1.68,-1.5226,-1.4873,-1.4274,-1.3343,0.0,0.0,0.0,0.0,0.0,0.0,0.0,0.0,0.0,0.0,0.0,0.0,0.0,0.0,0.0,0.0,0.0,0.0,0.0,0.0,0.0,0.0,0.0,0.0,0.0,0.0,0.0,0.0,0.0,-2.1107,-2.0827,0.0,0.0,0.0,0.0,-2.0304,-2.1951,-2.291,-2.2905,-2.5309,-2.6716,-2.6794,-2.7614,-2.8102,-2.8239,-2.8239,-2.8257,-2.8311,-2.9139,-2.9492,-2.9467,-3.0295,-3.0663,-3.0628,-2.979,-2.9401,-2.9169,-2.658,-2.4532,-2.2944,-2.2031,-2.1679,-2.1679,-2.1749,-2.2251,-2.2916,-2.3013,-2.3012,-2.311,-2.3929,-2.3057,-2.1643,-2.1548,-2.0352,0.0,0.0,-2.1461,-2.1848,-2.3462,-2.3895,-2.4125,-2.4883,-2.5096,-2.488,-2.3976,-2.3116,-2.1798,-1.9319,-1.888,-1.8593,-1.7641,0.0,-1.7527,-1.7489,-1.8249,-1.8841,-1.8899,-1.9601,-2.0093,-2.0093,-2.0093,-2.0093,-2.0093,-2.0093,-1.973,-1.8899,-1.8058,-1.7157,-1.6174,-1.5268,-1.434,-1.3402,-1.3243,0.0,0.0,0.0,0.0,0.0,0.0,0.0,0.0,0.0,0.0,0.0,0.0,0.0,0.0,0.0,0.0,0.0,0.0,0.0,0.0,0.0,0.0,0.0,0.0,0.0,0.0,0.0,0.0,-2.3123,-2.4116,0.0,-2.3849,-2.354,-2.3491,-2.3765,-2.492,-2.5604,-2.5602,-2.7028,-2.8083,-2.8668,-2.8961,-2.9411,-2.9977,-2.9977,-2.9976,-2.9975,-3.029,-3.039,-3.0351,-3.0655,-3.0796,-3.0776,-3.0462,-3.0022,-2.9438,-2.8511,-2.7449,-2.623,-2.4844,-2.4303,-2.4188,-2.3085,-2.3203,-2.3942,-2.3942,-2.3938,-2.3908,-2.3639,-2.3139,-2.2615,-2.2559,-2.2089,-2.1853,-2.3003,-2.3305,-2.3522,-2.4671,-2.4908,-2.4903,-2.5198,-2.5231,-2.4956,-2.4091,-2.3665,-2.2868,-2.0886,-2.0064,-1.941,-1.8574,-1.844,-1.844,-1.844,-1.8708,-1.9085,-1.962,-1.9921,-2.0093,-2.0093,-2.0093,-2.0093,-2.0093,-1.9639,-1.8975,-1.8119,-1.7293,-1.6399,-1.5397,-1.5041,-1.443,-1.3471,-1.2891,-1.1657,0.0,0.0,0.0,0.0,0.0,0.0,0.0,0.0,0.0,0.0,0.0,0.0,0.0,0.0,0.0,0.0,0.0,0.0,0.0,0.0,0.0,0.0,0.0,0.0,0.0,-2.1626,-2.319,-2.4946,-2.6435,-2.6995,-2.6081,-2.6318,-2.6493,-2.647,-2.7336,-2.7851,-2.7889,-2.8709,-2.9432,-3.0018,-3.0037,-3.0311,-3.0897,-3.0897,-3.0896,-3.0895,-3.0878,-3.084,-3.08,-3.0793,-3.0801,-3.0807,-3.0806,-3.0477,-2.9944,-2.9944,-2.9593,-2.8875,-2.6913,-2.6142,-2.5969,-2.4503,-2.4335,-2.4843,-2.4841,-2.4835,-2.4746,-2.416,-2.3782,-2.358,-2.3808,-2.3677,-2.3614,-2.4494,-2.4703,-2.4807,-2.5367,-2.5436,-2.5356,-2.5302,-2.5269,-2.4996,-2.4096,-2.3894,-2.3403,-2.1732,-2.0924,-2.0289,-1.9448,-1.9295,-1.9295,-1.9295,-1.9295,-1.9506,-2.0036,-2.0093,-2.0093,-2.0093,-2.0093,-2.0093,-2.0093,-1.9353,-1.8536,-1.7661,-1.6831,-1.5968,-1.5,-1.4906,-1.4315,-1.3153,-1.22,-1.1344,-1.0539,0.0,0.0,0.0,0.0,0.0,0.0,0.0,0.0,0.0,0.0,0.0,0.0,0.0,0.0,0.0,0.0,0.0,0.0,0.0,0.0,0.0,0.0,0.0,-2.2791,-2.3722,-2.4946,-2.6676,-2.7701,-2.7921,-2.7003,-2.7689,-2.8207,-2.8264,-2.9066,-2.9573,-2.9629,-3.0449,-3.0898,-3.0898,-3.0898,-3.0898,-3.0898,-3.0898,-3.0898,-3.0897,-3.0839,-3.0798,-3.0799,-3.0809,-3.0795,-3.0801,-3.0799,-3.0806,-3.0801,-3.0801,-3.0782,-3.0511,-2.8008,-2.7042,-2.6927,-2.6028,-2.5703,-2.5702,-2.5693,-2.5707,-2.5705,-2.5694,-2.5125,-2.4594,-2.5351,-2.5004,-2.4511,-2.5357,-2.5601,-2.5589,-2.5517,-2.5499,-2.5468,-2.5332,-2.5292,-2.5055,-2.4151,-2.3938,-2.3441,-2.177,-2.1445,-2.1153,-2.0246,-2.0093,-2.0093,-2.0093,-2.0093,0.0,-2.0093,-2.0093,-2.0093,-2.0093,-2.0093,-2.0093,-2.0093,-1.9334,-1.8497,-1.7641,-1.6812,-1.599,-1.5131,-1.4909,-1.4051,-1.2467,-1.1394,-1.1213,-1.1968,0.0,0.0,0.0,0.0,0.0,0.0,0.0,0.0,0.0,0.0,0.0,0.0,0.0,0.0,0.0,0.0,0.0,0.0,0.0,0.0,0.0,-2.1885,-2.3264,-2.3582,-2.5549,-2.7342,-2.8404,-2.941,-2.9894,-2.9594,-2.982,-2.9971,-2.9938,-3.0242,-3.045,-3.0479,-3.0741,-3.0898,-3.0898,-3.0898,-3.0898,-3.0898,-3.0898,-3.0898,-3.0898,-3.0879,-3.0879,-3.0879,-3.0817,-3.0793,-3.0793,-3.0807,-3.0792,-3.081,-3.0798,-3.0437,-2.973,-2.8396,-2.7874,-2.7698,-2.6245,-2.5706,-2.5703,-2.5695,-2.5707,-2.5705,-2.5694,-2.5534,-2.5372,-2.5546,-2.5433,-2.5292,-2.5532,-2.5601,-2.5598,-2.5583,-2.555,-2.5488,-2.5456,-2.537,-2.5224,-2.4973,-2.4886,-2.4326,-2.2606,-2.2281,-2.1817,-2.0341,-2.0093,-2.0093,-2.0093,-2.0093,-2.0093,-2.0093,-2.0093,-2.0093,-2.0093,-2.0093,-2.0093,-2.0093,-1.878,-1.7852,-1.7622,-1.6242,-1.5341,-1.5115,-1.5057,-1.4445,-1.3224,-1.2296,-1.1571,0.0,0.0,0.0,0.0,0.0,0.0,0.0,0.0,0.0,0.0,0.0,0.0,0.0,0.0,0.0,0.0,0.0,0.0,0.0,0.0,0.0,0.0,-2.4056,-2.552,-2.5907,-2.7374,-2.8748,-2.9645,-3.0251,-3.0617,-3.06,-3.0645,-3.0641,-3.0593,-3.0664,-3.0734,-3.0799,-3.0832,-3.0877,-3.0898,-3.0898,-3.0898,-3.0898,-3.0898,-3.0898,-3.0898,-3.0898,-3.0898,-3.0898,-3.0836,-3.0795,-3.0798,-3.0807,-3.0798,-3.0794,-3.0809,-3.0292,-2.942,0.0,0.0,0.0,0.0,-2.5697,-2.5697,-2.5701,-2.5696,-2.5694,-2.5703,-2.5698,-2.5694,-2.5648,-2.5611,-2.5598,-2.559,-2.559,-2.5601,-2.5601,-2.5577,-2.5527,-2.5503,-2.5444,-2.5177,-2.437,-2.4474,-2.4063,-2.1956,-2.1855,0.0,-2.0322,-2.0093,-2.0093,-2.0093,-2.0093,-2.0093,-2.0093,-2.0093,-2.0093,-2.0093,-2.0093,-2.0093,-2.0093,-1.8894,0.0,0.0,0.0,-1.546,-1.503,-1.4673,0.0,0.0,0.0,0.0,0.0,0.0,0.0,0.0,-1.092,-1.0874,0.0,0.0,0.0,0.0,0.0,0.0,0.0,0.0,0.0,0.0,0.0,0.0,0.0,0.0,0.0,0.0,-2.6191,-2.8004,-2.881,-2.9031,-2.9441,-3.0378,-3.051,-3.053,-3.0593,-3.0598,-3.0595,-3.0595,-3.0609,-3.0647,-3.0768,-3.0776,0.0,0.0,0.0,-3.0898,-3.0898,-3.0898,-3.0898,-3.0898,-3.0898,-3.0898,-3.0898,-3.0832,-3.0808,-3.0793,-3.0798,-3.0757,-3.0669,-3.075,-3.0235,-2.9279,-2.8398,-2.7528,-2.6675,-2.5963,-2.5699,-2.5704,-2.5703,0.0,0.0,-2.5692,-2.5707,-2.5705,-2.5694,-2.5657,-2.5598,-2.5595,-2.5607,-2.5601,-2.5601,-2.5601,-2.5589,-2.554,-2.5503,-2.5047,-2.3381,-2.3529,-2.3285,-2.0852,-2.0948,-2.1115,-2.0246,-2.0093,-2.0093,-2.0093,-2.0093,-2.0093,-2.0093,-2.0093,-2.0093,-2.0093,-2.0093,0.0,-2.0093,-1.9353,-1.8574,-1.7794,-1.6984,-1.6132,-1.5242,-1.4441,-1.4303,-1.4881,-1.4066,-1.395,-1.4571,-1.4571,-1.4191,-1.3473,-1.2586,-1.2538,0.0,0.0,0.0,0.0,0.0,0.0,0.0,0.0,0.0,0.0,0.0,0.0,0.0,0.0,0.0,-2.6482,-2.774,-2.8775,-2.9572,-2.9717,-2.9889,-3.0299,-3.0469,-3.0593,-3.0598,-3.0598,-3.0607,-3.0606,-3.0599,-3.0607,-3.0633,-3.0682,-3.0726,-3.0734,-3.0798,-3.0827,-3.0827,-3.0877,-3.0898,-3.0898,-3.0898,0.0,-3.0827,-3.0857,-3.083,-3.0734,-3.0834,-3.0443,-2.9809,-3.0516,-2.9872,-2.8369,-2.7485,-2.6654,-2.5917,-2.577,-2.5699,-2.5704,-2.5703,-2.5702,-2.5702,-2.5692,-2.5707,-2.5705,-2.5694,-2.5657,0.0,-2.5595,-2.5607,-2.5601,-2.5601,-2.5601,-2.5598,-2.5589,-2.5531,-2.5395,-2.5047,-2.4444,-2.3645,-2.2426,-2.1761,-2.1115,-2.0246,-2.0093,-2.0093,-2.0093,-2.0093,-2.0093,-2.0093,-2.0093,-2.0093,-2.0093,-2.0093,-2.0093,-2.0093,-1.9353,-1.8822,-1.865,-1.7848,-1.7289,-1.7086,-1.6865,-1.673,-1.6705,-1.6476,-1.6306,-1.624,-1.624,-1.6167,-1.5968,-1.4505,-1.3827,0.0,0.0,0.0,0.0,0.0,0.0,0.0,0.0,0.0,0.0,0.0,-2.2141,-2.3417,0.0,-2.6398,-2.7735,-2.8704,-2.9442,-2.984,-2.9953,-3.006,-3.0273,-3.0398,-3.0488,-3.0588,-3.0598,-3.0598,-3.0598,-3.0604,-3.0591,-3.0593,-3.063,-3.0661,-3.0709,-3.073,-3.0758,-3.0758,-3.0776,-3.0803,-3.0803,-3.0803,-3.0776,-3.0758,-3.0758,-3.073,-3.0691,-3.0737,-3.0255,-2.9427,-2.9016,-2.8331,-2.7456,-2.6593,-2.602,-2.5701,-2.5696,-2.5701,-2.5708,-2.57,-2.5703,-2.5703,-2.5694,-2.5707,-2.5706,-2.5701,-2.5689,-2.5632,-2.5613,-2.5608,-2.5601,-2.5604,-2.5601,-2.5601,-2.5601,-2.556,-2.5302,-2.4383,-2.3794,-2.3068,-2.1744,-2.1129,-2.0655,-2.0233,-2.0121,-2.0093,-2.0093,-2.0093,-2.0093,-2.0093,-2.0093,-2.0093,-2.0093,-2.0093,-2.0093,-2.0093,-1.9353,-1.8899,-1.8899,-1.8081,-1.7603,-1.7603,-1.754,-1.7401,-1.7206,-1.7107,-1.6938,-1.6693,-1.6693,-1.6693,-1.6675,-1.587,-1.5386,0.0,0.0,0.0,0.0,0.0,0.0,0.0,-2.0164,-2.1242,-2.222,-2.3184,-2.4243,-2.5546,-2.6776,-2.7816,-2.8519,-2.9345,-2.9897,-2.9897,-2.9984,-3.0116,-3.0246,-3.0299,-3.0385,-3.0545,-3.0588,-3.0598,-3.0598,-3.0598,-3.0595,-3.0607,-3.0591,-3.062,-3.0675,-3.0689,-3.0675,-3.0675,-3.0684,-3.0709,-3.0709,-3.0709,-3.0684,-3.0675,-3.0636,-3.0633,-3.0656,-3.0283,-2.9838,-2.9251,-2.7407,-2.6841,-2.7032,-2.5994,-2.5736,-2.5907,-2.5755,-2.5699,-2.5707,-2.5709,-2.5699,-2.5702,-2.5698,-2.571,-2.5707,-2.5707,-2.5699,-2.5687,-2.5632,-2.5611,-2.5603,-2.5599,-2.5604,-2.5601,-2.5601,-2.5601,-2.5204,-2.3747,-2.315,-2.2472,-2.1074,-2.0473,-2.0192,-2.0192,-2.0148,-2.0093,-2.0093,-2.0093,-2.0093,-2.0093,-2.0093,-2.0093,-2.0093,-2.0093,-2.0093,-2.0093,-1.9506,-1.9124,-1.9124,-1.8478,-1.8096,-1.8096,-1.8031,-1.7912,-1.7716,-1.7572,-1.7398,-1.7202,-1.7179,-1.7164,-1.7164,-1.7164,-1.6951,-2.067,-1.8419,-1.7238,-1.8448,-1.8853,-1.9884,0.0,-2.3795,-2.3831,-2.5371,-2.6523,-2.731,-2.7493,-2.8506,-2.9354,-2.9448,-2.9703,-2.9897,-2.9897,-2.9905,-2.9969,-3.0109,-3.0273,-3.0406,-3.0428,-3.0535,-3.0598,-3.0598,-3.0598,-3.0602,-3.0597,-3.0597,-3.0601,-3.061,-3.061,-3.0607,-3.0607,-3.0667,-3.0709,-3.0709,-3.0709,-3.0664,-3.061,-3.0661,-3.0665,-3.0537,-2.9031,-2.8774,-2.922,-2.6751,-2.6626,-2.7814,-2.6229,-2.6075,-2.668,-2.5964,-2.5699,-2.5705,-2.5694,-2.5692,-2.5701,-2.5703,-2.5697,-2.5707,-2.5707,-2.5699,-2.5708,-2.5687,-2.5642,-2.5608,-2.5605,-2.5604,-2.5601,-2.5601,-2.5601,-2.554,-2.5343,-2.4028,-2.283,-2.2653,-2.1293,-2.0192,-2.0192,-2.0148,-2.0093,-2.0093,-2.0093,-2.0093,-2.0093,-2.0093,-2.0093,-2.0093,-2.0093,-2.0093,-2.0093,-2.0017,-1.9979,-1.9979,-1.9864,-1.9826,-1.9826,-1.9816,-1.971,-1.9505,-1.9382,-1.921,-1.9011,-1.8899,-1.8824,-1.8824,-1.8824,-1.826,-2.335,-2.1888,-2.0979,-2.1631,-2.2174,-2.2962,-2.4628,-2.5461,-2.6095,-2.6753,-2.7628,-2.8311,-2.8473,-2.9008,-2.9456,-2.9589,-2.976,-2.9897,-2.9897,-2.9897,-2.9913,-2.9988,-3.0126,-3.0273,-3.0386,-3.0449,-3.053,-3.0593,-3.0598,-3.0598,-3.0598,-3.0598,-3.0598,-3.0598,-3.06,-3.0602,-3.0602,-3.0638,-3.0633,-3.0633,-3.0633,-3.0634,-3.0602,-3.0638,-3.0633,-3.052,-2.9321,-2.9012,-2.921,-2.7655,-2.7438,-2.8028,-2.7323,-2.6992,-2.6792,-2.6,-2.5699,-2.5703,-2.5692,-2.5691,-2.5701,-2.5703,-2.5698,-2.5707,-2.5707,-2.5704,-2.5699,-2.5692,-2.568,-2.5642,-2.5617,-2.56,-2.5604,-2.5604,-2.5601,-2.5465,-2.4957,-2.3858,-2.2815,-2.2292,-2.1172,-2.0485,-2.0994,-2.0566,-2.0338,-2.084,-2.0451,-2.0093,-2.0093,-2.0093,-2.0093,-2.0093,-2.0093,-2.0093,-2.0093,-2.0093,-2.0093,-2.0093,-2.0093,-2.0093,-2.0093,-2.0093,-2.0005,-1.98,-1.9738,-1.9589,-1.9308,-1.9235,-1.9188,-1.9095,-1.9095,-1.8699,-2.4675,-2.4313,-2.4121,-2.4121,-2.49,-2.566,-2.566,-2.6747,-2.7731,-2.7731,-2.8245,-2.8767,-2.8957,-2.9198,-2.9435,-2.958,-2.976,-2.9897,-2.9897,-2.9897,-2.9897,-2.9897,-2.9996,-3.0111,-3.0304,-3.0364,-3.0444,-3.054,-3.0583,-3.0598,-3.0598,-3.0598,-3.0598,-3.0598,-3.0598,-3.0598,-3.0598,-3.0598,-3.0598,-3.0598,-3.0598,-3.0598,-3.0598,-3.0598,-3.0598,-3.0559,-2.9669,-2.9306,-2.9229,-2.8358,-2.8162,-2.84,-2.7927,-2.7537,-2.7098,-2.6067,-2.5675,-2.5703,-2.5704,-2.5704,-2.5698,-2.5703,-2.5701,-2.5693,-2.5708,-2.5707,-2.5705,-2.5698,-2.5693,-2.5684,-2.5636,-2.5604,-2.5591,-2.5601,-2.5596,-2.5438,-2.4785,-2.3967,-2.3173,-2.2549,-2.1527,-2.0955,-2.1597,-2.0887,-2.0446,-2.1066,-2.0561,-2.0116,-2.0093,-2.0093,-2.0093,-2.0093,-2.0093,-2.0093,-2.0093,-2.0093,-2.0093,-2.0093,-2.0093,-2.0093,-2.0093,-2.0093,-2.0025,-1.987,-1.9823,-1.9656,-1.9357,-1.9314,-1.9219,-1.9095,-1.9095,-1.8878,-2.3632,-2.4195,-2.4954,-2.4954,-2.6149,-2.7333,-2.7333,-2.7966,-2.8563,-2.8563,-2.8785,-2.8991,-2.9003,-2.9324,-2.9598,-2.9608,-2.976,-2.9897,-2.9897,-2.9897,-2.9897,-2.9897,-2.9897,-2.9953,-3.0101,-3.0286,-3.0398,-3.0417,-3.0535,-3.0598,-3.0598,-3.0598,-3.0598,-3.0598,-3.0598,-3.0598,-3.0598,-3.0598,-3.0598,-3.0598,-3.0598,-3.0598,-3.0598,-3.0598,-3.0598,-3.0559,-2.9669,-2.9306,-2.9229,-2.8358,-2.8494,-2.9098,-2.7474,-2.7334,-2.7865,-2.621,-2.5643,-2.5699,-2.5699,-2.5701,-2.5703,-2.5698,-2.5703,-2.5701,-2.5692,-2.5707,-2.5707,-2.5707,-2.5699,-2.571,-2.5708,-2.5655,-2.5595,-2.5593,-2.5608,-2.56,-2.5568,-2.488,-2.4255,-2.4236,-2.2829,-2.1675,-2.1694,-2.0914,-2.0313,-2.0332,-2.0265,-2.0163,-2.0102,-2.0093,-2.0093,-2.0093,-2.0093,-2.0093,-2.0093,-2.0093,-2.0093,-2.0093,-2.0093,-2.0093,-2.0093,-2.0093,-2.0069,-2.0001,-1.9875,-1.9701,-1.9485,-1.9372,-1.9219,-1.9095,-1.9095,-1.8852,-2.4464,-2.5122,-2.5921,-2.6464,-2.6989,-2.7532,-2.8075,-2.8419,-2.86,-2.86,-2.8675,-2.8779,-2.8968,-2.9108,-2.9283,-2.9561,-2.9662,-2.9742,-2.988,-2.9897,-2.9897,-2.9897,-2.9897,-2.9913,-2.9953,-3.0111,-3.0254,-3.0386,-3.0444,-3.0505,-3.0593,-3.0598,-3.0598,-3.0598,-3.0598,-3.0598,-3.0598,-3.0598,-3.0598,-3.0598,-3.0598,-3.0598,-3.0598,-3.0598,-3.0598,-3.0578,-3.0288,-3.0153,-3.0133,-2.9843,-2.9553,-2.9248,-2.8681,-2.7966,-2.7179,-2.6605,-2.6065,-2.5641,-2.5675,-2.5699,-2.5703,-2.5697,-2.5703,-2.5702,-2.5692,-2.5707,-2.5707,-2.5707,-2.5705,-2.5701,-2.5692,-2.5686,-2.5653,-2.5619,-2.5608,-2.56,-2.5607,-2.4918,-2.4294,-2.4294,-2.3356,-2.2746,-2.3326,-2.2649,-2.1829,-2.1257,-2.06,-2.0182,-2.0102,-2.0093,-2.0093,-2.0093,-2.0093,-2.0093,-2.0093,-2.0093,-2.0093,-2.0093,-2.0093,-2.0093,-2.0093,-2.0093,-2.0074,-2.0007,-1.9952,-1.9812,-1.9576,-1.9435,-1.9326,-1.9219,-1.9137,-1.894,-2.5494,-2.6152,-2.6808,-2.7622,-2.7821,-2.7966,-2.8491,-2.86,-2.86,-2.86,-2.8457,-2.836,-2.8546,-2.839,-2.8429,-2.8988,-2.912,-2.9324,-2.9731,-2.9855,-2.9897,-2.9897,-2.9897,-2.9897,-2.9897,-2.9969,-3.0104,-3.0279,-3.0348,-3.0406,-3.051,-3.0535,-3.055,-3.0598,-3.0598,-3.0598,-3.0598,-3.0598,-3.0598,-3.0598,-3.0598,-3.0598,-3.0598,-3.0598,-3.0598,-3.0598,-3.0598,-3.0598,-3.0598,-3.0598,-3.0269,-2.9727,-2.9418,-2.8449,-2.7199,-2.69,-2.6279,-2.5565,-2.5639,-2.5687,-2.5692,-2.569,-2.57,-2.5703,-2.5698,-2.5692,-2.5707,-2.5707,-2.5707,-2.5705,-2.5698,-2.5697,-2.569,-2.5642,-2.5634,-2.5628,-2.562,-2.5157,-2.476,-2.476,-2.4053,-2.3637,-2.4197,-2.3536,-2.2749,-2.2158,-2.1559,-2.0924,-2.0229,-2.0139,-2.0125,-2.0093,-2.0093,-2.0093,-2.0093,-2.0093,-2.0093,-2.0093,-2.0093,-2.0093,-2.0093,-2.0093,-2.0079,-2.0033,-2.0012,-1.9894,-1.9669,-1.9516,-1.9398,-1.9301,-1.9153,-1.9155,-2.6558,-2.7245,-2.764,-2.8419,-2.86,-2.86,-2.86,-2.86,-2.86,-2.8545,-2.8123,-2.7758,0.0,-2.7249,-2.7167,-2.7921,-2.8269,-2.8724,-2.9504,-2.9769,-2.9897,-2.9897,-2.9897,-2.9897,-2.9897,-2.9897,-2.9945,-3.0087,-3.02,-3.0324,-3.0386,-3.0386,-3.0449,-3.0588,-3.0593,-3.0593,-3.0598,-3.0598,-3.0598,-3.0598,-3.0598,-3.0598,-3.0598,-3.0598,-3.0598,-3.0598,-3.0598,-3.0598,-3.0598,-3.0598,-3.0578,-3.0443,-2.9611,-2.8745,-2.784,-2.7083,-2.6248,-2.5506,-2.5568,-2.5641,-2.5703,-2.5692,-2.5691,-2.57,-2.5703,-2.5698,-2.5708,-2.5707,-2.5707,-2.5707,-2.5707,-2.5707,-2.5705,-2.5693,-2.571,-2.5684,-2.5605,-2.5607,-2.5591,-2.561,-2.4921,-2.4372,-2.4372,-2.3639,-2.3043,-2.2979,-2.2934,-2.2281,-2.0504,-2.0311,-2.0301,-2.0184,-2.0212,-2.0232,-2.0227,-2.0227,-2.0227,-2.0227,-2.0189,-2.017,-2.017,-2.0112,-2.0131,-2.0165,-2.0102,-2.001,-1.9931,-1.9736,-1.9575,-1.9426,-1.9297,-1.9542,-2.6964,-2.779,-2.8346,-2.8545,-2.86,-2.86,-2.86,-2.86,-2.8437,-2.7821,-2.761,-2.7131,-2.5925,-2.657,-2.7255,-2.7212,-2.8248,-2.9251,-2.9758,-2.9864,-2.9897,-2.9897,-2.9897,-2.9897,-2.9897,-2.9897,-2.9905,-2.9945,-3.0079,-3.02,-3.0324,-3.033,-3.0354,-3.0444,-3.0449,-3.05,-3.0598,-3.0598,-3.0598,-3.0598,-3.0598,-3.0598,-3.0598,-3.0598,-3.0598,-3.0598,-3.0598,-3.0598,-3.0598,-3.0598,-3.0211,-2.9611,-2.9384,-2.8373,-2.7015,-2.6796,-2.6203,-2.5499,-2.5515,-2.5579,-2.5626,-2.5689,-2.5703,-2.5691,-2.5703,-2.5702,-2.5699,-2.569,-2.5707,-2.5707,-2.5707,-2.5707,-2.5705,-2.5693,-2.571,-2.5684,-2.5605,-2.5598,-2.5609,-2.5593,-2.5429,-2.5268,-2.5268,-2.4549,-2.3964,-2.3952,-2.339,-2.2565,-2.1381,-2.1814,-2.1937,-2.1222,-2.1683,-2.2024,-2.1975,-2.197,-2.197,-2.197,-2.1402,-2.1077,-2.1077,-2.0442,-2.038,-2.0974,-2.0982,-2.1221,-2.174,-2.1596,-2.1414,-2.1234,-2.1099,-2.107,-2.7658,-2.8231,-2.8562,-2.8587,-2.8574,-2.8471,-2.811,-2.8062,-2.7839,-2.6989,-2.6561,-2.5968,-2.4701,-2.5497,-2.6295,-2.6111,-2.7588,-2.8985,-2.9551,-2.9796,-2.9897,-2.9897,-2.9897,-2.9897,-2.9897,-2.9897,-2.9897,-2.9897,-2.9961,-3.0079,-3.0213,-3.0219,-3.0266,-3.0354,-3.0375,-3.0455,-3.0598,-3.0598,-3.0598,-3.0598,-3.0598,-3.0598,-3.0598,-3.0598,-3.0598,-3.0598,-3.0598,-3.0385,-3.0056,-3.0443,-3.0095,-2.9306,-2.9306,-2.847,-2.7213,-2.6841,-2.62,-2.549,-2.5508,-2.5522,-2.5563,-2.5621,-2.5662,-2.5655,-2.5697,-2.5703,-2.5702,-2.5698,-2.5693,-2.5707,-2.5707,-2.5707,-2.5706,-2.5699,-2.5698,-2.5696,-2.5647,-2.5641,-2.5646,-2.5615,-2.5595,-2.5599,-2.5604,-2.519,-2.488,-2.488,-2.4455,-2.3819,-2.2895,-2.2849,-2.2693,-2.2168,-2.2511,-2.2754,-2.2652,-2.2642,-2.2627,-2.2606,-2.2185,-2.1937,-2.1937,-2.1454,-2.1401,-2.1852,-2.1871,-2.2076,-2.2501,-2.2343,-2.2203,-2.2066,-2.1847,-2.1888,-2.8375,-2.8549,-2.8505,-2.8562,-2.8549,-2.8307,-2.7482,-2.7266,-2.6965,-2.5978,-2.5188,-2.4436,-2.3632,-2.423,-2.4893,-2.5034,-2.6741,-2.8346,-2.9223,-2.9644,-2.9872,-2.9888,-2.9897,-2.9897,-2.9897,-2.9897,-2.9897,-2.9897,-2.9897,-2.9945,-3.0072,-3.0079,-3.013,-3.0266,-3.0359,-3.0449,-3.0564,-3.0593,-3.0598,-3.0598,-3.0598,-3.0598,-3.0598,-3.0598,-3.0598,-3.0598,-3.0482,-2.9998,-2.9345,-2.9998,-2.9805,-2.9132,-2.9132,-2.8591,-2.7739,-2.6977,-2.6184,-2.5496,-2.5494,-2.5508,-2.5518,-2.5585,-2.5607,-2.5613,-2.5672,-2.5696,-2.5703,-2.5703,-2.5698,-2.571,-2.5707,-2.5707,-2.5707,-2.5707,-2.5707,-2.5707,-2.5707,-2.5697,-2.5676,-2.5617,-2.5605,-2.5595,-2.5604,-2.5601,-2.5601,-2.5601,-2.5601,-2.5326,-2.4569,-2.376,-2.3214,-2.3087,-2.318,-2.3191,-2.3067,-2.3049,-2.3031,-2.2971,-2.2835,-2.2772,-2.2772,-2.2658,-2.2658,-2.2772,-2.2772,-2.2822,-2.2938,-2.2823,-2.2716,-2.2619,-2.2311,-2.2521,-2.8482,-2.8549,-2.8562,-2.8458,-2.851,-2.8345,-2.7432,-2.6802,0.0,-2.4424,-2.3487,-2.2697,-2.1954,-2.302,-2.4298,-2.5185,-2.6754,-2.8249,-2.9401,-2.9617,-2.9707,-2.988,-2.9897,-2.9897,-2.9897,-2.9897,-2.9897,-2.9897,-2.9897,-2.9905,-2.9929,-2.9929,-3.0011,-3.013,-3.0304,-3.0403,-3.0439,-3.0545,-3.0598,-3.0598,-3.0598,-3.0598,-3.0598,-3.0598,-3.0598,-3.0559,-2.9843,-2.9442,-2.9268,-2.8687,-2.8358,-2.8223,-2.8223,-2.7696,-2.6919,-2.6764,-2.6184,-2.5492,-2.5499,-2.5499,-2.5515,-2.5589,-2.5593,-2.5604,-2.5613,-2.5655,-2.5693,-2.5703,-2.5702,-2.57,-2.569,-2.5707,-2.5707,-2.5707,-2.5707,-2.5707,-2.5707,-2.5669,-2.5619,-2.5595,-2.5607,-2.5607,-2.5601,-2.5601,-2.5601,-2.5601,-2.5601,-2.5543,-2.5385,-2.5223,-2.4833,-2.4063,-2.4617,-2.502,-2.4939,-2.4875,-2.4845,-2.483,-2.4091,-2.3665,-2.3665,-2.2983,-2.2944,-2.3665,-2.3665,-2.3999,-2.4664,-2.4651,-2.4504,-2.4272,-2.4176,-2.4072,-2.8471,-2.8445,-2.8432,-2.8411,-2.8419,-2.8126,-2.6871,0.0,0.0,-2.3379,-2.2419,-2.163,-2.0867,-2.2391,-2.3779,-2.3929,-2.5722,-2.7485,-2.8509,-2.883,-2.9165,-2.9677,-2.9839,-2.9897,-2.9897,-2.9897,-2.9897,-2.9897,-2.9897,-2.9897,-2.9897,-2.9897,-2.9953,-3.0101,-3.0188,-3.0292,-3.0342,-3.0453,-3.0495,-3.0495,-3.0579,-3.0559,-3.0481,-3.0095,-2.9883,-2.9767,-2.8979,-2.8373,-2.7948,-2.7991,-2.7739,-2.7329,-2.7329,-2.7073,-2.6644,-2.6223,-2.5836,-2.5507,-2.5507,-2.5507,-2.5515,-2.5536,-2.5564,-2.5593,-2.5604,-2.5657,-2.5705,-2.5701,-2.5703,-2.5701,-2.5691,-2.5707,-2.5707,-2.5707,-2.5707,-2.5707,-2.5707,-2.5673,-2.5632,-2.5611,-2.5605,-2.5601,-2.5604,-2.5601,-2.5601,-2.5601,-2.5601,-2.5601,-2.5601,-2.5601,-2.5437,-2.4985,-2.5292,-2.552,-2.546,-2.5427,-2.5374,-2.5297,-2.4891,-2.4618,-2.4574,-2.4173,-2.4154,-2.4574,-2.4574,-2.4767,-2.5157,-2.5157,-2.5076,-2.4905,-2.4731,-2.4556,-2.8419,-2.8367,-2.834,-2.834,-2.834,-2.7919,-2.6317,-2.5255,0.0,-2.2471,-2.1398,-2.062,-2.0181,-2.1646,-2.2908,-2.2852,-2.4561,-2.6351,-2.76,-2.8097,-2.8651,-2.9504,-2.9787,-2.9897,-2.9897,-2.9897,-2.9897,-2.9897,-2.9897,-2.9897,-2.9897,-2.9897,-2.9945,-3.0045,-3.0087,-3.0145,-3.0253,-3.0336,-3.0389,-3.0389,-3.0499,-3.0378,-3.0081,-2.9496,-2.9085,-2.8777,-2.8034,-2.7308,-2.6724,-2.7247,-2.7058,-2.6435,-2.6435,-2.6435,-2.6377,-2.572,-2.5507,-2.5507,-2.5507,-2.5507,-2.5507,-2.5507,-2.554,-2.5579,-2.559,-2.5636,-2.5675,-2.5696,-2.5703,-2.5702,-2.5692,-2.5707,-2.5707,-2.5707,-2.5707,-2.5706,-2.5704,-2.5697,-2.5684,-2.5605,-2.5604,-2.56,-2.5596,-2.5604,-2.5601,-2.5601,-2.5601,-2.5601,-2.5601,-2.5601,-2.5601,-2.5601,-2.5601,-2.5583,-2.552,-2.5506,-2.5456,-2.5346,-2.5326,-2.5285,-2.522,-2.5203,-2.5191,-2.5191,-2.5191,-2.5191,-2.5191,-2.5193,-2.5157,-2.5095,-2.4837,-2.4685,-2.8432,-2.8445,-2.8445,-2.8264,-2.8304,-2.7941,-2.6213,0.0,-2.3242,-2.1575,-2.0047,-1.9244,-1.9963,-2.0277,-2.1131,-2.325,0.0,-2.4918,-2.7368,-2.7945,-2.8492,-2.9476,-2.9787,-2.9897,-2.9897,-2.9897,-2.9897,-2.9897,-2.9897,-2.9897,-2.9897,-2.9897,-2.9916,-2.9913,-3.0042,-3.0109,-3.0116,-3.0253,-3.0305,-3.0305,-3.0311,-2.9915,-2.9122,-2.9057,-2.8616,-2.7873,-2.7089,-2.668,-2.6569,-2.597,-2.5681,-2.5604,-2.5604,-2.5604,-2.5604,-2.5526,-2.5507,-2.5507,-2.5507,-2.5507,-2.5507,-2.5507,-2.5503,-2.5525,-2.5576,-2.5593,-2.5617,-2.5673,-2.57,-2.5703,-2.5694,-2.5707,-2.5707,-2.5707,-2.5707,-2.5705,-2.5694,-2.569,-2.5684,-2.5605,-2.5604,-2.5608,-2.5605,-2.5601,-2.5601,-2.5601,-2.5601,-2.5601,-2.5601,-2.5601,-2.5601,-2.5601,-2.5601,-2.5598,-2.5592,-2.5547,-2.5491,-2.548,-2.5365,-2.5306,-2.5301,-2.5231,-2.5191,-2.5191,-2.5191,-2.5191,-2.5191,-2.5145,-2.5108,-2.5095,-2.4884,-2.4716,-2.8241,-2.8327,-2.8304,-2.8209,-2.8237,-2.7835,-2.6175,-2.4617,-2.3086,-2.1429,-1.9867,-1.8913,-1.9262,-1.9718,-2.0507,-2.1965,-2.2625,-2.3527,-2.5129,-2.5968,-2.675,-2.7683,-2.8399,-2.9044,-2.9651,-2.9617,-2.9598,-2.9707,-2.9716,-2.976,-2.9888,-2.9897,-2.9897,-2.9897,-2.9945,-2.9969,-2.9969,-3.0116,-3.0173,-3.0173,-2.9724,-2.9302,-2.8899,-2.7935,-2.7278,-2.686,-2.6091,-2.5774,-2.5784,-2.5502,-2.5436,-2.5507,-2.5507,-2.5507,-2.5507,-2.5507,-2.5507,-2.5507,-2.5507,-2.5507,-2.5507,-2.5507,-2.5503,-2.5503,-2.5525,-2.5571,-2.5607,-2.5626,-2.5677,-2.5702,-2.5694,-2.5707,-2.5707,-2.5707,-2.5707,-2.5706,-2.5702,-2.5696,-2.5687,-2.566,-2.5625,-2.5609,-2.5609,-2.56,-2.5593,-2.5593,-2.56,-2.559,-2.559,-2.5593,-2.5601,-2.5601,-2.5601,-2.5601,-2.5601,-2.5583,-2.5534,-2.5499,-2.5452,-2.5406,-2.5365,-2.5337,-2.5297,-2.5264,-2.5264,-2.5242,-2.5191,-2.5162,-2.5145,-2.5095,-2.494,-2.4804,-2.7811,-2.8081,-2.8223,-2.8196,-2.8017,-2.7482,-2.6122,-2.4415,-2.2756,-2.1375,-1.9867,-1.8797,-1.8797,-1.9261,-1.9976,0.0,-2.1655,-2.2521,-2.3902,-2.4803,-2.5619,-2.6465,-2.7281,-2.8118,-2.9064,-2.9246,-2.9365,-2.9504,-2.957,-2.9662,-2.9794,-2.9864,-2.9897,-2.9897,-2.9897,-2.9783,-2.9556,-2.9642,-2.9581,-2.9315,-2.8796,-2.8388,-2.8065,-2.6925,-2.6225,-2.5888,-2.5396,-2.5206,-2.5249,-2.5279,-2.5363,-2.5444,-2.5484,-2.5507,-2.5507,-2.5507,-2.5507,-2.5507,-2.5507,-2.5507,-2.5507,-2.5507,-2.5507,-2.5496,-2.5506,-2.5522,-2.5564,-2.5588,-2.5655,-2.5703,-2.5698,-2.5691,-2.5707,-2.5707,-2.5707,-2.5707,-2.5707,-2.5702,-2.5696,-2.5696,-2.5663,-2.563,-2.563,-2.5605,-2.5601,-2.5601,-2.5609,-2.56,-2.56,-2.56,-2.5604,-2.5596,-2.5826,-2.5882,-2.5621,-2.5601,-2.5586,-2.5527,-2.5506,-2.548,-2.544,-2.5419,-2.5384,-2.5327,-2.5302,-2.5285,-2.5225,-2.518,-2.5151,-2.5101,-2.4954,-2.4861,-2.7131,-2.7691,-2.8286,-2.8209,-2.7603,-2.68,-2.5997,-2.3981,-2.2082,-2.1268,-1.9867,-1.8797,-1.8797,-1.8815,-1.9314,-2.0858,-2.1159,-2.2041,-2.4448,-2.5078,-2.5609,-2.6423,-2.6743,-2.7233,-2.8032,-2.8831,-2.9304,-2.9304,-2.9494,-2.9608,-2.9608,-2.9786,-2.9897,-2.9897,-2.9897,-2.9518,-2.8722,-2.8703,-2.8313,-2.7532,-2.7513,-2.7058,-2.6235,-2.6197,-2.5768,-2.501,-2.5089,-2.5107,-2.5106,-2.5249,-2.5297,-2.5326,-2.5448,-2.5507,-2.5507,-2.5507,-2.5507,-2.5507,-2.5507,-2.5507,-2.5507,-2.5507,-2.5507,-2.5507,-2.5511,-2.5503,-2.5502,-2.5576,-2.5654,-2.5702,-2.5702,-2.5697,-2.5707,-2.5707,-2.5707,-2.5707,-2.5707,-2.5707,-2.5707,-2.5707,-2.5698,-2.5708,-2.5708,-2.5636,-2.5601,-2.5601,-2.5601,-2.5601,-2.5601,-2.56,-2.5593,-2.5591,-2.6362,-2.6543,-2.5662,-2.5601,-2.5601,-2.5598,-2.555,-2.5495,-2.5495,-2.544,-2.541,-2.541,-2.5332,-2.5311,-2.5306,-2.5162,-2.5101,-2.5101,-2.4954,-2.4861,-2.5386,-2.6054,-2.6468,-2.5943,-2.5997,-2.5836,-2.4522,-2.3231,-2.1939,-2.0626,-1.951,-1.8797,-1.8797,-1.8797,-1.9296,-2.0858,-2.1118,0.0,-2.2969,-2.4248,-2.5146,-2.5433,-2.7167,-2.8357,-2.8431,-2.8838,-2.9086,-2.9086,-2.9152,-2.9241,-2.9395,-2.9465,-2.9617,-2.9888,-2.9897,-2.9518,-2.8703,-2.8703,-2.8294,-2.7494,-2.6899,-2.6463,-2.6178,-2.5629,-2.5231,-2.5003,-2.5018,-2.507,-2.5094,-2.5153,-2.5195,-2.5244,-2.5321,-2.5367,-2.5372,-2.5476,-2.5507,-2.5507,-2.5507,-2.5507,-2.5507,-2.5507,-2.5507,-2.5507,-2.5507,-2.5503,-2.5502,-2.5576,-2.5621,-2.5641,-2.5683,-2.5701,-2.5698,-2.571,-2.5707,-2.5707,-2.5707,-2.5707,-2.5883,-2.6469,-2.6584,-2.6776,-2.7362,-2.7456,-2.7452,-2.7452,-2.7405,-2.7379,-2.7379,-2.7386,-2.7374,-2.739,-2.7625,-2.7446,-2.6559,-2.6997,-2.7307,-2.7307,-2.7291,-2.7032,-2.6473,-2.644,-2.6118,-2.5472,-2.5448,-2.5393,-2.5311,-2.5264,-2.5191,-2.5101,-2.5057,-2.4946,-2.3925,-2.4837,-2.5337,-2.5158,-2.5021,-2.4682,-2.3719,-2.2428,-2.1133,-2.0073,-1.9285,-1.8779,-1.8704,-1.8751,-1.9207,-2.0483,-2.0929,-2.1396,-2.2289,-2.3835,-2.5048,-2.5405,-2.7184,-2.8324,-2.816,-2.8561,-2.8839,-2.8839,-2.8934,-2.9041,-2.9185,-2.8965,-2.8969,-2.921,-2.929,-2.8795,-2.7651,-2.7714,-2.7346,-2.6546,-2.6008,-2.5743,-2.5724,-2.5231,-2.5003,-2.5003,-2.5003,-2.5018,0.0,-2.5088,-2.5124,-2.5168,-2.5239,-2.5274,-2.5302,-2.5385,-2.5452,-2.5507,-2.5507,-2.5507,-2.5507,-2.5507,-2.5507,-2.5507,-2.5507,-2.551,-2.5547,-2.5591,-2.5619,-2.5649,-2.568,-2.5703,-2.5703,-2.5698,-2.5695,-2.5694,-2.5708,-2.5961,-2.6352,-2.6899,-2.7269,-2.7659,-2.8205,-2.8303,-2.8303,-2.8303,-2.8258,-2.8233,-2.8233,-2.8246,-2.8236,-2.8191,-2.8489,-2.8469,-2.7937,-2.8022,-2.81,-2.81,-2.7812,-2.7563,-2.7369,-2.7061,-2.6773,-2.6481,-2.6463,-2.6397,-2.6313,-2.6269,-2.6192,-2.6073,-2.5723,-2.5487,0.0,-2.3826,-2.4605,-2.5229,-2.4343,-2.3327,-2.3255,-2.1561,0.0,-1.9583,-1.9135,-1.8741,-1.8594,-1.8693,-1.9064,-1.9948,-2.0644,-2.1396,-2.2264,-2.3889,-2.5318,-2.6241,-2.7025,-2.7477,-2.7477,-2.8165,-2.86,-2.86,-2.8827,-2.895,-2.8895,-2.8342,-2.8002,-2.7872,-2.8063,-2.7451,-2.5901,-2.6084,-2.5766,-2.499,-2.4996,-2.5003,-2.5003,-2.5003,-2.5003,-2.5003,-2.5003,-2.5003,-2.4991,-2.5063,-2.5095,-2.5107,-2.5168,-2.5234,-2.5283,-2.5288,-2.5372,-2.5484,-2.5484,-2.5488,-2.5507,-2.5507,-2.5507,-2.5507,-2.5507,-2.5543,-2.5598,-2.5598,-2.5648,-2.5696,-2.5698,-2.5691,-2.5701,-2.5703,-2.5741,-2.5799,-2.579,-2.6489,-2.7113,-2.7172,-2.7835,-2.8401,-2.8479,-2.8479,-2.8479,-2.8479,-2.8479,-2.8479,-2.8479,-2.8479,-2.8455,-2.8385,-2.9101,-2.9599,-2.9585,-2.8791,-2.8285,-2.8282,-2.7586,-2.7488,-2.8162,-2.7466,-2.7408,-2.8084,-2.8039,-2.7993,-2.7993,-2.787,-2.7779,-2.7689,-2.6803,-2.6402,-2.0519,0.0,-2.1857,-2.1465,-2.1518,-2.1518,0.0,-2.0394,-1.9747,-1.8931,-1.8657,-1.8729,-1.9253,-1.8921,-1.908,-2.0578,-2.0983,-2.1386,-2.2211,-2.4334,-2.6327,-2.7713,-2.8139,-2.8297,-2.8247,-2.8466,-2.86,-2.86,-2.8662,-2.8427,-2.7822,-2.7644,-2.7004,-2.5775,-2.5919,-2.594,-2.5751,-2.5901,-2.5578,-2.4768,-2.4929,-2.5003,-2.5003,-2.5003,-2.5003,-2.5003,-2.5003,-2.5003,-2.5003,-2.503,-2.5018,-2.5031,-2.5107,-2.5136,-2.5145,-2.5198,-2.5274,-2.5339,-2.5339,-2.5412,-2.5507,-2.5507,-2.5507,-2.5507,-2.5507,-2.5506,-2.5531,-2.5595,-2.5617,-2.5638,-2.5693,-2.5703,-2.571,-2.57,-2.6211,-2.6697,-2.6696,-2.7373,-2.8186,-2.8851,-2.9143,-2.9494,-3.0117,-3.0215,-3.0215,-3.0215,-3.0215,-3.0215,-3.0215,-3.0215,-3.0215,-3.0193,-3.0377,-3.0484,-3.048,-3.0297,-3.013,-3.0088,-2.9913,-2.9593,-2.9117,-2.8903,-2.8592,-2.8104,-2.8039,-2.7993,-2.7993,-2.7927,-2.7839,-2.776,-2.7557,-2.7389,-1.919,-2.0182,-2.109,-2.1054,-2.101,-2.0859,-2.0458,-1.9732,-1.8956,0.0,0.0,-1.8402,-1.8724,-1.8889,-1.9278,-2.0086,-2.1026,-2.2189,-2.3777,-2.5232,-2.6708,-2.8223,-2.8349,-2.837,-2.8479,-2.8562,-2.8455,-2.8075,-2.8057,-2.7695,-2.688,-2.6512,-2.5896,-2.5027,-2.4746,-2.4737,-2.4968,-2.5128,-2.4989,-2.4559,-2.4761,-2.4861,-2.4861,-2.495,-2.5003,-2.5003,-2.5003,-2.5003,-2.5003,-2.5003,-2.5003,-2.501,-2.5044,-2.507,-2.5094,-2.5147,-2.5214,-2.5297,-2.5297,-2.54,-2.5507,-2.5507,-2.5507,-2.5507,-2.5507,-2.5503,-2.5502,-2.5573,-2.5896,-2.6203,-2.624,-2.6541,-2.6858,-2.6859,-2.7219,-2.7556,-2.7558,-2.8242,-2.8982,-2.9467,-2.9876,-3.0283,-3.0725,-3.08,-3.08,-3.08,-3.08,-3.08,-3.08,-3.08,-3.08,-3.08,-3.0794,-3.0809,-3.0809,-3.0799,-3.078,-3.0742,-3.0372,-3.0108,-2.9998,-2.9645,-2.9405,-2.9292,-2.9267,-2.9222,-2.919,-2.9156,-2.9076,-2.8946,-2.8562,-2.83,-1.8576,-1.9772,-2.1103,-2.154,-2.1092,-2.0528,-2.0416,0.0,0.0,0.0,0.0,-1.807,-1.8133,-1.8976,-1.9676,-1.9717,-2.1323,-2.3422,-2.5821,-2.6259,-2.6831,-2.821,-2.8183,-2.8183,-2.844,-2.8549,-2.8243,-2.7447,-2.7387,-2.6989,-2.6077,-2.5371,-2.4936,-2.4827,-2.4157,-2.3888,-2.404,-2.4256,-2.4355,-2.4355,-2.4569,-2.465,-2.465,-2.4839,-2.4915,-2.4922,-2.4943,-2.495,-2.495,-2.4996,-2.5003,-2.5003,-2.5003,-2.5037,-2.5082,-2.5082,-2.5162,-2.5265,-2.5288,-2.54,-2.5507,-2.5507,-2.5507,-2.5507,-2.5507,-2.5495,-2.5515,-2.5567,-2.6226,-2.6899,-2.6901,-2.7548,-2.8197,-2.8202,-2.8307,-2.8393,-2.8406,-2.9075,-2.9703,-2.9707,-3.0293,-3.0799,-3.0791,-3.0807,-3.0805,-3.0805,-3.0803,-3.08,-3.08,-3.08,-3.08,-3.08,-3.08,-3.08,-3.08,-3.08,-3.0809,-3.0795,-3.0111,-3.0,-3.0664,-3.0061,-3.0007,-3.0694,-3.0694,-3.0668,-3.0617,-3.0617,-3.0525,-3.0333,-2.9623,-2.9206,-1.8933,-1.9791,-2.0217,-1.903,-1.9109,-1.929,-1.8665,0.0,0.0,0.0,0.0,0.0,0.0,-1.9847,-2.0398,-2.1846,-2.3106,-2.46,-2.6573,-2.6907,-2.7286,-2.8134,-2.8286,-2.834,-2.834,-2.8427,-2.818,-2.7368,-2.7363,-2.6753,-2.5262,-2.5063,-2.4683,-2.4013,-2.385,-2.3816,-2.3847,-2.4058,-2.4154,-2.4145,-2.4346,-2.4459,-2.4459,-2.4485,-2.4483,-2.451,-2.4665,-2.4746,-2.4753,-2.4929,-2.5003,-2.5003,-2.5003,-2.5017,-2.5023,-2.5023,-2.5057,-2.5159,-2.525,-2.54,-2.5507,-2.5507,-2.5507,-2.5507,-2.5507,-2.5496,-2.5511,-2.5511,-2.617,-2.6899,-2.6901,-2.7548,-2.8193,-2.8197,-2.8764,-2.9308,-2.9291,-2.9988,-3.0601,-3.0603,-3.0701,-3.0799,-3.08,-3.08,-3.0798,-3.0798,-3.081,-3.08,-3.08,-3.08,-3.08,-3.08,-3.08,-3.08,-3.08,-3.08,-3.0799,-3.0794,-3.0666,-3.0639,-3.0703,-3.0586,-3.0571,-3.0694,-3.0694,-3.069,-3.068,-3.068,-3.0645,-3.0544,-3.0302,-3.0158,-1.7755,-1.8342,-1.8758,-1.8402,-1.928,-2.0142,-1.9797,-1.9297,0.0,0.0,0.0,0.0,0.0,-2.0565,-2.1766,-2.3515,-2.4291,-2.5101,-2.6289,-2.6554,-2.6861,-2.7577,-2.7358,-2.7222,-2.7378,-2.7274,-2.688,-2.6104,-2.6091,-2.5602,-2.4411,-2.4339,-2.4176,-2.3813,-2.3806,-2.3806,-2.3806,-2.3899,-2.3949,-2.3949,-2.4136,-2.4238,-2.4238,-2.4346,-2.4398,-2.4407,-2.4501,-2.4602,-2.4707,-2.4809,-2.4908,-2.5003,-2.5003,-2.5003,-2.4991,-2.5044,-2.507,-2.5118,-2.524,-2.5339,-2.5408,-2.548,-2.5507,-2.5507,-2.5507,-2.5507,-2.5499,-2.5505,-2.6485,-2.7557,-2.7583,-2.8593,-2.9593,-2.9593,-2.9918,-3.0201,-3.0201,-3.0524,-3.0792,-3.0804,-3.0806,-3.0809,-3.0796,-3.0799,-3.08,-3.08,-3.0801,-3.08,-3.08,-3.08,-3.0799,-3.0794,-3.0793,-3.0791,-3.0801,-3.08,-3.08,-3.08,-3.0807,-3.0784,-3.0764,-3.0728,-3.0707,-3.0694,-3.0694,-3.0694,-3.0694,-3.0694,-3.0665,-3.06,-3.0544,-3.0422,-1.7075,-1.731,-1.7669,-1.8323,-1.9503,-2.0581,-2.0918,-2.0274,-1.97,0.0,0.0,0.0,-2.0343,-2.1754,-2.3412,-2.499,-2.536,-2.5665,-2.6208,-2.6369,-2.6556,-2.6908,-2.6433,-2.6164,-2.63,-2.6093,-2.5655,-2.4895,-2.4846,-2.4509,-2.3736,-2.3682,-2.3714,-2.3795,-2.3806,-2.3806,-2.3806,-2.3806,-2.3806,-2.3806,-2.3959,-2.4039,-2.402,-2.4192,-2.4265,-2.4265,-2.431,-2.4425,-2.4569,-2.461,-2.4746,-2.4929,-2.4929,-2.4957,-2.5017,-2.507,-2.5088,-2.5106,-2.5214,-2.5269,-2.5302,-2.5395,-2.5464,-2.5526,-2.5704,-2.577,-2.5824,-2.6033,-2.7196,-2.8343,-2.8229,-2.9477,-3.0774,-3.0799,-3.0801,-3.0801,-3.0801,-3.0801,-3.0791,-3.0798,-3.0803,-3.0809,-3.0805,-3.0791,-3.0793,-3.0793,-3.0795,-3.0797,-3.0797,-3.0797,-3.0799,-3.0801,-3.0801,-3.0799,-3.0808,-3.0807,-3.0805,-3.0801,-3.0791,-3.0796,-3.0791,-3.0747,-3.0716,-3.0704,-3.0697,-3.0694,-3.0694,-3.0694,-3.0668,-3.0621,-3.0608,-3.0521,-1.8199,-1.7934,-1.7669,-1.8323,-1.8584,-1.9057,-2.0415,-2.0138,0.0,-2.135,0.0,-2.1847,-2.2543,-2.3884,-2.5263,-2.6387,-2.659,-2.6707,-2.7063,-2.7115,-2.6891,-2.6245,-2.6122,-2.5944,-2.5538,-2.5522,-2.5208,-2.4401,-2.4417,-2.4123,-2.337,-2.3335,-2.3488,-2.3795,-2.3806,-2.3806,-2.3806,-2.3806,-2.3806,-2.3806,-2.3816,-2.3827,-2.3827,-2.3837,-2.3847,-2.384,-2.403,-2.4135,-2.4164,-2.4337,-2.4534,-2.4723,-2.4723,-2.4839,-2.5003,-2.501,-2.505,-2.5107,-2.5106,-2.5206,-2.5288,-2.5234,-2.5346,-2.5634,-2.6308,-2.6562,-2.6783,-2.7585,-2.8493,-2.9062,-2.8376,-2.9441,-3.0712,-3.0794,-3.0801,-3.0801,-3.0801,-3.0801,-3.0801,-3.0804,-3.0806,-3.0806,-3.0808,-3.0798,-3.0795,-3.0795,-3.081,-3.0797,-3.0797,-3.0797,-3.0797,-3.0798,-3.0798,-3.08,-3.0799,-3.0798,-3.0795,-3.0801,-3.08,-3.0794,-3.0798,-3.0793,-3.0767,-3.07,-3.0707,-3.0694,-3.0694,-3.0694,-3.069,-3.0687,-3.0629,-3.0595,-1.7138,-1.7006,-1.7088,-1.8224,-1.884,0.0,0.0,-2.1516,-2.1947,-2.2957,-2.3172,-2.3238,-2.3537,-2.4414,-2.5227,-2.5647,-2.6081,-2.6417,-2.6555,-2.6572,-2.6303,-2.5579,-2.5232,-2.4789,-2.415,-2.389,-2.3637,-2.3331,-2.3322,-2.3263,-2.3063,-2.3057,-2.3147,-2.3365,-2.3359,-2.3359,-2.3359,-2.3524,-2.3609,-2.362,-2.3732,-2.3806,-2.3806,-2.3806,-2.3806,-2.3806,-2.3888,-2.3971,-2.4116,-2.4174,-2.4328,-2.4526,-2.4642,-2.5047,-2.5567,-2.5707,-2.6112,-2.6526,-2.6015,-2.5874,-2.5844,-2.5354,-2.5618,-2.6173,-2.6455,-2.6907,-2.7414,-2.7827,-2.855,-2.9138,-2.9,-2.9816,-3.0728,-3.0774,-3.0801,-3.0801,-3.0801,-3.0801,-3.0801,-3.0801,-3.0801,-3.0801,-3.0801,-3.0793,-3.0804,-3.0804,-3.0794,-3.0801,-3.0801,-3.0801,-3.0807,-3.0803,-3.0793,-3.0798,-3.08,-3.08,-3.0801,-3.0801,-3.0792,-3.0809,-3.0798,-3.0806,-3.0762,-3.0695,-3.0701,-3.0694,-3.0694,-3.0694,-3.0694,-3.0694,-3.0672,-3.0653,-1.647,-1.6403,-1.6702,-1.7888,0.0,0.0,-2.1814,-2.2526,-2.3238,-2.4448,-2.4514,-2.4431,-2.4646,-2.4928,-2.5193,-2.5407,-2.5871,-2.6119,-2.5887,-2.5838,-2.549,-2.453,-2.4128,-2.3663,-2.3023,-2.2709,-2.2533,-2.2538,-2.2538,-2.2591,-2.2708,-2.2708,-2.2815,-2.3037,-2.3037,-2.3049,-2.3091,-2.3289,-2.3371,-2.3371,-2.3513,-2.3667,-2.3806,-2.3806,-2.3806,-2.3806,-2.3806,-2.3878,-2.4009,-2.4009,-2.4117,-2.4319,-2.4526,-2.4979,-2.5568,-2.5948,-2.6363,-2.6667,-2.6369,-2.6123,-2.5869,-2.5607,-2.5966,-2.6594,-2.7101,-2.7668,-2.8183,-2.856,-2.9058,-2.9531,-2.9698,-3.0214,-3.0682,-3.0742,-3.0769,-3.0772,-3.0799,-3.0801,-3.0801,-3.0801,-3.0801,-3.0801,-3.0801,-3.0801,-3.0801,-3.0801,-3.0801,-3.0801,-3.0801,-3.0801,-3.0791,-3.0798,-3.0795,-3.0805,-3.0791,-3.0792,-3.0793,-3.0797,-3.08,-3.0807,-3.0799,-3.0795,-3.0784,-3.0724,-3.0704,-3.0694,-3.0694,-3.0694,-3.0694,-3.0694,-3.0694,-3.0706,-1.6603,-1.6403,-1.6586,-1.7321,0.0,0.0,-2.2576,-2.2907,-2.3537,-2.5739,-2.5606,-2.5325,-2.6053,-2.559,-2.5341,-2.6053,-2.6169,-2.5921,-2.5176,-2.5094,-2.4547,-2.3073,-2.2891,-2.2715,-2.2231,-2.2192,-2.2192,-2.2192,-2.2192,-2.2234,-2.2286,-2.2303,-2.2489,-2.2885,-2.2898,-2.2952,-2.3079,-2.3091,-2.3109,-2.3109,-2.3091,-2.3335,-2.3795,-2.3795,-2.3795,-2.3806,-2.3795,-2.3795,-2.3806,-2.3806,-2.3919,-2.4126,-2.4319,-2.4518,-2.4793,-2.559,-2.5529,-2.5136,-2.5913,-2.5728,-2.5222,-2.5941,-2.6333,-2.6812,-2.8401,-2.8937,-2.9187,-3.0056,-3.0305,-3.0324,-3.046,-3.0549,-3.0607,-3.0685,-3.07,-3.0728,-3.0774,-3.0799,-3.0801,-3.0801,-3.0801,-3.0801,-3.0801,-3.0801,-3.0801,-3.0801,-3.0801,-3.0801,-3.0801,-3.0801,-3.0801,-3.0801,-3.0801,-3.0798,-3.0791,-3.0792,-3.0801,-3.0796,-3.0797,-3.08,-3.08,-3.0803,-3.0801,-3.0799,-3.0727,-3.0694,-3.0694,-3.0694,-3.0694,-3.0694,-3.0694,-3.0694,-1.647,-1.6403,-1.6807,-1.8551,-2.024,-2.1995,0.0,-2.4448,0.0,0.0,-2.602,-2.5772,-2.5491,-2.5656,-2.5624,-2.4795,-2.5094,-2.5176,-2.4431,-2.4332,-2.3967,-2.3007,-2.2891,-2.2639,-2.198,-2.1911,-2.1911,-2.1911,-2.1911,-2.1955,-2.2027,-2.201,-2.2141,-2.2398,-2.2398,-2.244,-2.2538,-2.2677,-2.2769,-2.2825,-2.2908,-2.3177,-2.3587,-2.3587,-2.3675,-2.3795,-2.38,-2.381,-2.3806,-2.3806,-2.3837,-2.3919,-2.4107,-2.4598,-2.5245,-2.5673,-2.6101,-2.6449,-2.6204,-2.6,-2.5745,-2.5451,-2.6182,-2.7295,-2.778,-2.8711,-2.9718,-3.0054,-3.0152,-3.0187,-3.0311,-3.0365,-3.0449,-3.0653,-3.0707,-3.0717,-3.0728,-3.0734,-3.0739,-3.0796,-3.0801,-3.0801,-3.0801,-3.0801,-3.0801,-3.0801,-3.0801,-3.0801,-3.0801,-3.0801,-3.0801,-3.0801,-3.0801,-3.0806,-3.0798,-3.08,-3.0804,-3.0792,-3.0792,-3.0796,-3.0795,-3.0795,-3.0782,-3.0734,-3.0714,-3.0694,-3.0694,-3.0694,-3.0694,-3.0694,-3.0694,-3.0694,-1.674,-1.7022,-1.7756,-1.9929,-2.1367,-2.2808,-2.5027,-2.554,-2.5656,-2.6103,-2.597,-2.5723,-2.5556,-2.5425,-2.5143,-2.453,-2.4564,-2.4414,-2.3669,-2.3553,-2.3288,-2.2543,-2.246,-2.2293,-2.1845,-2.1812,-2.1812,-2.1812,-2.1812,-2.1811,-2.1855,-2.1855,-2.193,-2.208,-2.2123,-2.2166,-2.2254,-2.2419,-2.2497,-2.2501,-2.2581,-2.2786,-2.3074,-2.3206,-2.3405,-2.3696,-2.3765,-2.3797,-2.3792,-2.3792,-2.3803,-2.3816,-2.3937,-2.434,-2.4907,-2.5375,-2.5782,-2.61,-2.6395,-2.625,-2.6005,-2.6348,-2.7093,-2.7924,-2.8335,-2.9128,-2.9913,-3.0011,-3.0007,-3.0057,-3.0199,-3.0226,-3.0292,-3.0558,-3.061,-3.0634,-3.0688,-3.0703,-3.0712,-3.0796,-3.0801,-3.0801,-3.0801,-3.0801,-3.0801,-3.0801,-3.0801,-3.0801,-3.0801,-3.0801,-3.0801,-3.0801,-3.0801,-3.0801,-3.0801,-3.0801,-3.0801,-3.0801,-3.0804,-3.0798,-3.0801,-3.0809,-3.078,-3.0745,-3.0707,-3.0694,-3.0694,-3.0694,-3.0694,-3.0694,-3.0694,-3.0694,-1.7176,-1.7888,-1.8969,-2.1273,-2.2466,-2.3621,-2.5669,-2.6114,-2.6096,-2.6168,-2.5656,-2.5391,-2.6017,-2.5009,-2.4249,-2.486,-2.4331,-2.3604,-2.2907,-2.2791,-2.2543,-2.1879,-2.1812,-2.1812,-2.1812,-2.1812,-2.1812,-2.1812,-2.1812,-2.1812,-2.1812,-2.1812,-2.1825,-2.1913,-2.1955,-2.2044,-2.2183,-2.224,-2.224,-2.2183,-2.2168,-2.2231,-2.2368,-2.2708,-2.3051,-2.344,-2.3627,-2.3721,-2.3761,-2.3743,-2.3768,-2.3785,-2.3797,-2.3873,-2.4072,-2.4884,-2.4909,-2.4796,-2.6465,-2.6485,-2.6085,-2.7915,-2.8454,-2.8546,-2.9473,-2.9823,-2.9897,-2.9897,-2.9897,-2.9921,-3.0057,-3.0087,-3.014,-3.0392,-3.0471,-3.0525,-3.0639,-3.0688,-3.07,-3.0772,-3.0799,-3.0801,-3.0801,-3.0801,-3.0801,-3.0801,-3.0801,-3.0801,-3.0801,-3.0801,-3.0801,-3.0801,-3.0801,-3.0801,-3.0801,-3.0801,-3.0801,-3.0801,-3.0801,-3.0798,-3.0807,-3.08,-3.0799,-3.0796,-3.0747,-3.0707,-3.0701,-3.0701,-3.0701,-3.0694,-3.0694,-3.0694,-1.6353,-1.7115,-1.8438,-2.1434,-2.3338,-2.4673,-2.5478,-2.5406,-2.5365,-2.6061,-2.607,-2.5898,-2.5689,-2.5002,-2.4317,-2.3841,-2.3176,-2.2589,-2.2098,-2.2044,-2.1978,-2.1829,-2.1812,-2.1812,-2.1812,-2.1812,-2.1812,-2.1812,-2.1812,-2.1812,-2.1812,-2.1812,-2.1825,-2.1913,-2.1911,-2.1955,-2.2044,-2.2001,-2.2001,-2.2044,-2.2003,-2.2015,-2.2096,-2.2381,-2.263,-2.2878,-2.2977,-2.3129,-2.3336,-2.3383,-2.3538,-2.3714,-2.3721,-2.3743,-2.3869,-2.4719,-2.4976,-2.5061,-2.624,-2.6501,-2.642,-2.6884,-2.7634,-2.8352,-2.8585,-2.9233,-2.9897,-2.9897,-2.9897,-2.9905,-2.9948,-2.9937,-2.9984,-3.0147,-3.0267,-3.0371,-3.0506,-3.0546,-3.0583,-3.0697,-3.0767,-3.0801,-3.0801,-3.0801,-3.0801,-3.0801,-3.0801,-3.0801,-3.0801,-3.0801,-3.0801,-3.0801,-3.0801,-3.0801,-3.0801,-3.0801,-3.0801,-3.0801,-3.0801,-3.0804,-3.0793,-3.0791,-3.0801,-3.0797,-3.0796,-3.0745,-3.0706,-3.0706,-3.0703,-3.0694,-3.0694,-3.0694,-1.6945,-1.7889,-1.9217,-2.2327,-2.401,-2.502,-2.5408,-2.504,-2.4799,-2.5438,-2.5586,-2.54,-2.4842,-2.4179,-2.3508,-2.2751,-2.2063,-2.1553,-2.1341,-2.1324,-2.1324,-2.1324,-2.1324,-2.1386,-2.1556,-2.1572,-2.1632,-2.1797,-2.1812,-2.1812,-2.1812,-2.1812,-2.1827,-2.1855,-2.1868,-2.1928,-2.1955,-2.1955,-2.1955,-2.1955,-2.1928,-2.1913,-2.1928,-2.2261,-2.2422,-2.2476,-2.2669,-2.284,-2.297,-2.3176,-2.3348,-2.3515,-2.3611,-2.3645,-2.3752,-2.4565,-2.4899,-2.5145,-2.6515,-2.6968,-2.7023,-2.7653,-2.8167,-2.8584,-2.8839,-2.9315,-2.9787,-2.9872,-2.9897,-2.9897,-2.9897,-2.9897,-2.9913,-2.9996,-3.0109,-3.0241,-3.0373,-3.0407,-3.0424,-3.0536,-3.0571,-3.0625,-3.0651,-3.0682,-3.0734,-3.0796,-3.0801,-3.0801,-3.0801,-3.0801,-3.0801,-3.0801,-3.0801,-3.0801,-3.0801,-3.0801,-3.0801,-3.0801,-3.0801,-3.0801,-3.0801,-3.0801,-3.0809,-3.0801,-3.0795,-3.0777,-3.0755,-3.0715,-3.0708,-3.07,-3.0707,-3.0694,-1.7338,-1.8723,-2.0287,-2.3208,-2.4331,-2.4858,-2.5373,-2.4879,-2.4405,-2.4739,-2.4843,-2.4662,-2.3929,-2.3198,-2.2488,-2.1813,-2.1136,-2.0712,-2.0794,-2.0794,-2.0794,-2.0794,-2.0794,-2.0925,-2.1278,-2.1293,-2.1433,-2.1766,-2.1753,-2.1753,-2.1812,-2.1753,-2.1687,-2.1613,-2.1788,-2.1818,-2.1684,-2.1874,-2.194,-2.1868,-2.1868,-2.1855,-2.1796,-2.2136,-2.2234,-2.2153,-2.2422,-2.2565,-2.263,-2.2908,-2.3116,-2.3277,-2.3441,-2.3539,-2.3699,-2.4563,-2.4956,-2.5295,-2.7013,-2.758,-2.7706,-2.8689,-2.8913,-2.8842,-2.9318,-2.9485,-2.958,-2.9796,-2.9847,-2.9855,-2.9888,-2.9897,-2.9897,-2.9897,-2.9977,-3.0104,-3.0241,-3.0271,-3.0306,-3.0374,-3.038,-3.0419,-3.0496,-3.0548,-3.0613,-3.0725,-3.0762,-3.0767,-3.0767,-3.0794,-3.0801,-3.0801,-3.0801,-3.0801,-3.0801,-3.0801,-3.0801,-3.0801,-3.0801,-3.0801,-3.0801,-3.0791,-3.0799,-3.0791,-3.0801,-3.0795,-3.0807,-3.0744,-3.072,-3.0701,-3.0697,-3.0704,-1.5223,-1.7646,-2.0551,-2.3096,-2.3837,-2.4198,-2.5195,-2.4835,-2.4317,-2.4364,-2.4659,-2.4599,-2.3576,-2.2821,-2.2121,-2.1404,-2.0725,-2.0412,-2.0761,-2.0794,-2.0794,-2.0794,-2.0794,-2.0925,-2.1278,-2.1293,-2.1433,-2.1766,-2.1541,-2.1495,-2.1781,-2.1526,-2.1201,-2.0853,-2.1479,-2.1512,-2.0865,-2.151,-2.1811,-2.1811,-2.1811,-2.1796,-2.1812,-2.1855,-2.1869,-2.1855,-2.1913,-2.2053,-2.2275,-2.2317,-2.2643,-2.3126,-2.3168,-2.3313,-2.3695,-2.5122,-2.567,-2.5909,-2.7549,-2.8103,-2.8121,-2.8277,-2.8474,-2.864,-2.8784,-2.9031,-2.9314,-2.957,-2.9644,-2.9681,-2.9855,-2.9897,-2.9897,-2.9897,-2.9905,-2.9961,-3.0097,-3.0162,-3.0222,-3.03,-3.0364,-3.0419,-3.0496,-3.051,-3.0524,-3.0537,-3.0583,-3.063,-3.063,-3.0734,-3.0801,-3.0801,-3.0801,-3.0801,-3.0801,-3.0801,-3.0801,-3.0801,-3.0801,-3.0801,-3.0801,-3.0801,-3.0793,-3.0792,-3.0795,-3.0794,-3.08,-3.078,-3.0767,-3.0701,-3.0697,-3.0706,-1.6266,-1.8505,-2.0734,-2.2671,-2.3263,-2.3631,-2.4529,-2.4167,-2.3626,-2.3575,-2.3616,-2.3417,-2.2545,-2.1872,-2.1171,-2.0473,-2.0106,-1.998,-2.017,-2.0187,-2.0187,-2.0187,-2.0187,-2.0325,-2.0647,-2.0681,-2.0686,-2.068,-2.0894,-2.0926,-2.0695,-2.0541,-2.0442,-2.0432,-2.0361,-2.0461,-2.0702,-2.1017,-2.1398,-2.1812,-2.1812,-2.1812,-2.1812,-2.1812,-2.1812,-2.1812,-2.1812,-2.1869,-2.1998,-2.2136,-2.2361,-2.263,-2.2977,-2.318,-2.3478,-2.5168,-2.58,-2.602,-2.7643,-2.8196,-2.8196,-2.825,-2.8335,-2.8469,-2.864,-2.8795,-2.8986,-2.9295,-2.9385,-2.9426,-2.9672,-2.9725,-2.9751,-2.9872,-2.9897,-2.9913,-2.9988,-3.0015,-3.0049,-3.0121,-3.0196,-3.0273,-3.0373,-3.0389,-3.0416,-3.0487,-3.0537,-3.0543,-3.0543,-3.0595,-3.0633,-3.0633,-3.0633,-3.0651,-3.0675,-3.0697,-3.0712,-3.0799,-3.0801,-3.0801,-3.0801,-3.0801,-3.0806,-3.08,-3.0798,-3.0796,-3.0792,-3.08,-3.0779,-3.0766,-3.077,-3.0751,-1.667,-1.8343,-1.9818,-2.164,-2.241,-2.2935,-2.3743,-2.3427,-2.2942,-2.2772,-2.2405,-2.1963,-2.1451,-2.0998,-2.0464,-1.9791,-1.969,-1.9708,-1.9708,-1.9708,-1.9708,-1.9708,-1.9708,-1.9836,-2.0156,-2.0191,-2.0161,-2.0052,-2.0256,-2.0208,-1.9814,-1.9562,-1.9496,-1.9646,-1.936,-1.9498,-2.0125,-2.0519,-2.1066,-2.1812,-2.1812,-2.1812,-2.1812,-2.1812,-2.1812,-2.1812,-2.1812,-2.1812,-2.1827,-2.2027,-2.2136,-2.2234,-2.2699,-2.31,-2.3601,-2.5126,-2.5875,-2.6318,-2.7714,-2.8196,-2.8196,-2.8264,-2.8273,-2.8327,-2.854,-2.8597,-2.867,-2.8975,-2.9082,-2.9158,-2.9426,-2.9523,-2.958,-2.9787,-2.983,-2.9839,-2.9888,-2.9897,-2.9932,-2.9999,-3.0038,-3.0113,-3.0221,-3.0248,-3.0279,-3.037,-3.0437,-3.0457,-3.0457,-3.0482,-3.0574,-3.0786,-3.0825,-3.093,-3.1192,-3.122,-3.1165,-3.106,-3.1059,-3.0973,-3.0762,-3.0774,-3.0806,-3.0795,-3.0808,-3.0799,-3.0809,-3.0793,-3.08,-3.0801,-3.0796,-3.0807,-1.4675,-1.5683,-1.6983,-1.9735,-2.1059,-2.1938,-2.2928,-2.2878,-2.2527,-2.2129,-2.122,-2.0513,-2.0484,-2.0589,-2.046,-1.9715,-1.9669,-1.9708,-1.9708,-1.9708,-1.9708,-1.9708,-1.9708,-1.9836,-2.0156,-2.0191,-2.0362,-2.073,-1.984,-1.9433,-1.9783,-1.8905,-1.8324,-1.8219,-1.884,-1.901,-1.8608,-1.9992,-2.1066,-2.1812,-2.1812,-2.1812,-2.1812,-2.1812,-2.1812,-2.1812,-2.1812,-2.1812,-2.1812,-2.1827,-2.1969,-2.2206,-2.2234,-2.3064,-2.4339,-2.5125,-2.6056,-2.7063,-2.791,-2.8196,-2.8196,-2.8196,-2.8196,-2.8223,-2.83,-2.8309,-2.8388,-2.8658,-2.876,-2.8883,-2.9148,-2.9272,-2.9365,-2.957,-2.9617,-2.9672,-2.9855,-2.9897,-2.9932,-2.9999,-3.0007,-3.003,-3.0102,-3.0113,-3.0116,-3.013,-3.0235,-3.0314,-3.0314,-3.0418,-3.0786,-3.1564,-3.168,-3.2033,-3.2807,-3.2884,-3.2541,-3.1797,-3.1801,-3.1464,-3.0639,-3.0734,-3.0801,-3.0801,-3.0795,-3.0808,-3.0799,-3.0791,-3.0807,-3.08,-3.0801,-3.0798,-1.453,-1.5107,-1.5794,-1.776,-1.9163,-2.0282,-2.1101,-2.1568,-2.1771,-2.1575,-2.0941,-2.0234,-1.9675,-1.9715,-1.9786,-1.9513,-1.9487,-1.9505,-1.9505,-1.9505,-1.9541,-1.9629,-1.9647,-1.9705,-1.9856,-1.9889,-1.9578,-1.8861,-1.8852,-1.8577,-1.7838,-1.7471,-1.7349,-1.7526,-1.7361,-1.7579,-1.8248,-1.9877,-2.0834,-2.11,-2.158,-2.1812,-2.1812,-2.1812,-2.1812,-2.1812,-2.1812,-2.1812,-2.1812,-2.1812,-2.1855,-2.2005,-2.2647,-2.3218,-2.3852,-2.5492,-2.6352,-2.6816,-2.7842,-2.8196,-2.8196,-2.8196,-2.8196,-2.8196,-2.8237,-2.8237,-2.8259,-2.8409,-2.85,-2.8614,-2.8879,-2.9016,-2.9195,-2.9523,-2.958,-2.9589,-2.9847,-2.9897,-2.9916,-2.994,-2.994,-2.9956,-3.0022,-3.0046,-3.0042,-3.0091,-3.0152,-3.0162,-3.0162,-3.0746,-3.1232,-3.1476,-3.2026,-3.2526,-3.2896,-3.294,-3.2841,-3.2584,-3.2319,-3.2021,-3.1693,-3.1122,-3.0806,-3.0799,-3.0806,-3.0795,-3.0808,-3.0799,-3.0792,-3.0806,-3.0808,-3.0794,-1.3931,-1.4368,-1.4902,-1.6306,-1.7397,-1.8399,-1.942,-1.9986,-2.0316,-2.0375,-2.015,-1.9781,-1.9207,-1.9195,-1.9321,-1.9358,-1.9395,-1.9395,-1.9395,-1.9395,-1.9431,-1.952,-1.9538,-1.9541,-1.9581,-1.9424,-1.8932,-1.8067,-1.8009,-1.7621,-1.6741,-1.6502,-1.6547,-1.684,-1.6519,-1.6858,-1.7966,-1.9339,-2.0213,-2.0574,-2.1286,-2.1676,-2.1812,-2.1812,-2.1812,-2.1812,-2.1812,-2.1812,-2.1812,-2.1812,-2.1812,-2.1893,-2.2819,-2.339,-2.3909,-2.5574,-2.6422,-2.6854,-2.7731,-2.8039,-2.8053,-2.8154,-2.8196,-2.8196,-2.8196,-2.8196,-2.8209,-2.8246,-2.8313,-2.8401,-2.8608,-2.8833,-2.9071,-2.9334,-2.9425,-2.9494,-2.9742,-2.9855,-2.9897,-2.9897,-2.9897,-2.9905,-2.9956,-2.9999,-3.0022,-3.0053,-3.0083,-3.0208,-3.0509,-3.1085,-3.166,-3.2187,-3.2768,-3.3272,-3.364,-3.3681,-3.353,-3.3198,-3.2912,-3.2413,-3.1632,-3.108,-3.0805,-3.0792,-3.0791,-3.0806,-3.0795,-3.0808,-3.0796,-3.0803,-3.0806,-3.0792,0.0,0.0,0.0,-1.5387,-1.5831,-1.6365,-1.7918,-1.8146,-1.814,-1.8489,-1.8811,-1.9029,-1.9072,-1.9058,-1.9095,-1.9254,-1.9343,-1.9395,-1.9395,-1.9395,-1.9395,-1.9395,-1.9395,-1.9395,-1.9395,-1.8856,-1.8525,-1.8562,-1.7345,-1.662,-1.6666,-1.6114,-1.5926,-1.6176,-1.6448,-1.6923,-1.7656,-1.8342,-1.9217,-2.028,-2.0967,-2.1447,-2.1812,-2.1812,-2.1812,-2.1812,-2.1812,-2.1812,-2.1812,-2.1812,-2.1812,-2.1879,-2.2626,-2.3573,-2.4589,-2.5353,-2.6292,-2.7228,-2.7582,-2.7701,-2.776,-2.8067,-2.8182,-2.8196,-2.8196,-2.8196,-2.8196,-2.8196,-2.825,-2.8313,-2.838,-2.8682,-2.8991,-2.8991,-2.9152,-2.9345,-2.9551,-2.9742,-2.988,-2.9888,-2.9897,-2.9897,-2.9897,-2.9956,-3.0007,-3.0026,-3.0065,-3.0415,-3.1318,-3.1432,-3.2061,-3.3713,-3.3982,-3.4353,-3.5132,-3.5204,-3.4724,-3.3627,-3.3679,-3.2724,-3.0439,-3.0636,-3.0785,-3.081,-3.0792,-3.0799,-3.0801,-3.0793,-3.08,-3.0802,-3.0794,-3.0804,-1.2587,0.0,0.0,0.0,0.0,0.0,-1.5383,-1.5994,-1.6789,-1.776,-1.743,-1.7296,-1.8256,-1.8056,-1.7896,-1.8411,-1.8881,-1.9176,-1.9176,-1.9176,-1.9213,-1.9321,-1.9339,-1.9358,-1.9395,-1.8856,-1.8298,-1.7842,-1.7062,-1.6411,-1.5936,-1.583,-1.5842,-1.5912,-1.6162,-1.6419,-1.6604,-1.7711,-1.8679,-1.9518,-2.0439,-2.118,-2.1812,-2.1812,-2.1812,-2.1812,-2.1812,-2.1812,-2.1812,-2.1812,-2.1812,-2.1928,-2.3189,-2.3883,-2.4328,-2.5831,-2.6572,-2.6891,-2.7228,-2.7507,-2.7716,-2.7821,-2.8011,-2.8196,-2.8196,-2.8196,-2.8196,-2.8196,-2.825,-2.8313,-2.838,-2.8523,-2.8682,-2.8808,-2.8966,-2.9141,-2.9345,-2.9435,-2.9561,-2.9847,-2.9897,-2.9897,-2.9897,-2.9924,-3.014,-3.0774,-3.0398,-3.0543,-3.2004,-3.2246,-3.2697,-3.3789,-3.444,-3.4905,-3.5185,-3.5187,-3.5081,-3.4743,-3.4768,-3.4479,-3.384,-3.1594,-3.0506,-3.0785,-3.0801,-3.08,-3.0801,-3.0804,-3.0791,-3.0802,-3.0794,-3.0804,0.0,0.0,0.0,-1.3193,0.0,0.0,-1.4676,-1.5253,-1.6034,-1.7395,-1.73,-1.7193,-1.7827,-1.7634,-1.7468,-1.774,-1.8085,-1.8491,-1.9029,-1.9101,-1.912,-1.9195,-1.9213,-1.9228,-1.9265,-1.8481,-1.781,-1.7445,-1.6597,-1.595,-1.561,-1.5668,-1.5741,-1.5799,-1.5955,-1.6038,-1.6038,-1.7462,-1.847,-1.904,-2.0337,-2.1249,-2.1812,-2.1812,-2.1812,-2.1812,-2.1812,-2.1812,-2.1812,-2.1812,-2.1812,-2.1961,-2.3421,-2.4,-2.4199,-2.5882,-2.6486,-2.6555,-2.6874,-2.7116,-2.7321,-2.7609,-2.7818,-2.8025,-2.8154,-2.8196,-2.8196,-2.8196,-2.825,-2.8313,-2.834,-2.8432,-2.8531,-2.8645,-2.8761,-2.8899,-2.913,-2.9166,-2.9293,-2.9698,-2.9707,-2.9698,-2.9872,-2.983,-3.0097,-3.1063,-3.0793,-3.1122,-3.2817,-3.3071,-3.342,-3.4264,-3.4797,-3.511,-3.5117,-3.5136,-3.5172,-3.5196,-3.5201,-3.5208,-3.5199,-3.3327,-3.1746,-3.0564,-3.0632,-3.068,-3.0728,-3.0772,-3.0804,-3.0793,-3.0806,-3.0796,0.0,0.0,0.0,-1.407,-1.3483,0.0,-1.4822,-1.5174,-1.5524,-1.6886,-1.7328,-1.7425,-1.7278,-1.7229,-1.7131,-1.6897,-1.6994,-1.7502,-1.8724,-1.8883,-1.8927,-1.8985,-1.8999,-1.8999,-1.8999,-1.7911,-1.7188,-1.718,-1.6075,-1.5463,-1.558,-1.5595,-1.5653,-1.577,-1.5784,-1.5829,-1.5889,-1.741,-1.8422,-1.8938,-2.0458,-2.1398,-2.1812,-2.1812,-2.1812,-2.1812,-2.1812,-2.1812,-2.1812,-2.1812,-2.1812,-2.1961,-2.3421,-2.4,-2.4183,-2.5673,-2.6202,-2.6239,-2.6538,-2.6657,-2.6808,-2.7398,-2.7609,-2.7701,-2.7996,-2.8099,-2.8099,-2.814,-2.8205,-2.8286,-2.8286,-2.8393,-2.8479,-2.8497,-2.8549,-2.8662,-2.8899,-2.8957,-2.9064,-2.9465,-2.9415,-2.9415,-2.976,-2.9756,-3.0049,-3.1133,-3.1311,-3.1943,-3.3701,-3.3834,-3.4071,-3.4793,-3.5,-3.5009,-3.4859,-3.499,-3.5129,-3.5172,-3.52,-3.5196,-3.52,-3.4836,-3.3231,-3.0266,-3.0393,-3.0522,-3.0582,-3.0725,-3.0794,-3.0801,-3.0793,-3.08,-1.4096,-1.4065,-1.3957,-1.3517,-1.4053,0.0,-1.2931,-1.3423,-1.4212,-1.4352,-1.3916,-1.3818,-1.4832,-1.4892,-1.4775,-1.4789,-1.5653,-1.6607,-1.7458,-1.7577,-1.778,-1.8317,-1.839,-1.839,-1.839,-1.7647,-1.6982,-1.6461,-1.5767,-1.5433,-1.5522,-1.558,-1.561,-1.5639,-1.5741,-1.6039,-1.6517,-1.7121,-1.8143,-1.9608,-2.017,-2.0908,-2.1812,-2.1812,-2.1812,-2.1812,-2.1812,-2.1812,-2.1812,-2.1812,-2.1812,-2.1961,-2.3421,-2.4,-2.4183,-2.5673,-2.6202,-2.6203,-2.6274,-2.6469,-2.6725,-2.6841,-2.7085,-2.7307,-2.7369,-2.74,-2.7446,-2.7716,-2.8011,-2.8223,-2.8223,-2.8273,-2.8353,-2.8406,-2.8471,-2.8562,-2.8662,-2.8675,-2.8767,-2.9052,-2.9228,-2.9324,-2.9405,-2.9915,-3.0694,-3.1759,-3.192,-3.2589,-3.4444,-3.413,-3.3798,-3.4014,-3.4575,-3.4622,-3.3859,-3.4554,-3.5057,-3.512,-3.5164,-3.5206,-3.5198,-3.2604,-3.0877,-3.0208,-3.0393,-3.051,-3.0528,-3.0598,-3.07,-3.0801,-3.0804,-3.0791,-1.487,-1.4701,-1.4701,-1.4701,-1.4452,0.0,0.0,-1.357,-1.3682,-1.4326,-1.3807,-1.3496,-1.4358,-1.4424,-1.4312,-1.417,-1.4929,-1.5591,-1.564,-1.6541,-1.733,-1.7647,-1.7708,-1.7708,-1.7708,-1.7081,-1.6445,-1.5806,-1.5503,-1.5374,-1.5463,-1.5477,-1.5669,-1.6038,-1.6159,-1.6502,-1.7142,-1.7852,-1.8734,-1.9814,-2.0444,-2.1121,-2.1812,-2.1812,-2.1812,-2.1812,-2.1812,-2.1812,-2.1812,-2.1812,-2.1812,-2.1961,-2.3421,-2.4,-2.4183,-2.5673,-2.6202,-2.6202,-2.6202,-2.6311,-2.6486,-2.6657,-2.6808,-2.6989,-2.7149,-2.7197,-2.7276,-2.7612,-2.7818,-2.7996,-2.8154,-2.825,-2.8313,-2.838,-2.8445,-2.8505,-2.8587,-2.86,-2.8637,-2.8767,-2.8868,-2.9023,-2.9262,-2.955,-3.0098,-3.1155,-3.1306,-3.1846,-3.3307,-3.3147,-3.294,-3.3096,-3.3827,-3.4055,-3.3441,-3.4349,-3.4965,-3.4993,-3.5029,-3.431,-3.2632,-3.0939,-3.0087,-3.0157,-3.0285,-3.0361,-3.0397,-3.0434,-3.0532,-3.0703,-3.0769,-3.0804,-1.6071,-1.5777,-1.5808,-1.5964,-1.4978,-1.4107,0.0,0.0,0.0,-1.4433,-1.4084,-1.3688,-1.3899,-1.4025,-1.3959,-1.3583,-1.4255,-1.4555,-1.3827,-1.5379,-1.6599,-1.663,-1.6849,-1.6951,-1.6835,-1.6211,-1.569,-1.5327,-1.5182,-1.5197,-1.5374,-1.552,-1.5873,-1.6462,-1.669,-1.7109,-1.7794,-1.8668,-1.9351,-1.9893,-2.0783,-2.1387,-2.1691,-2.1691,-2.1691,-2.1691,-2.1691,-2.1691,-2.1708,-2.1766,-2.1812,-2.1928,-2.3272,-2.3868,-2.4166,-2.5508,-2.607,-2.6202,-2.6202,-2.6202,-2.6239,-2.6521,-2.6607,-2.6641,-2.694,-2.7053,-2.7165,-2.7428,-2.755,-2.7686,-2.8025,-2.815,-2.8214,-2.834,-2.8419,-2.8479,-2.8562,-2.8574,-2.8587,-2.8587,-2.86,-2.8718,-2.9101,-2.9159,-2.9455,-3.0305,-3.0579,-3.1057,-3.2137,-3.2149,-3.2172,-3.2458,-3.3148,-3.3476,-3.3224,-3.4151,-3.4778,-3.4765,-3.4235,-3.273,-3.0015,-2.9905,-2.9977,-3.0101,-3.0157,-3.0214,-3.0291,-3.029,-3.0399,-3.0575,-3.07,-3.0767,-1.79,-1.7869,-1.7454,-1.5747,-1.6039,-1.6008,-1.3197,0.0,-1.3704,-1.2377,0.0,-1.1817,-1.1617,0.0,0.0,-1.1529,-1.2936,-1.37,-1.2509,-1.3542,-1.4471,-1.4529,-1.5585,-1.6079,-1.5482,-1.4877,-1.4732,-1.5254,-1.4747,-1.4689,-1.5269,-1.5943,-1.631,-1.6414,-1.7103,-1.7807,-1.849,-1.8672,-1.9229,-2.0169,-2.0631,-2.1039,-2.1356,-2.1356,-2.1356,-2.1356,-2.1356,-2.1356,-2.1371,-2.1678,-2.1812,-2.1879,-2.2692,-2.3421,-2.41,-2.4928,-2.564,-2.6202,-2.6202,-2.6202,-2.622,-2.6239,-2.6257,-2.6274,-2.631,-2.6521,-2.6758,-2.6808,-2.7037,-2.7338,-2.7672,-2.776,-2.7861,-2.8214,-2.8313,-2.8367,-2.8479,-2.8505,-2.8536,-2.8587,-2.86,-2.8612,-2.8675,-2.9237,-2.983,-3.0177,-3.0826,-3.1696,-3.2757,-3.2281,-3.2095,-3.2769,-3.2989,-3.3015,-3.2871,-3.3736,-3.4281,-3.4276,-3.188,-3.0289,-2.9926,-2.9967,-3.0026,-3.0101,-3.0109,-3.0138,-3.0213,-3.0273,-3.0375,-3.0519,-3.0591,-3.0626,-1.8315,-1.8176,-1.7854,-1.6655,-1.6139,-1.5457,-1.3701,-1.3012,-1.2663,-1.235,0.0,0.0,0.0,0.0,0.0,0.0,-1.2469,-1.2983,-1.2062,-1.2852,-1.3487,-1.3403,-1.4027,-1.4501,-1.4616,-1.4357,-1.4501,-1.524,-1.4645,-1.4558,-1.5254,-1.5925,-1.6464,-1.6843,-1.7604,-1.8334,-1.9,-1.9159,-1.9527,-2.0152,-2.0579,-2.0974,-2.1325,-2.1495,-2.148,-2.1309,-2.151,-2.148,-2.1341,-2.1646,-2.1812,-2.1864,-2.2609,-2.3354,-2.41,-2.4829,-2.5556,-2.6202,-2.6202,-2.6202,-2.6202,-2.6202,-2.6202,-2.6202,-2.6202,-2.631,-2.6452,-2.6657,-2.6808,-2.6989,-2.7321,-2.7415,-2.7522,-2.7918,-2.8003,-2.8091,-2.838,-2.8466,-2.8505,-2.8549,-2.8574,-2.86,-2.86,-2.8871,-2.914,-2.9247,-2.9563,-2.999,-3.0595,-3.0371,-3.0528,-3.1403,-3.1949,-3.2289,-3.2434,-3.3408,-3.3543,-3.2422,-3.0594,-2.958,-2.9654,-2.9734,-2.9864,-3.0098,-3.0094,-3.0123,-3.0211,-3.0227,-3.0267,-3.0328,-3.0472,-3.0539,-1.8915,-1.8696,-1.8374,-1.7194,-1.6083,-1.4966,-1.3794,-1.3029,-1.2558,-1.2514,-1.2355,0.0,0.0,0.0,-1.1777,-1.1614,0.0,-1.2444,-1.167,-1.2242,-1.2604,-1.2276,-1.256,-1.306,-1.3742,-1.367,-1.3969,-1.4905,-1.4342,-1.4328,-1.5224,-1.6037,-1.6706,-1.7168,-1.8086,-1.8815,-1.9302,-1.9465,-1.9669,-1.9907,-2.0376,-2.0745,-2.0974,-2.1245,-2.1229,-2.1023,-2.1371,-2.1386,-2.1198,-2.1616,-2.1812,-2.1864,-2.2609,-2.3354,-2.41,-2.4829,-2.5556,-2.6202,-2.6202,-2.6202,-2.6202,-2.6202,-2.6202,-2.6202,-2.6202,-2.6202,-2.6257,-2.6487,-2.6555,-2.664,-2.6972,-2.7053,-2.7165,-2.7535,-2.7716,-2.7861,-2.8174,-2.8349,-2.8484,-2.851,-2.8562,-2.8672,-2.8889,-2.8744,-2.86,-2.86,-2.86,-2.8838,-2.9466,-2.9161,-2.9514,-3.112,-3.1414,-3.1802,-3.2461,-3.3025,-3.2507,-3.0593,-2.9876,-2.9493,-2.9447,-2.9532,-2.9713,-2.9991,-3.0049,-3.0109,-3.0171,-3.0185,-3.0211,-3.0192,-3.0367,-3.0452,-2.0225,-2.0141,-1.9412,-1.6783,-1.6053,-1.5281,-1.2655,-1.3473,-1.4275,-1.2413,-1.3641,-1.4483,-1.2544,-1.2299,-1.2209,0.0,0.0,0.0,0.0,-1.1462,-1.1577,-1.0839,-1.1349,-1.2042,-1.2774,-1.2498,-1.2784,-1.4041,-1.3651,-1.388,-1.5135,-1.644,-1.7185,-1.72,-1.8527,-1.9273,-1.9302,-1.9376,-1.9413,-1.9431,-1.9904,-2.0118,-2.0135,-2.0224,-2.0243,-2.026,-2.0663,-2.0827,-2.0876,-2.1525,-2.1812,-2.1864,-2.2609,-2.3354,-2.41,-2.4829,-2.5556,-2.6202,-2.6202,-2.6202,-2.6202,-2.6202,-2.6202,-2.6202,-2.6202,-2.6202,-2.6202,-2.6203,-2.622,-2.6276,-2.664,-2.6708,-2.6808,-2.7133,-2.7476,-2.773,-2.7803,-2.8132,-2.8419,-2.8497,-2.8562,-2.8853,-2.9639,-2.9119,-2.86,-2.86,-2.86,-2.9174,-3.0726,-2.9585,-2.9807,-3.2955,-3.1936,-3.1664,-3.3227,-3.2437,-3.1093,-2.9278,-2.974,-2.9849,-2.9341,-2.9504,-2.9635,-2.9717,-2.9975,-3.0098,-3.0109,-3.0171,-3.0211,-3.0192,-3.0273,-3.0308,-2.0967,-2.1091,-2.0801,-1.8519,-1.7196,-1.5902,-1.3757,-1.4078,-1.4393,-1.2839,-1.4169,-1.5002,-1.3024,-1.2693,0.0,0.0,0.0,0.0,0.0,-1.0987,-1.0749,-1.0586,-1.1041,-1.1548,-1.203,-1.1905,-1.2439,-1.397,-1.3513,-1.3755,-1.5135,-1.6436,-1.7149,-1.72,-1.847,-1.9157,-1.9157,-1.9284,-1.9339,-1.9339,-1.9752,-1.9967,-1.9984,-2.0277,-2.0244,-2.0039,-2.0715,-2.0878,-2.0729,-2.1494,-2.1943,-2.2231,-2.3242,-2.3918,-2.4404,-2.4909,-2.5556,-2.6202,-2.6202,-2.6202,-2.6202,-2.6202,-2.6202,-2.6202,-2.6202,-2.6202,-2.6202,-2.6202,-2.6202,-2.6238,-2.6346,-2.6381,-2.6452,-2.6791,-2.7133,-2.7446,-2.7686,-2.8063,-2.8353,-2.8419,-2.8739,-2.9086,-2.941,-2.9679,-2.9928,-3.0148,-3.0188,-3.0387,-3.0926,-3.0514,-3.0803,-3.2433,-3.2125,-3.2234,-3.3302,-3.2093,-3.0998,-3.0407,-2.9579,-2.9113,-2.9104,-2.9174,-2.9355,-2.9681,-2.9787,-2.9913,-3.0101,-3.0116,-3.0164,-3.0211,-3.0214,-3.0241,-2.1602,-2.1721,-2.1554,-1.9693,-1.8487,-1.7221,-1.5048,-1.5603,-1.6069,-1.4364,-1.5603,-1.6527,-1.4902,-1.4139,-1.3491,0.0,0.0,0.0,0.0,-1.0712,-1.0437,-1.0424,-1.0741,-1.1042,-1.1323,-1.1195,-1.183,-1.3572,-1.3118,-1.3429,-1.5015,-1.6356,-1.7115,-1.7149,-1.8415,-1.9101,-1.9101,-1.9176,-1.9228,-1.9228,-1.9551,-1.9699,-1.9699,-1.9982,-1.9965,-1.977,-2.055,-2.0682,-2.043,-2.1261,-2.1777,-2.2176,-2.3357,-2.4093,-2.4585,-2.5252,-2.5788,-2.6202,-2.6202,-2.6202,-2.6202,-2.6202,-2.6202,-2.6202,-2.6202,-2.6202,-2.6202,-2.6202,-2.6202,-2.6202,-2.6202,-2.6202,-2.6257,-2.6469,-2.6792,-2.7085,-2.7289,-2.7669,-2.7957,-2.8031,-2.8552,-2.9112,-2.947,-3.0211,-3.0744,-3.0797,-3.0916,-3.1107,-3.1397,-3.1179,-3.1433,-3.2506,-3.2361,-3.2415,-3.2922,-3.1763,-3.0889,-3.06,-2.9324,-2.8675,-2.8851,-2.8945,-2.9141,-2.9445,-2.9608,-2.9796,-2.9961,-3.0045,-3.0116,-3.0164,-3.0185,-3.0211]},{"header":{"parameterUnit":"m.s-1","parameterCategory":1,"la1":30.6,"la2":29.2853,"lo1":-89.7004,"lo2":-87.6739,"dy":0.0162,"dx":0.0183,"nx":112,"ny":82,"refTime":"2025-03-21T18:00:00:Z","depth":0,"parameterNumber":3,"parameterNumberName":"V-component_of_WINDS"},"data":[0.0,0.0,0.0,0.0,0.0,0.0,0.0,0.0,0.0,0.0,0.0,0.0,0.0,0.0,0.0,0.0,0.0,0.0,0.0,0.0,0.0,0.0,0.0,0.0,0.0,0.0,0.0,0.0,0.0,0.0,0.0,0.0,0.0,0.0,0.0,0.0,0.0,0.0,0.0,0.0,0.0,0.0,0.0,0.0,0.0,0.0,0.0,0.0,0.0,0.0,0.0,0.0,0.0,0.0,0.0,0.0,0.0,0.0,0.0,0.0,0.0,0.0,0.0,0.0,0.0,0.0,0.0,0.0,0.0,0.0,0.0,0.0,0.0,0.0,0.0,0.0,0.0,0.0,0.0,0.0,0.0,0.0,0.0,0.0,0.0,0.0,0.0,0.0,0.0,0.0,-0.5109,-0.5206,-0.5908,-0.6245,-0.5917,-0.5864,-0.5474,-0.4601,0.0,0.0,0.0,0.0,0.0,0.0,0.0,0.0,0.0,0.0,0.0,0.0,0.0,0.0,0.0,0.0,0.0,0.0,0.0,0.0,0.0,0.0,0.0,0.0,0.0,0.0,0.0,0.0,0.0,0.0,0.0,0.0,0.0,0.0,0.0,0.0,0.0,0.0,0.0,0.0,0.0,0.0,0.0,0.0,0.0,0.0,0.0,0.0,0.0,0.0,0.0,0.0,0.0,0.0,0.0,0.0,0.0,0.0,0.0,0.0,0.0,0.0,0.0,0.0,0.0,0.0,0.0,0.0,0.0,0.0,0.0,0.0,0.0,0.0,0.0,0.0,0.0,0.0,0.0,0.0,0.0,0.0,0.0,0.0,0.0,0.0,0.0,0.0,0.0,0.0,0.0,0.0,0.0,0.0,0.0,0.0,0.0,0.0,0.0,0.0,0.0,0.0,0.0,0.0,-0.4782,-0.569,-0.6049,-0.6139,-0.5904,-0.5742,-0.5391,-0.48,0.0,0.0,0.0,0.0,0.0,0.0,0.0,0.0,0.0,0.0,0.0,0.0,0.0,0.0,0.0,0.0,0.0,0.0,0.0,0.0,0.0,0.0,0.0,0.0,0.0,0.0,0.0,0.0,0.0,0.0,0.0,0.0,0.0,0.0,0.0,0.0,0.0,0.0,0.0,0.0,0.0,0.0,0.0,0.0,0.0,0.0,0.0,0.0,0.0,0.0,0.0,0.0,0.0,0.0,0.0,0.0,0.0,0.0,0.0,0.0,0.0,0.0,0.0,0.0,0.0,0.0,0.0,0.0,0.0,0.0,0.0,0.0,0.0,0.0,0.0,0.0,0.0,0.0,0.0,0.0,0.0,0.0,0.0,0.0,0.0,0.0,0.0,0.0,0.0,0.0,0.0,0.0,0.0,0.0,0.0,0.0,0.0,0.0,0.0,0.0,0.0,0.0,0.0,-0.4762,-0.5037,-0.5803,-0.6073,-0.6106,-0.5904,-0.5718,-0.5439,-0.5054,-0.4772,0.0,0.0,0.0,0.0,0.0,0.0,0.0,0.0,0.0,0.0,0.0,0.0,0.0,0.0,0.0,0.0,0.0,0.0,0.0,0.0,0.0,0.0,0.0,0.0,0.0,0.0,0.0,0.0,0.0,0.0,0.0,0.0,0.0,0.0,0.0,0.0,0.0,0.0,0.0,0.0,0.0,0.0,0.0,0.0,0.0,0.0,0.0,0.0,0.0,0.0,0.0,0.0,0.0,0.0,0.0,0.0,0.0,0.0,0.0,0.0,0.0,0.0,0.0,0.0,0.0,0.0,0.0,0.0,0.0,0.0,0.0,0.0,0.0,0.0,0.0,0.0,0.0,0.0,0.0,0.0,0.0,0.0,0.0,0.0,0.0,0.0,0.0,0.0,0.0,0.0,0.0,0.0,0.0,0.0,0.0,0.0,0.0,0.0,0.0,0.0,0.0,0.0,-0.514,-0.5381,-0.5839,-0.6,-0.6012,-0.5896,-0.5633,-0.5387,-0.5185,-0.507,0.0,0.0,0.0,0.0,0.0,0.0,0.0,0.0,0.0,0.0,0.0,0.0,0.0,0.0,0.0,0.0,0.0,0.0,0.0,0.0,0.0,0.0,0.0,0.0,0.0,0.0,0.0,0.0,0.0,0.0,0.0,0.0,0.0,0.0,0.0,0.0,0.0,0.0,0.0,0.0,0.0,0.0,0.0,0.0,0.0,0.0,0.0,0.0,0.0,0.0,0.0,0.0,0.0,0.0,0.0,0.0,0.0,0.0,0.0,0.0,0.0,0.0,0.0,0.0,0.0,0.0,0.0,0.0,0.0,0.0,0.0,0.0,0.0,0.0,0.0,0.0,0.0,0.0,0.0,0.0,0.0,0.0,0.0,0.0,0.0,0.0,0.0,0.0,0.0,0.0,0.0,0.0,0.0,0.0,0.0,0.0,0.0,0.0,0.0,0.0,0.0,0.0,-0.5155,-0.5653,-0.5864,-0.5746,-0.5713,-0.5876,-0.5425,-0.514,-0.5106,-0.522,0.0,0.0,0.0,0.0,0.0,0.0,0.0,0.0,0.0,0.0,0.0,0.0,0.0,0.0,0.0,0.0,0.0,0.0,0.0,0.0,0.0,0.0,0.0,0.0,0.0,0.0,0.0,0.0,0.0,0.0,0.0,0.0,0.0,0.0,0.0,0.0,0.0,0.0,0.0,0.0,0.0,0.0,0.0,0.0,0.0,0.0,0.0,0.0,0.0,0.0,0.0,0.0,0.0,0.0,0.0,0.0,0.0,0.0,0.0,0.0,0.0,0.0,0.0,0.0,0.0,0.0,0.0,0.0,0.0,0.0,0.0,0.0,0.0,0.0,0.0,0.0,0.0,0.0,0.0,0.0,0.0,0.0,0.0,0.0,0.0,0.0,0.0,0.0,0.0,0.0,0.0,0.0,0.0,0.0,0.0,0.0,0.0,0.0,0.0,0.0,0.0,0.0,-0.4915,-0.5393,-0.5685,-0.5653,-0.564,-0.5709,-0.5452,-0.5284,-0.5288,0.0,0.0,0.0,0.0,0.0,0.0,0.0,0.0,0.0,0.0,0.0,0.0,0.0,0.0,0.0,0.0,0.0,0.0,0.0,0.0,0.0,0.0,0.0,0.0,0.0,0.0,0.0,0.0,0.0,0.0,0.0,0.0,0.0,0.0,0.0,0.0,0.0,0.0,0.0,0.0,0.0,0.0,0.0,0.0,0.0,0.0,0.0,0.0,0.0,0.0,0.0,0.0,0.0,0.0,0.0,0.0,0.0,0.0,0.0,0.0,0.0,0.0,0.0,0.0,0.0,0.0,0.0,0.0,0.0,0.0,0.0,0.0,0.0,0.0,0.0,0.0,0.0,0.0,0.0,0.0,0.0,0.0,0.0,0.0,0.0,0.0,0.0,0.0,0.0,0.0,0.0,0.0,0.0,0.0,0.0,0.0,0.0,0.0,0.0,0.0,0.0,0.0,-0.4331,-0.4824,-0.5283,-0.5579,-0.5535,-0.5523,-0.5608,-0.5363,-0.5254,-0.5365,0.0,0.0,0.0,0.0,0.0,0.0,0.0,0.0,0.0,0.0,0.0,0.0,0.0,0.0,0.0,0.0,0.0,0.0,0.0,0.0,0.0,0.0,0.0,0.0,0.0,0.0,0.0,0.0,0.0,0.0,0.0,0.0,0.0,0.0,0.0,0.0,0.0,0.0,0.0,0.0,0.0,0.0,0.0,0.0,0.0,0.0,0.0,0.0,0.0,0.0,0.0,0.0,0.0,0.0,0.0,0.0,0.0,0.0,0.0,0.0,0.0,0.0,0.0,0.0,0.0,0.0,0.0,0.0,0.0,0.0,0.0,0.0,0.0,0.0,0.0,0.0,0.0,0.0,0.0,0.0,0.0,0.0,0.0,0.0,0.0,0.0,0.0,0.0,0.0,0.0,0.0,0.0,0.0,0.0,0.0,0.0,0.0,0.0,0.0,0.0,0.0,0.0,-0.4478,-0.496,-0.5389,-0.5559,-0.5426,-0.5393,-0.5596,-0.5107,-0.4943,0.0,0.0,0.0,0.0,0.0,0.0,0.0,0.0,0.0,0.0,0.0,0.0,0.0,0.0,0.0,0.0,0.0,0.0,0.0,0.0,0.0,0.0,0.0,0.0,0.0,0.0,0.0,0.0,0.0,0.0,0.0,0.0,0.0,0.0,0.0,0.0,0.0,0.0,0.0,0.0,0.0,0.0,0.0,0.0,0.0,0.0,0.0,0.0,0.0,0.0,0.0,0.0,0.0,0.0,0.0,0.0,0.0,0.0,0.0,0.0,0.0,0.0,0.0,0.0,0.0,0.0,0.0,0.0,0.0,0.0,0.0,0.0,0.0,0.0,0.0,0.0,0.0,0.0,0.0,0.0,0.0,0.0,0.0,0.0,0.0,0.0,0.0,0.0,0.0,0.0,0.0,0.0,0.0,0.0,0.0,0.0,0.0,0.0,0.0,0.0,0.0,0.0,0.0,-0.4331,-0.482,-0.523,-0.5381,-0.5329,-0.5321,-0.5397,-0.5515,-0.5489,-0.5311,0.0,0.0,0.0,0.0,0.0,0.0,0.0,0.0,0.0,0.0,0.0,0.0,0.0,0.0,0.0,0.0,0.0,0.0,0.0,0.0,0.0,0.0,0.0,0.0,0.0,0.0,0.0,0.0,0.0,0.0,0.0,0.0,0.0,0.0,0.0,0.0,0.0,0.0,0.0,0.0,0.0,0.0,0.0,0.0,0.0,0.0,0.0,0.0,0.0,0.0,0.0,0.0,0.0,0.0,0.0,0.0,0.0,0.0,0.0,0.0,0.0,0.0,0.0,0.0,0.0,0.0,0.0,0.0,0.0,0.0,0.0,0.0,0.0,0.0,0.0,0.0,0.0,0.0,0.0,0.0,0.0,0.0,0.0,0.0,0.0,0.0,0.0,0.0,0.0,0.0,0.0,0.0,0.0,0.0,0.0,0.0,0.0,0.0,0.0,0.0,0.0,0.0,-0.4271,-0.4771,-0.5149,-0.5281,-0.5297,-0.5407,-0.565,-0.5708,-0.5717,-0.5663,0.0,0.0,0.0,0.0,0.0,0.0,0.0,0.0,0.0,0.0,0.0,0.0,0.0,0.0,0.0,0.0,0.0,0.0,0.0,0.0,0.0,0.0,0.0,0.0,0.0,0.0,0.0,0.0,0.0,0.0,0.0,0.0,0.0,0.0,0.0,0.0,0.0,0.0,0.0,0.0,0.0,0.0,0.0,0.0,0.0,0.0,0.0,0.0,0.0,0.0,0.0,0.0,0.0,0.0,0.0,0.0,0.0,0.0,0.0,0.0,0.0,0.0,0.0,0.0,0.0,0.0,0.0,0.0,0.0,0.0,0.0,0.0,0.0,0.0,0.0,0.0,0.0,0.0,0.0,0.0,0.0,0.0,0.0,0.0,0.0,0.0,0.0,0.0,0.0,0.0,0.0,0.0,0.0,0.0,0.0,0.0,0.0,0.0,0.0,0.0,0.0,0.0,-0.4224,-0.4747,-0.5125,-0.5257,-0.5344,-0.5586,-0.6126,-0.5837,-0.5796,-0.6136,0.0,0.0,0.0,0.0,0.0,0.0,0.0,0.0,0.0,0.0,0.0,0.0,0.0,0.0,0.0,0.0,0.0,0.0,0.0,0.0,0.0,0.0,0.0,0.0,0.0,0.0,0.0,0.0,0.0,0.0,0.0,0.0,0.0,0.0,0.0,0.0,0.0,0.0,0.0,0.0,0.0,0.0,0.0,0.0,0.0,0.0,0.0,0.0,0.0,0.0,0.0,0.0,0.0,0.0,0.0,0.0,0.0,0.0,0.0,0.0,-0.0839,-0.0919,0.0,0.0,0.0,0.0,0.0,0.0,0.0,0.0,0.0,0.0,0.0,0.0,0.0,0.0,0.0,0.0,0.0,0.0,0.0,0.0,0.0,0.0,0.0,0.0,0.0,0.0,0.0,0.0,0.0,0.0,0.0,0.0,0.0,0.0,0.0,0.0,0.0,0.0,0.0,0.0,-0.4008,-0.4532,-0.4934,-0.5117,-0.5663,-0.5986,-0.5903,-0.6431,-0.6476,-0.5838,-0.5596,0.0,0.0,0.0,0.0,0.0,0.0,0.0,0.0,0.0,0.0,0.0,0.0,0.0,0.0,0.0,0.0,0.0,0.0,0.0,0.0,0.0,0.0,0.0,0.0,0.0,0.0,0.0,0.0,0.0,0.0,0.0,0.0,0.0,0.0,0.0,0.0,0.0,0.0,0.0,0.0,0.0,0.0,0.0,0.0,0.0,0.0,0.0,0.0,0.0,0.0,0.0,0.0,0.0,0.0,0.0,0.0,0.0,0.0,0.0,-0.0635,-0.0819,0.0,0.0,0.0,0.0,0.0,0.0,0.0,0.0,0.0,0.0,0.0,0.0,0.0,0.0,0.0,0.0,0.0,0.0,0.0,0.0,0.0,0.0,0.0,0.0,0.0,0.0,0.0,0.0,0.0,0.0,0.0,0.0,0.0,0.0,0.0,0.0,0.0,0.0,0.0,0.0,-0.3939,-0.4383,-0.4723,-0.493,-0.5311,-0.5586,-0.5739,-0.6022,-0.6011,-0.5589,-0.5432,0.0,0.0,0.0,0.0,0.0,0.0,0.0,0.0,0.0,0.0,0.0,0.0,0.0,0.0,0.0,0.0,0.0,0.0,0.0,0.0,0.0,0.0,0.0,0.0,0.0,0.0,0.0,0.0,0.0,0.0,0.0,0.0,0.0,0.0,0.0,0.0,0.0,0.0,0.0,0.0,0.0,0.0,0.0,0.0,0.0,0.0,0.0,0.0,0.0,0.0,0.0,0.0,0.0,-0.0728,-0.0653,-0.0502,-0.0568,-0.0341,0.0093,-0.0249,-0.0498,-0.0665,-0.0612,0.0,0.0,0.0,0.0,0.0,0.0,0.0,0.0,0.0,0.0,0.0,0.0,0.0,0.0,0.0,0.0,0.0,0.0,0.0,0.0,0.0,0.0,-0.4048,-0.3874,-0.413,-0.4271,-0.3896,0.0,0.0,0.0,0.0,0.0,0.0,0.0,0.0,0.0,0.0,0.0,-0.3907,-0.4264,-0.4554,-0.4719,-0.4886,-0.5135,-0.5562,-0.5448,-0.5366,-0.5361,-0.5141,-0.4725,0.0,0.0,0.0,0.0,0.0,0.0,0.0,0.0,0.0,0.0,0.0,0.0,0.0,0.0,0.0,0.0,0.0,0.0,0.0,0.0,0.0,0.0,0.0,0.0,0.0,0.0,0.0,0.0,0.0,0.0,0.0,0.0,0.1931,0.1573,0.0,0.0,0.0,0.0,0.0,0.0,0.0,0.0,0.0,0.0,0.0,0.0,0.0,-0.0679,-0.0691,-0.076,-0.0772,-0.0798,-0.0856,-0.0586,-0.0077,-0.016,0.0109,0.0599,0.0495,0.0,-0.0185,-0.0127,0.0,0.0,0.0,0.0,0.0,0.0,0.0,0.0,0.0,0.0,0.0,0.0,0.0,0.0,0.0,0.0,0.0,0.0,0.0,0.0,0.0,0.0,-0.4425,-0.4401,-0.4565,-0.4629,-0.4295,-0.3848,-0.3423,-0.3196,-0.301,-0.2856,0.0,0.0,0.0,0.0,0.0,0.0,-0.3714,-0.4184,-0.4509,-0.4534,-0.5173,-0.5495,-0.5293,-0.5703,-0.5759,-0.5269,-0.5074,-0.4957,-0.4858,-0.4535,0.0,0.0,0.0,0.0,0.0,0.0,0.0,0.0,0.0,0.0,0.0,0.0,0.0,0.0,0.0,0.0,0.0,0.0,0.0,0.0,0.0,0.0,0.0,0.0,0.0,0.0,0.0,0.0,0.0,0.2225,0.2124,0.1906,0.2071,0.1945,0.0,0.0,0.0,0.0,0.0,0.0,0.0,0.0,0.0,-0.0748,-0.0761,-0.0768,-0.0818,-0.0843,-0.0885,-0.0917,-0.0929,-0.0647,-0.0116,-0.0147,0.0267,0.1035,0.102,0.0846,0.0615,0.0428,0.0243,0.0063,0.0,0.0,0.0,0.0,-0.0681,-0.0801,-0.0946,-0.106,-0.1169,-0.1364,0.0,0.0,0.0,0.0,0.0,0.0,0.0,-0.3634,-0.3891,-0.4314,-0.4666,-0.4666,-0.4828,-0.4861,-0.4503,-0.4226,-0.3947,-0.3563,-0.3507,-0.3406,-0.3042,-0.3078,0.0,0.0,0.0,-0.3676,-0.385,-0.4165,-0.4394,-0.4394,-0.471,-0.4865,-0.4709,-0.4947,-0.488,-0.4389,-0.4519,-0.4591,-0.4543,-0.4565,-0.4616,0.0,0.0,0.0,0.0,0.0,0.0,0.0,0.0,0.0,0.0,0.0,0.0,0.0,0.0,0.0,0.0,0.0,0.0,0.0,0.0,0.0,0.0,0.0,0.0,0.0,0.0,0.0,0.0,0.2247,0.2228,0.2154,0.2364,0.2245,0.0,0.0,0.0,0.0,0.0,0.0,-0.0641,-0.0634,-0.0647,-0.0709,-0.069,-0.0719,-0.0775,-0.0775,-0.0815,-0.0927,-0.0809,-0.0468,0.0,0.0126,0.0663,0.1543,0.1501,0.1477,0.1405,0.0949,0.0689,0.0528,0.0134,-0.0022,-0.0087,-0.0544,-0.079,-0.0893,-0.0995,-0.109,-0.118,-0.1194,-0.1383,-0.164,-0.1774,0.0,0.0,0.0,0.0,-0.3512,-0.3927,-0.4358,-0.4735,-0.4883,-0.5052,-0.5064,-0.4727,-0.4622,-0.4409,-0.3874,-0.3903,-0.3854,-0.3406,-0.346,0.0,-0.3349,-0.3591,-0.3822,-0.3979,-0.4166,-0.4294,-0.4294,-0.4294,-0.4294,-0.4294,-0.4294,-0.4142,-0.379,-0.4,-0.415,-0.4151,-0.4459,-0.4672,-0.4741,0.0,0.0,0.0,0.0,0.0,0.0,0.0,0.0,0.0,0.0,0.0,0.0,0.0,0.0,0.0,0.0,0.0,0.0,0.0,0.0,0.0,0.0,0.0,0.0,0.0,0.0,0.0,0.0,0.0,0.2288,0.2143,0.0,0.0,0.0,0.0,0.0598,0.0263,-0.01,-0.05,-0.0442,-0.0408,-0.0409,-0.0422,-0.0429,-0.0431,-0.0431,-0.0524,-0.071,-0.0254,0.0161,0.0579,0.1025,0.1573,0.2142,0.2083,0.2056,0.2008,0.148,0.0964,0.0476,0.0072,-0.0095,-0.0142,-0.0617,-0.0801,-0.08,-0.0804,-0.0829,-0.0832,-0.0888,-0.1158,-0.1561,-0.2384,-0.2521,0.0,0.0,-0.3207,-0.3387,-0.4163,-0.4402,-0.4553,-0.5147,-0.5277,-0.526,-0.5096,-0.4914,-0.4633,-0.4084,-0.3991,-0.3931,-0.371,0.0,-0.3685,-0.3677,-0.3858,-0.3983,-0.3995,-0.4166,-0.4294,-0.4294,-0.4294,-0.4294,-0.4294,-0.4294,-0.4216,-0.3995,-0.3818,-0.3823,-0.3995,-0.4145,-0.4265,-0.4322,-0.4673,0.0,0.0,0.0,0.0,0.0,0.0,0.0,0.0,0.0,0.0,0.0,0.0,0.0,0.0,0.0,0.0,0.0,0.0,0.0,0.0,0.0,0.0,0.0,0.0,0.0,0.0,0.0,0.0,0.2354,0.2428,0.0,0.2349,0.1594,0.1077,0.1064,0.0272,-0.0279,-0.0419,-0.0413,-0.0429,-0.0469,-0.0474,-0.0449,-0.0458,-0.0458,-0.0491,-0.0556,-0.0397,-0.0133,0.0232,0.0736,0.121,0.1647,0.1997,0.2132,0.2091,0.19,0.1679,0.1432,0.0976,0.0796,0.0739,0.0227,-0.0152,-0.0418,-0.0418,-0.0601,-0.0913,-0.1239,-0.1441,-0.1656,-0.2296,-0.2468,-0.2466,-0.2723,-0.2991,-0.328,-0.366,-0.4168,-0.4644,-0.4869,-0.5105,-0.5276,-0.5121,-0.5057,-0.4861,-0.4416,-0.4242,-0.4126,-0.3927,-0.3899,-0.3899,-0.3899,-0.3955,-0.4057,-0.417,-0.4257,-0.4294,-0.4294,-0.4294,-0.4294,-0.4294,-0.4174,-0.4012,-0.381,-0.3656,-0.3636,-0.3803,-0.3855,-0.3951,-0.4102,-0.4251,-0.4,0.0,0.0,0.0,0.0,0.0,0.0,0.0,0.0,0.0,0.0,0.0,0.0,0.0,0.0,0.0,0.0,0.0,0.0,0.0,0.0,0.0,0.0,0.0,0.0,0.0,0.256,0.2463,0.2567,0.2604,0.2689,0.2799,0.2158,0.162,0.1329,0.0656,0.0061,-0.0304,-0.0282,-0.0289,-0.0327,-0.0328,-0.0331,-0.0337,-0.0337,-0.0371,-0.0438,-0.0236,-0.0067,0.0134,0.0672,0.1076,0.1412,0.1817,0.2064,0.2127,0.2127,0.2102,0.2019,0.1469,0.1256,0.1191,0.0668,0.0186,-0.0217,-0.0379,-0.065,-0.0972,-0.1372,-0.1481,-0.1571,-0.2161,-0.2306,-0.2352,-0.2574,-0.2815,-0.3101,-0.334,-0.383,-0.4328,-0.4632,-0.4912,-0.5085,-0.5094,-0.5106,-0.4974,-0.457,-0.4424,-0.4313,-0.4134,-0.4101,-0.4101,-0.4101,-0.4101,-0.4146,-0.4282,-0.4294,-0.4294,-0.4294,-0.4294,-0.4294,-0.4294,-0.4114,-0.3919,-0.3714,-0.3578,-0.3503,-0.3532,-0.3751,-0.3852,-0.3803,-0.3979,-0.3948,-0.3706,0.0,0.0,0.0,0.0,0.0,0.0,0.0,0.0,0.0,0.0,0.0,0.0,0.0,0.0,0.0,0.0,0.0,0.0,0.0,0.0,0.0,0.0,0.0,0.3152,0.2965,0.2925,0.2922,0.2698,0.2658,0.2987,0.3002,0.253,0.145,0.1428,0.1,-0.0097,-0.0066,0.0,0.0,0.0,0.0,0.0,0.0,-0.0101,-0.027,0.0235,0.0403,0.0302,0.084,0.1244,0.1547,0.158,0.1817,0.2188,0.2188,0.2186,0.2134,0.1468,0.124,0.1176,0.0625,0.0168,-0.0252,-0.0729,-0.0898,-0.0954,-0.1206,-0.1262,-0.1316,-0.1995,-0.216,-0.2198,-0.2581,-0.2691,-0.2802,-0.3246,-0.3385,-0.3608,-0.4467,-0.4688,-0.4785,-0.5023,-0.5088,-0.4983,-0.4578,-0.4509,-0.4472,-0.4326,-0.4294,-0.4294,-0.4294,-0.4294,0.0,-0.4294,-0.4294,-0.4294,-0.4294,-0.4294,-0.4294,-0.4294,-0.4109,-0.3911,-0.371,-0.3573,-0.3399,-0.3216,-0.3821,-0.393,-0.3428,-0.3923,-0.4361,-0.4684,0.0,0.0,0.0,0.0,0.0,0.0,0.0,0.0,0.0,0.0,0.0,0.0,0.0,0.0,0.0,0.0,0.0,0.0,0.0,0.0,0.0,0.5053,0.4971,0.4264,0.3733,0.3448,0.3613,0.3253,0.3142,0.3535,0.3101,0.2754,0.2685,0.175,0.1063,0.0765,0.0268,0.0,0.0,0.0,0.0,0.0,0.0,-0.0034,-0.0067,0.0067,0.0034,-0.0101,0.0437,0.0672,0.0672,0.0908,0.1311,0.1749,0.1614,0.1762,0.2111,0.1861,0.1766,0.1755,0.1519,0.0926,0.014,-0.0645,-0.0898,-0.0954,-0.1206,-0.1282,-0.1385,-0.2011,-0.2197,-0.2241,-0.2599,-0.2691,-0.2719,-0.2858,-0.3137,-0.3469,-0.3691,-0.4245,-0.4732,-0.4798,-0.5035,-0.5143,-0.4779,-0.4711,-0.4637,-0.4347,-0.4294,-0.4294,-0.4294,-0.4294,-0.4294,-0.4294,-0.4294,-0.4294,-0.4294,-0.4294,-0.4294,-0.4294,-0.3992,-0.3754,-0.3706,-0.3434,-0.3261,-0.3196,-0.3372,-0.3585,-0.3839,-0.3936,-0.4126,0.0,0.0,0.0,0.0,0.0,0.0,0.0,0.0,0.0,0.0,0.0,0.0,0.0,0.0,0.0,0.0,0.0,0.0,0.0,0.0,0.0,0.0,0.572,0.5892,0.5595,0.4919,0.4393,0.4199,0.3949,0.3861,0.3995,0.3627,0.3322,0.3215,0.2447,0.1712,0.1143,0.0706,0.0303,0.0,0.0,0.0,0.0,0.0,0.0,0.0,0.0,-0.0067,-0.0169,0.0471,0.0605,0.0403,0.0908,0.1176,0.1277,0.1379,0.1554,0.1767,0.0,0.0,0.0,0.0,0.115,0.0561,-0.0308,-0.0617,-0.0673,-0.101,-0.1122,-0.1206,-0.1681,-0.1931,-0.2099,-0.2408,-0.2605,-0.2691,-0.2691,-0.2914,-0.3163,-0.3357,-0.3774,-0.4213,-0.4407,-0.4702,-0.4868,-0.4642,-0.4646,0.0,-0.4343,-0.4294,-0.4294,-0.4294,-0.4294,-0.4294,-0.4294,-0.4294,-0.4294,-0.4294,-0.4294,-0.4294,-0.4294,-0.4016,0.0,0.0,0.0,-0.3357,-0.3401,-0.3472,0.0,0.0,0.0,0.0,0.0,0.0,0.0,0.0,-0.4412,-0.4421,0.0,0.0,0.0,0.0,0.0,0.0,0.0,0.0,0.0,0.0,0.0,0.0,0.0,0.0,0.0,0.0,0.6197,0.6594,0.6917,0.6303,0.5556,0.4845,0.4628,0.4495,0.4334,0.43,0.4028,0.3384,0.3251,0.2648,0.1411,0.1243,0.0,0.0,0.0,0.0135,0.0135,0.0034,0.0,0.0,0.0,0.0034,0.0135,0.0706,0.0874,0.0706,0.1176,0.1208,0.0937,0.1376,0.1518,0.147,0.183,0.1955,0.1836,0.1304,0.1094,0.0982,0.0112,0.0,0.0,-0.0757,-0.0898,-0.0954,-0.1206,-0.1541,-0.1846,-0.2127,-0.2437,-0.2691,-0.2691,-0.2691,-0.2802,-0.3221,-0.3357,-0.352,-0.3939,-0.4228,-0.4368,-0.429,-0.4405,-0.4464,-0.4326,-0.4294,-0.4294,-0.4294,-0.4294,-0.4294,-0.4294,-0.4294,-0.4294,-0.4294,-0.4294,0.0,-0.4294,-0.4114,-0.3927,-0.3742,-0.361,-0.3576,-0.3695,-0.3836,-0.4254,-0.5015,-0.5154,-0.546,-0.5906,-0.5906,-0.5752,-0.5443,-0.5085,-0.5098,0.0,0.0,0.0,0.0,0.0,0.0,0.0,0.0,0.0,0.0,0.0,0.0,0.0,0.0,0.0,0.6572,0.6852,0.7141,0.7339,0.7237,0.6763,0.5752,0.4894,0.4334,0.43,0.43,0.4233,0.4097,0.352,0.3082,0.2815,0.2213,0.1846,0.1712,0.1176,0.0875,0.0875,0.0303,0.0,0.0,0.0,0.0,0.0875,0.0404,0.0774,0.1712,0.0572,0.0598,0.1432,0.1366,0.1729,0.2233,0.2012,0.1864,0.1755,0.1266,0.1094,0.0982,0.0112,-0.0196,-0.028,-0.0757,-0.0898,-0.0954,-0.1206,-0.1541,0.0,-0.2127,-0.2437,-0.2691,-0.2691,-0.2691,-0.2719,-0.2802,-0.3135,-0.3428,-0.352,-0.3981,-0.4356,-0.4182,-0.4329,-0.4464,-0.4326,-0.4294,-0.4294,-0.4294,-0.4294,-0.4294,-0.4294,-0.4294,-0.4294,-0.4294,-0.4294,-0.4294,-0.4294,-0.4114,-0.3979,-0.3943,-0.3773,-0.3675,-0.369,-0.3874,-0.4346,-0.5147,-0.5353,-0.5794,-0.652,-0.652,-0.6491,-0.6411,-0.5861,-0.5816,0.0,0.0,0.0,0.0,0.0,0.0,0.0,0.0,0.0,0.0,0.0,0.7922,0.812,0.0,0.7352,0.7497,0.7423,0.7375,0.7474,0.726,0.6802,0.5987,0.5428,0.4897,0.4367,0.43,0.43,0.43,0.3961,0.3587,0.3215,0.2848,0.248,0.2114,0.1779,0.1612,0.1612,0.1243,0.1042,0.1042,0.1042,0.1243,0.1612,0.1612,0.1779,0.2079,0.1644,0.1519,0.1639,0.1648,0.195,0.2372,0.2151,0.1962,0.1769,0.1543,0.1459,0.1319,0.0421,0.0112,0.0,-0.0673,-0.0898,-0.0926,-0.1066,-0.1318,-0.1624,-0.1903,-0.2212,-0.2493,-0.2663,-0.2691,-0.2691,-0.2691,-0.2884,-0.3079,-0.3183,-0.345,-0.3679,-0.3663,-0.3892,-0.4085,-0.4002,-0.4162,-0.4294,-0.4294,-0.4294,-0.4294,-0.4294,-0.4294,-0.4294,-0.4294,-0.4294,-0.4294,-0.4294,-0.4114,-0.3995,-0.3995,-0.3802,-0.3702,-0.3702,-0.3989,-0.448,-0.5179,-0.5497,-0.5998,-0.6702,-0.6702,-0.6702,-0.6695,-0.6392,-0.6491,0.0,0.0,0.0,0.0,0.0,0.0,0.0,0.8121,0.8582,0.8977,0.8928,0.8944,0.9361,0.8668,0.8075,0.8245,0.7829,0.7489,0.7489,0.7129,0.6642,0.6119,0.5855,0.5392,0.4531,0.4367,0.43,0.43,0.43,0.4028,0.3453,0.3418,0.3151,0.2549,0.2382,0.2313,0.2313,0.2179,0.2114,0.2114,0.2114,0.2179,0.2313,0.2781,0.2815,0.2547,0.2983,0.2709,0.1949,0.2007,0.223,0.2514,0.2274,0.2082,0.1897,0.1829,0.1797,0.1685,0.0842,0.0477,0.028,-0.0505,-0.0814,-0.0898,-0.0898,-0.1094,-0.1346,-0.1624,-0.1931,-0.2268,-0.2521,-0.2663,-0.2691,-0.2691,-0.2691,-0.2732,-0.2916,-0.2971,-0.3033,-0.315,-0.3449,-0.3697,-0.3697,-0.403,-0.4294,-0.4294,-0.4294,-0.4294,-0.4294,-0.4294,-0.4294,-0.4294,-0.4294,-0.4294,-0.4294,-0.4146,-0.4065,-0.4065,-0.3907,-0.3826,-0.3826,-0.4121,-0.4612,-0.5248,-0.5646,-0.6161,-0.6798,-0.6854,-0.6891,-0.6891,-0.6891,-0.7152,0.8987,0.7795,0.7074,0.7571,0.7665,0.8034,0.0,0.9614,0.9629,1.025,1.0148,0.994,1.0007,0.9159,0.8452,0.8479,0.7924,0.7489,0.7489,0.7456,0.7195,0.6675,0.5782,0.5156,0.5024,0.4597,0.43,0.43,0.43,0.4267,0.4164,0.4164,0.4131,0.4064,0.342,0.3082,0.3082,0.2414,0.2114,0.2114,0.2114,0.2447,0.3049,0.248,0.2885,0.402,0.3308,0.2961,0.2814,0.237,0.2652,0.3292,0.2497,0.2253,0.2276,0.1929,0.1797,0.1713,0.1206,0.0757,0.0336,-0.014,-0.0561,-0.0898,-0.0898,-0.1094,-0.1319,-0.1346,-0.1765,-0.2212,-0.224,-0.2465,-0.2691,-0.2691,-0.2691,-0.2713,-0.272,-0.2871,-0.3006,-0.3007,-0.3396,-0.3697,-0.3697,-0.403,-0.4294,-0.4294,-0.4294,-0.4294,-0.4294,-0.4294,-0.4294,-0.4294,-0.4294,-0.4294,-0.4294,-0.4278,-0.4269,-0.4269,-0.4245,-0.4237,-0.4237,-0.428,-0.4664,-0.5455,-0.581,-0.6358,-0.7155,-0.7445,-0.7581,-0.7581,-0.7581,-0.7869,0.9972,0.9066,0.8503,0.8767,0.8987,0.9277,0.995,1.0287,1.0543,1.0843,1.0918,1.0832,1.0399,0.9636,0.8935,0.8554,0.7939,0.7489,0.7489,0.7489,0.7423,0.7199,0.6507,0.5782,0.5153,0.4891,0.4631,0.4334,0.43,0.43,0.43,0.43,0.43,0.43,0.3995,0.3825,0.3825,0.3525,0.3389,0.3389,0.3389,0.3558,0.3825,0.3525,0.3727,0.4289,0.3828,0.3627,0.3619,0.3304,0.3308,0.3472,0.3113,0.2718,0.2344,0.1961,0.1797,0.1741,0.1262,0.0785,0.0336,-0.0056,-0.0505,-0.0898,-0.0898,-0.0982,-0.1094,-0.1262,-0.1486,-0.1765,-0.21,-0.2296,-0.2465,-0.2663,-0.2691,-0.2676,-0.2651,-0.2639,-0.265,-0.2589,-0.2881,-0.313,-0.3161,-0.3603,-0.3976,-0.4051,-0.4207,-0.4294,-0.4294,-0.4294,-0.4294,-0.4294,-0.4294,-0.4294,-0.4294,-0.4294,-0.4294,-0.4294,-0.4294,-0.4294,-0.4294,-0.4294,-0.4688,-0.5491,-0.5637,-0.62,-0.7195,-0.7335,-0.751,-0.7691,-0.7691,-0.8082,1.0601,1.0102,0.9746,0.9746,1.006,1.0368,1.0368,1.0806,1.1239,1.1239,1.1269,1.1115,1.0611,0.9805,0.9069,0.8587,0.7939,0.7489,0.7489,0.7489,0.7489,0.7489,0.7167,0.6572,0.5617,0.5286,0.4924,0.4564,0.44,0.43,0.43,0.43,0.43,0.43,0.43,0.43,0.43,0.43,0.43,0.43,0.43,0.43,0.43,0.43,0.43,0.4295,0.417,0.4086,0.4075,0.3954,0.3801,0.3644,0.3491,0.3137,0.2639,0.2109,0.1852,0.1741,0.1403,0.0982,0.0533,0.0112,-0.0336,-0.0729,-0.087,-0.0898,-0.0954,-0.1122,-0.1234,-0.1402,-0.1849,-0.2015,-0.2183,-0.2493,-0.2549,-0.2561,-0.2605,-0.2545,-0.2436,-0.2395,-0.2572,-0.2736,-0.2795,-0.3215,-0.3605,-0.3691,-0.395,-0.4184,-0.4294,-0.4294,-0.4294,-0.4294,-0.4294,-0.4294,-0.4294,-0.4294,-0.4294,-0.4294,-0.4294,-0.4294,-0.4294,-0.4294,-0.46,-0.5231,-0.5404,-0.5986,-0.695,-0.7125,-0.7377,-0.7691,-0.7691,-0.816,1.0738,1.0332,1.0082,1.0082,1.0565,1.1078,1.1078,1.1335,1.1577,1.1577,1.1014,1.0516,1.0485,0.9422,0.8522,0.849,0.7939,0.7489,0.7489,0.7489,0.7489,0.7489,0.7489,0.726,0.6708,0.5716,0.5087,0.509,0.4597,0.43,0.43,0.43,0.43,0.43,0.43,0.43,0.43,0.43,0.43,0.43,0.43,0.43,0.43,0.43,0.43,0.4295,0.417,0.4086,0.4075,0.3954,0.3973,0.4025,0.3495,0.3356,0.336,0.2495,0.2018,0.1797,0.1797,0.1459,0.101,0.0533,0.0112,-0.0308,-0.0757,-0.0898,-0.0898,-0.0898,-0.1094,-0.1291,-0.1319,-0.1569,-0.1874,-0.2155,-0.2212,-0.2296,-0.2631,-0.2642,-0.2603,-0.2601,-0.2702,-0.2805,-0.2808,-0.3032,-0.3217,-0.322,-0.3505,-0.3851,-0.425,-0.4294,-0.4294,-0.4294,-0.4294,-0.4294,-0.4294,-0.4294,-0.4294,-0.4294,-0.4294,-0.4294,-0.4294,-0.4294,-0.4403,-0.4618,-0.521,-0.5766,-0.6331,-0.6907,-0.7377,-0.7691,-0.7691,-0.8172,1.0447,1.0342,1.0506,1.0726,1.0938,1.1158,1.1379,1.1518,1.1591,1.1591,1.1404,1.1083,1.0579,1.0129,0.955,0.8651,0.8296,0.8004,0.7554,0.7489,0.7489,0.7489,0.7489,0.7423,0.726,0.6572,0.5881,0.5153,0.4924,0.4661,0.4334,0.43,0.43,0.43,0.43,0.43,0.43,0.43,0.43,0.43,0.43,0.43,0.43,0.43,0.43,0.4298,0.4257,0.4238,0.4235,0.4194,0.4153,0.4078,0.3903,0.3651,0.3337,0.3031,0.2567,0.2046,0.1852,0.1487,0.101,0.0561,0.014,-0.028,-0.0757,-0.0898,-0.0898,-0.0898,-0.0954,-0.1066,-0.1262,-0.1374,-0.1597,-0.2073,-0.2212,-0.2296,-0.2635,-0.2647,-0.2607,-0.2607,-0.2558,-0.2566,-0.2658,-0.2881,-0.3117,-0.3248,-0.3517,-0.3854,-0.425,-0.4294,-0.4294,-0.4294,-0.4294,-0.4294,-0.4294,-0.4294,-0.4294,-0.4294,-0.4294,-0.4294,-0.4294,-0.4294,-0.4473,-0.4849,-0.5067,-0.5518,-0.6243,-0.6668,-0.7034,-0.7377,-0.7587,-0.8015,1.0821,1.0766,1.0865,1.1195,1.1276,1.1335,1.1547,1.1591,1.1591,1.1591,1.1317,1.0922,1.0425,1.0053,0.9581,0.8794,0.8488,0.8201,0.7897,0.7652,0.7489,0.7489,0.7489,0.7489,0.7489,0.7195,0.6605,0.5749,0.5488,0.5156,0.4628,0.4597,0.4498,0.43,0.43,0.43,0.43,0.43,0.43,0.43,0.43,0.43,0.43,0.43,0.43,0.43,0.43,0.43,0.43,0.43,0.4254,0.4178,0.4134,0.3872,0.349,0.3362,0.2965,0.2462,0.2074,0.1684,0.1262,0.0813,0.0364,-0.0056,-0.0505,-0.0757,-0.0898,-0.0898,-0.0898,-0.0954,-0.1122,-0.115,-0.129,-0.1765,-0.1877,-0.1961,-0.2298,-0.2422,-0.2466,-0.2466,-0.2475,-0.251,-0.2597,-0.2708,-0.2869,-0.3163,-0.3342,-0.3595,-0.4024,-0.4074,-0.414,-0.4294,-0.4294,-0.4294,-0.4294,-0.4294,-0.4294,-0.4294,-0.4294,-0.4294,-0.4294,-0.4294,-0.4451,-0.474,-0.4828,-0.5215,-0.5943,-0.6365,-0.6774,-0.7216,-0.7545,-0.8008,1.1755,1.1495,1.1202,1.1518,1.1591,1.1591,1.1591,1.1591,1.1591,1.1569,1.0831,1.0137,0.0,0.9349,0.8794,0.8938,0.8474,0.8169,0.8425,0.7907,0.7489,0.7489,0.7489,0.7489,0.7489,0.7489,0.7293,0.6773,0.6247,0.5723,0.5153,0.5153,0.4891,0.4367,0.4334,0.4334,0.43,0.43,0.43,0.43,0.43,0.43,0.43,0.43,0.43,0.43,0.43,0.43,0.43,0.43,0.4298,0.4278,0.4162,0.4008,0.3851,0.3475,0.3223,0.3019,0.2434,0.2046,0.1741,0.1262,0.0785,0.0364,-0.0084,-0.0505,-0.087,-0.0898,-0.0898,-0.0898,-0.0898,-0.0898,-0.0954,-0.1234,-0.1291,-0.1402,-0.1734,-0.1987,-0.2183,-0.2184,-0.2427,-0.2615,-0.2615,-0.2485,-0.2549,-0.2923,-0.2968,-0.3131,-0.3615,-0.3696,-0.3854,-0.4244,-0.4296,-0.43,-0.4322,-0.4322,-0.4322,-0.4322,-0.4314,-0.431,-0.431,-0.4298,-0.4302,-0.4332,-0.4526,-0.4919,-0.5527,-0.6057,-0.6621,-0.7215,-0.7553,-0.8095,1.1307,1.1405,1.1489,1.1569,1.1591,1.1591,1.1591,1.1591,1.1525,1.1276,1.1015,1.0687,1.0179,1.0299,1.0089,0.8907,0.894,0.8803,0.7869,0.7619,0.7489,0.7489,0.7489,0.7489,0.7489,0.7489,0.7456,0.7293,0.6806,0.6247,0.5723,0.569,0.5455,0.4924,0.4891,0.4694,0.43,0.43,0.43,0.43,0.43,0.43,0.43,0.43,0.43,0.43,0.43,0.43,0.43,0.43,0.4246,0.4162,0.4097,0.3988,0.3827,0.3706,0.3421,0.3074,0.2935,0.2519,0.1989,0.1318,0.101,0.0785,0.0028,-0.028,-0.0449,-0.0813,-0.0898,-0.0898,-0.0898,-0.0898,-0.0954,-0.1234,-0.1291,-0.1402,-0.1734,-0.1846,-0.1959,-0.2155,-0.2449,-0.2684,-0.2684,-0.2607,-0.2572,-0.2676,-0.2613,-0.2771,-0.3339,-0.3479,-0.3696,-0.4029,-0.4117,-0.4306,-0.4646,-0.467,-0.467,-0.467,-0.4525,-0.4456,-0.4456,-0.4345,-0.4448,-0.4746,-0.4796,-0.5144,-0.58,-0.6244,-0.6777,-0.7441,-0.7758,-0.822,1.1315,1.1514,1.1685,1.1622,1.1654,1.1648,1.15,1.1409,1.1283,1.1041,1.0799,1.0492,0.998,1.0302,1.0358,0.9407,0.9264,0.907,0.8474,0.7879,0.7489,0.7489,0.7489,0.7489,0.7489,0.7489,0.7489,0.7489,0.7228,0.6806,0.6284,0.6251,0.602,0.5455,0.5219,0.4858,0.43,0.43,0.43,0.43,0.43,0.43,0.43,0.43,0.43,0.43,0.43,0.427,0.4224,0.4278,0.423,0.4086,0.4086,0.4001,0.3825,0.3802,0.3595,0.3299,0.316,0.288,0.249,0.1792,0.1457,0.1204,0.0561,0.0112,-0.0252,-0.0533,-0.0729,-0.0898,-0.0898,-0.0898,-0.0926,-0.1094,-0.1122,-0.1178,-0.1372,-0.1484,-0.1709,-0.2128,-0.2352,-0.2521,-0.2663,-0.2675,-0.2642,-0.2642,-0.257,-0.2635,-0.2963,-0.316,-0.3417,-0.3735,-0.3817,-0.4012,-0.4454,-0.4504,-0.4578,-0.4779,-0.469,-0.4638,-0.4638,-0.456,-0.4622,-0.4845,-0.4849,-0.5097,-0.5584,-0.5961,-0.6393,-0.6852,-0.7522,-0.8048,1.1573,1.1716,1.1771,1.1685,1.1716,1.1689,1.1383,1.119,1.0997,1.0727,1.0337,0.9904,0.9548,0.979,1.0026,0.9988,0.9502,0.921,0.9354,0.8361,0.7587,0.7521,0.7489,0.7489,0.7489,0.7489,0.7489,0.7489,0.7489,0.7293,0.6839,0.6806,0.6576,0.602,0.5422,0.4891,0.4398,0.4334,0.43,0.43,0.43,0.43,0.43,0.43,0.43,0.43,0.4284,0.4216,0.4092,0.4216,0.4189,0.4062,0.4062,0.3986,0.3868,0.3821,0.3709,0.3555,0.3272,0.316,0.3077,0.2464,0.1987,0.1623,0.1261,0.0617,-0.0056,-0.0168,-0.0505,-0.0814,-0.0898,-0.0898,-0.0898,-0.0898,-0.0898,-0.0898,-0.0898,-0.115,-0.1542,-0.21,-0.224,-0.2352,-0.2663,-0.2691,-0.2691,-0.2691,-0.2691,-0.269,-0.2609,-0.2812,-0.3082,-0.3425,-0.3464,-0.3647,-0.4041,-0.4142,-0.4347,-0.4752,-0.4828,-0.484,-0.484,-0.4816,-0.4816,-0.484,-0.484,-0.4981,-0.5269,-0.5585,-0.5848,-0.614,-0.7115,-0.7782,1.1725,1.1716,1.1685,1.1934,1.1809,1.1596,1.1503,1.1136,0.0,1.0242,0.9849,0.946,0.9009,0.9447,0.9725,0.9323,0.9639,0.9624,0.8779,0.8458,0.8134,0.7554,0.7489,0.7489,0.7489,0.7489,0.7489,0.7489,0.7489,0.7456,0.7358,0.7358,0.7101,0.6576,0.5617,0.5054,0.4957,0.4531,0.43,0.43,0.43,0.43,0.43,0.43,0.43,0.4295,0.4194,0.4105,0.4081,0.4,0.3954,0.3935,0.3935,0.3892,0.3813,0.3791,0.3709,0.3583,0.3527,0.3527,0.3416,0.2802,0.238,0.2015,0.1623,0.1204,0.0729,0.0,-0.0252,-0.0421,-0.0813,-0.0898,-0.0898,-0.0898,-0.0898,-0.0898,-0.0898,-0.1317,-0.182,-0.2127,-0.2437,-0.2635,-0.2691,-0.2691,-0.2691,-0.2691,-0.2691,-0.2685,-0.2696,-0.2735,-0.2884,-0.3221,-0.335,-0.3572,-0.3978,-0.4358,-0.4633,-0.4714,-0.4929,-0.5057,-0.5057,-0.4885,-0.4877,-0.5057,-0.5057,-0.5266,-0.5694,-0.5748,-0.6109,-0.676,-0.7161,-0.7763,1.1903,1.1965,1.1996,1.2096,1.2027,1.1867,1.1475,0.0,0.0,0.9954,0.9516,0.9126,0.8724,0.9332,0.9758,0.9276,0.9617,0.98,0.9401,0.8711,0.8191,0.8021,0.7717,0.7489,0.7489,0.7489,0.7489,0.7489,0.7489,0.7489,0.7489,0.7489,0.726,0.6708,0.621,0.5785,0.5521,0.4994,0.4728,0.4728,0.4434,0.4431,0.4691,0.4364,0.4333,0.4582,0.4169,0.3988,0.3928,0.3903,0.3868,0.3841,0.3841,0.3835,0.3804,0.3715,0.366,0.3613,0.3613,0.3613,0.3557,0.3249,0.2856,0.238,0.2015,0.1541,0.0954,0.0308,-0.0028,-0.0308,-0.0785,-0.0898,-0.0898,-0.0898,-0.0898,-0.0898,-0.0898,-0.1233,-0.1624,-0.1931,-0.224,-0.2493,-0.2663,-0.2691,-0.2691,-0.2691,-0.2691,-0.2691,-0.2691,-0.2691,-0.2758,-0.293,-0.2994,-0.3218,-0.3663,-0.3885,-0.4218,-0.466,-0.481,-0.4981,-0.5195,-0.5111,-0.5106,-0.5195,-0.5195,-0.5321,-0.5548,-0.5548,-0.5818,-0.6354,-0.6858,-0.7391,1.2027,1.2151,1.2212,1.2212,1.2212,1.2103,1.1477,1.0883,0.0,0.9742,0.9221,0.8806,0.8592,0.9188,0.9665,0.9495,0.9644,0.9885,1.0114,0.9028,0.8283,0.8495,0.7912,0.7489,0.7489,0.7489,0.7489,0.7489,0.7489,0.7489,0.7489,0.7489,0.7293,0.6868,0.6773,0.6511,0.6086,0.5554,0.5256,0.5256,0.4831,0.4845,0.5203,0.4672,0.4639,0.4945,0.4284,0.399,0.3934,0.386,0.3803,0.3745,0.3745,0.3745,0.3736,0.3643,0.3613,0.3613,0.3613,0.3613,0.3613,0.3613,0.3221,0.2717,0.2408,0.1849,0.1205,0.0589,0.0168,-0.0196,-0.0757,-0.0898,-0.0898,-0.0898,-0.0898,-0.0926,-0.0982,-0.115,-0.1402,-0.1734,-0.2015,-0.2296,-0.2549,-0.2663,-0.2691,-0.2691,-0.2691,-0.2691,-0.2691,-0.2691,-0.2691,-0.2691,-0.2691,-0.2858,-0.3218,-0.333,-0.3691,-0.4384,-0.4608,-0.4829,-0.516,-0.5242,-0.5297,-0.5297,-0.5297,-0.5297,-0.5297,-0.5384,-0.5548,-0.5822,-0.6539,-0.702,1.1996,1.1965,1.1965,1.2436,1.2344,1.2004,1.1568,0.0,1.0076,0.9549,0.8899,0.8493,0.8654,0.8764,0.9051,0.9809,0.0,0.991,1.0233,0.9486,0.8813,0.8522,0.7912,0.7489,0.7489,0.7489,0.7489,0.7489,0.7489,0.7489,0.7489,0.7489,0.7493,0.7423,0.697,0.6675,0.6642,0.6086,0.5822,0.5822,0.5789,0.5679,0.5562,0.5484,0.5401,0.5229,0.4624,0.4345,0.4297,0.3823,0.3638,0.3627,0.3627,0.3627,0.3627,0.3616,0.3613,0.3613,0.3613,0.3613,0.3613,0.3613,0.3357,0.3021,0.2745,0.238,0.1847,0.0728,0.0364,0.014,-0.0673,-0.0898,-0.0898,-0.0898,-0.0898,-0.0954,-0.1206,-0.129,-0.1402,-0.1734,-0.2015,-0.2212,-0.224,-0.2493,-0.2691,-0.2691,-0.2691,-0.2691,-0.2691,-0.2691,-0.2691,-0.2691,-0.2691,-0.2719,-0.2775,-0.3165,-0.3441,-0.3524,-0.4273,-0.4719,-0.4746,-0.5105,-0.5297,-0.5297,-0.5297,-0.5297,-0.5297,-0.5603,-0.5768,-0.5822,-0.6436,-0.6912,1.2097,1.2243,1.2344,1.256,1.2498,1.2248,1.1654,1.0928,1.0188,0.9541,0.8871,0.8421,0.8501,0.8676,0.897,0.9437,0.9633,0.9805,0.9962,0.9516,0.9178,0.9162,0.8716,0.8328,0.8118,0.8458,0.8522,0.8134,0.8102,0.7939,0.7521,0.7489,0.7489,0.7489,0.7293,0.7195,0.7195,0.6642,0.6379,0.6379,0.5946,0.5862,0.6077,0.5525,0.5426,0.5618,0.4983,0.4545,0.4257,0.4039,0.383,0.3613,0.3613,0.3613,0.3613,0.3613,0.3613,0.3613,0.3613,0.3613,0.3613,0.3613,0.3499,0.3357,0.3021,0.2603,0.1987,0.0979,0.056,0.0196,-0.0673,-0.0898,-0.0898,-0.0898,-0.0898,-0.0926,-0.1038,-0.1178,-0.1346,-0.1485,-0.1736,-0.1959,-0.1959,-0.2071,-0.2155,-0.2155,-0.2296,-0.2408,-0.2408,-0.2577,-0.2691,-0.2691,-0.2691,-0.2691,-0.2691,-0.2858,-0.3107,-0.3385,-0.3719,-0.4024,-0.4273,-0.4439,-0.466,-0.4939,-0.4939,-0.505,-0.5297,-0.5434,-0.5603,-0.5822,-0.6218,-0.6588,1.2057,1.2319,1.2529,1.259,1.2511,1.2272,1.163,1.0902,1.0161,0.9517,0.8871,0.8394,0.8394,0.8601,0.8868,0.0,0.9416,0.9676,1.0023,0.9614,0.9388,0.9633,0.9194,0.8832,0.8678,0.9151,0.9294,0.8844,0.8619,0.8296,0.7809,0.7619,0.7489,0.7489,0.7489,0.746,0.7403,0.7048,0.6795,0.6734,0.6186,0.6131,0.6415,0.5784,0.5694,0.5947,0.5369,0.4928,0.4594,0.4315,0.4045,0.3774,0.3638,0.3613,0.3613,0.3613,0.3613,0.3613,0.3613,0.3613,0.3613,0.3613,0.3613,0.3555,0.333,0.288,0.2265,0.1369,0.0672,0.0084,-0.0533,-0.0785,-0.0898,-0.0898,-0.0898,-0.0898,-0.0898,-0.1038,-0.1178,-0.1178,-0.1429,-0.1652,-0.1652,-0.1734,-0.179,-0.179,-0.1959,-0.2071,-0.2071,-0.2296,-0.2465,-0.2549,-0.2601,-0.2635,-0.2693,-0.2691,-0.283,-0.3163,-0.333,-0.3524,-0.3802,-0.3941,-0.4162,-0.4494,-0.4632,-0.4829,-0.5132,-0.5352,-0.5576,-0.5795,-0.6077,-0.6372,1.1762,1.204,1.2336,1.256,1.2289,1.1932,1.1574,1.0677,0.9803,0.9469,0.8871,0.8394,0.8394,0.8402,0.8624,0.9287,0.9283,0.9555,1.0535,0.9878,0.9416,0.9748,0.9078,0.8717,0.8973,0.9298,0.9486,0.9486,0.8877,0.849,0.849,0.7842,0.7489,0.7489,0.7489,0.7394,0.7194,0.719,0.7059,0.6801,0.6796,0.6684,0.6511,0.6501,0.6365,0.6178,0.5763,0.5595,0.5508,0.4594,0.4205,0.4153,0.3747,0.3613,0.3613,0.3613,0.3613,0.3613,0.3613,0.3613,0.3613,0.3613,0.3613,0.3613,0.3585,0.3357,0.2877,0.1873,0.0728,-0.0196,-0.0196,-0.0561,-0.0898,-0.0898,-0.0898,-0.0898,-0.0898,-0.0898,-0.0898,-0.0898,-0.1122,-0.1319,-0.1319,-0.1568,-0.179,-0.179,-0.179,-0.179,-0.179,-0.1818,-0.1902,-0.2183,-0.2335,-0.2497,-0.2669,-0.2691,-0.2691,-0.2719,-0.3137,-0.3413,-0.3413,-0.3802,-0.3996,-0.3996,-0.4467,-0.4691,-0.4719,-0.5434,-0.5795,-0.5795,-0.6077,-0.6372,1.0973,1.1396,1.1715,1.1551,1.1574,1.1503,1.095,1.0343,0.9739,0.9183,0.8712,0.8394,0.8394,0.8394,0.8617,0.9287,0.9375,0.0,1.0017,1.0106,1.0128,1.0147,0.9989,1.0146,1.0736,1.0425,1.0193,1.0193,1.0002,0.9678,0.9198,0.8973,0.8458,0.7521,0.7489,0.7394,0.719,0.719,0.7054,0.6791,0.6675,0.6567,0.6497,0.636,0.6261,0.6205,0.6064,0.5845,0.5563,0.5289,0.4983,0.4622,0.4181,0.4018,0.399,0.3694,0.3613,0.3613,0.3613,0.3613,0.3613,0.3613,0.3613,0.3613,0.3613,0.3357,0.2877,0.1873,0.1091,0.0448,-0.0056,-0.0308,-0.0505,-0.0814,-0.0898,-0.0898,-0.0898,-0.0898,-0.0904,-0.0895,-0.0957,-0.1052,-0.1075,-0.1169,-0.1259,-0.1259,-0.1406,-0.1525,-0.1525,-0.1735,-0.1914,-0.1975,-0.2235,-0.2492,-0.2733,-0.2867,-0.29,-0.29,-0.3049,-0.308,-0.2987,-0.31,-0.3323,-0.358,-0.3747,-0.4107,-0.4691,-0.4939,-0.5297,-0.5795,-0.59,-0.6191,1.0465,1.0961,1.1281,1.1201,1.1173,1.1022,1.0591,0.9986,0.9437,0.9174,0.8738,0.8435,0.8598,0.8496,0.8577,0.912,0.9318,0.947,0.972,1.0179,1.0471,1.0426,1.0605,1.0908,1.1377,1.1107,1.0926,1.0926,1.0674,1.032,0.9907,0.9516,0.8926,0.8101,0.7882,0.7615,0.728,0.7038,0.6818,0.6557,0.6454,0.6389,0.6384,0.6261,0.6205,0.6205,0.6205,0.6064,0.0,0.5677,0.5426,0.512,0.4649,0.4343,0.4177,0.3907,0.3719,0.3613,0.3613,0.3613,0.3613,0.3613,0.3613,0.3613,0.3613,0.3302,0.2826,0.2183,0.1511,0.0868,0.042,0.0168,-0.0084,-0.0533,-0.0645,-0.0673,-0.087,-0.0907,-0.0891,-0.091,-0.0922,-0.0966,-0.0985,-0.0988,-0.0988,-0.0988,-0.1141,-0.1264,-0.1264,-0.1419,-0.1603,-0.1693,-0.193,-0.2209,-0.2475,-0.2822,-0.3015,-0.3015,-0.2954,-0.2897,-0.2877,-0.2814,-0.2932,-0.3251,-0.3396,-0.3739,-0.4285,-0.4662,-0.518,-0.584,-0.588,-0.6119,0.0,1.0639,1.0955,1.1233,1.087,1.0416,1.0384,0.9628,0.0,0.9393,0.8923,0.8565,0.8969,0.8716,0.8563,0.8881,0.9191,0.947,0.9681,1.0202,1.0584,1.0702,1.0953,1.1136,1.1136,1.1415,1.1591,1.1591,1.0958,1.0573,1.0553,0.9655,0.9132,0.909,0.8546,0.8001,0.7458,0.6867,0.6454,0.626,0.6232,0.6205,0.6205,0.6205,0.6205,0.6205,0.6205,0.6205,0.6173,0.5786,0.565,0.5595,0.512,0.4677,0.4288,0.426,0.399,0.3638,0.3638,0.361,0.3613,0.3613,0.3613,0.3613,0.3613,0.3193,0.2719,0.2719,0.1962,0.1178,0.1122,0.0785,0.0336,-0.0056,-0.0197,-0.0338,-0.076,-0.0896,-0.0917,-0.0919,-0.0972,-0.0992,-0.0994,-0.0994,-0.0994,-0.0994,-0.0994,-0.0994,-0.0994,-0.0994,-0.1118,-0.1363,-0.1525,-0.1713,-0.1939,-0.2582,-0.2942,-0.2973,-0.2869,-0.2859,-0.2991,-0.2887,-0.2881,-0.2983,-0.3381,-0.3592,-0.3592,-0.457,-0.5305,-0.5854,-0.5973,-0.6065,0.9136,0.0,0.9731,0.9557,0.9581,0.9581,0.0,0.908,0.8947,0.908,0.8974,0.8959,0.9312,0.9101,0.8948,0.9243,0.9342,0.9494,0.9802,1.0455,1.1107,1.1692,1.1584,1.1505,1.1628,1.1609,1.1591,1.1591,1.1435,1.1234,1.0959,1.0716,1.0366,0.9862,0.9306,0.8711,0.8027,0.7458,0.7093,0.6869,0.6418,0.6205,0.6205,0.6205,0.6205,0.6205,0.6205,0.6205,0.6205,0.6096,0.6064,0.6009,0.5595,0.5371,0.523,0.4869,0.4457,0.407,0.407,0.3855,0.3613,0.3613,0.3613,0.3613,0.3613,0.333,0.2965,0.2747,0.2326,0.1821,0.1234,0.101,0.0814,0.0364,-0.0029,-0.032,-0.0408,-0.0717,-0.0984,-0.0976,-0.0986,-0.103,-0.1085,-0.1088,-0.1088,-0.1088,-0.1088,-0.1088,-0.1088,-0.1088,-0.1088,-0.1153,-0.1426,-0.1631,-0.1697,-0.2119,-0.2504,-0.2765,-0.2749,-0.2817,-0.306,-0.3038,-0.3005,-0.2985,-0.3381,-0.3592,-0.3592,-0.4205,-0.4752,-0.5302,-0.5325,-0.5666,0.8898,0.9171,0.939,0.9374,0.952,0.9616,0.9458,0.9306,0.9297,0.0,0.0,0.9401,0.9799,0.9521,0.935,0.9742,0.9721,0.985,1.0462,1.1466,1.2136,1.2089,1.2143,1.2042,1.1833,1.1685,1.1533,1.1379,1.1371,1.1224,1.0894,1.0711,1.0463,1.0111,0.9654,0.9126,0.8475,0.7923,0.758,0.745,0.6896,0.6603,0.6603,0.6337,0.6205,0.6205,0.6205,0.6205,0.6205,0.6205,0.6205,0.6178,0.5955,0.5759,0.5563,0.5317,0.4787,0.4205,0.4205,0.3938,0.3613,0.3613,0.3613,0.3613,0.3613,0.3357,0.3047,0.2772,0.2493,0.212,0.1605,0.1478,0.1408,0.0938,0.0624,0.0361,0.015,-0.0092,-0.0348,-0.0579,-0.0652,-0.076,-0.1039,-0.1109,-0.1109,-0.1109,-0.1109,-0.1109,-0.1109,-0.1109,-0.1109,-0.1109,-0.1277,-0.1379,-0.1379,-0.158,-0.1916,-0.2453,-0.2424,-0.2535,-0.2888,-0.2887,-0.2929,-0.3079,-0.3302,-0.3523,-0.3778,-0.4033,-0.4573,-0.5332,-0.5261,-0.5693,0.9186,0.9404,0.9645,0.9817,0.9948,1.004,0.9958,0.0,0.0,0.0,0.0,0.9862,1.039,1.0116,0.9998,1.0511,1.0371,1.049,1.1295,1.2454,1.2978,1.2266,1.2474,1.2474,1.1926,1.1716,1.1483,1.1159,1.11,1.0938,1.0536,1.025,1.0075,1.0031,0.976,0.938,0.8928,0.8323,0.8031,0.8031,0.7482,0.7214,0.7214,0.6685,0.6472,0.6445,0.6364,0.6337,0.6337,0.6232,0.6205,0.6205,0.6205,0.5982,0.5704,0.5704,0.5148,0.4398,0.426,0.3938,0.3613,0.3613,0.3613,0.3613,0.3613,0.3413,0.3105,0.2828,0.2525,0.2235,0.197,0.1957,0.191,0.1509,0.136,0.1178,0.0806,0.0634,0.0454,0.0,-0.0132,-0.0336,-0.0773,-0.0908,-0.0975,-0.0975,-0.1042,-0.1109,-0.1109,-0.1109,-0.1109,-0.1109,-0.1109,-0.1109,-0.1109,-0.1109,-0.1379,-0.1985,-0.1974,-0.2164,-0.2683,-0.263,-0.279,-0.3192,-0.3192,-0.3426,-0.3861,-0.3861,-0.4392,-0.5348,-0.5323,-0.5743,0.9988,1.033,1.044,0.9801,0.9947,1.0149,0.9742,0.0,0.0,0.0,0.0,0.0,0.0,1.1286,1.1423,1.1831,1.1741,1.1668,1.1866,1.198,1.2184,1.2489,1.2336,1.2212,1.2212,1.1957,1.1637,1.1301,1.1159,1.0843,1.0207,1.0126,0.9972,0.9702,0.9636,0.9562,0.9484,0.8935,0.8672,0.8639,0.8057,0.7771,0.7771,0.7691,0.7631,0.761,0.716,0.695,0.6923,0.6418,0.6205,0.6205,0.6205,0.615,0.6123,0.6123,0.5814,0.5262,0.4481,0.3938,0.3613,0.3613,0.3613,0.3613,0.3613,0.3555,0.3444,0.3132,0.2693,0.2235,0.197,0.1957,0.1971,0.191,0.1602,0.128,0.1215,0.0851,0.0501,0.0401,0.0368,0.0336,0.0269,-0.0134,-0.0437,-0.0437,-0.0807,-0.1109,-0.1109,-0.1109,-0.1109,-0.1109,-0.1109,-0.1109,-0.1109,-0.1109,-0.1143,-0.1277,-0.1507,-0.1975,-0.2686,-0.2676,-0.2843,-0.3192,-0.3192,-0.3226,-0.3326,-0.3326,-0.3627,-0.4259,-0.4698,-0.5216,0.9867,1.0377,1.083,1.0705,1.1019,1.128,1.1058,1.1029,0.0,0.0,0.0,0.0,0.0,1.2113,1.2377,1.2768,1.3465,1.3735,1.3107,1.3749,1.4132,1.3674,1.3233,1.2839,1.2549,1.1824,1.1203,1.0779,1.0708,1.0409,0.9863,0.9833,0.9768,0.9621,0.9588,0.9588,0.9588,0.9354,0.9223,0.9223,0.8666,0.8375,0.8375,0.8057,0.7898,0.7871,0.7637,0.7375,0.7085,0.6793,0.65,0.6205,0.6205,0.6205,0.6173,0.5955,0.5759,0.5454,0.4536,0.407,0.3882,0.3666,0.3613,0.3613,0.3613,0.3613,0.3527,0.3188,0.2871,0.2562,0.2262,0.2125,0.2102,0.2102,0.1928,0.1781,0.1781,0.16,0.1311,0.1008,0.0941,0.084,0.0538,0.0302,0.0134,0.0134,-0.0067,-0.0235,-0.0235,-0.0235,-0.0336,-0.0638,-0.0672,-0.0773,-0.1076,-0.1109,-0.1109,-0.1109,-0.1412,-0.1849,-0.2421,-0.2621,-0.2855,-0.3192,-0.3192,-0.3192,-0.3192,-0.3192,-0.346,-0.3995,-0.4259,-0.4818,1.0033,1.0478,1.1014,1.1477,1.1834,1.2123,1.2322,1.2333,1.237,0.0,0.0,0.0,1.2742,1.3168,1.3551,1.3816,1.4864,1.5269,1.4193,1.5148,1.5565,1.4458,1.3981,1.3439,1.2685,1.1788,1.1089,1.0632,1.0547,1.0341,0.9862,0.984,0.9762,0.9614,0.9588,0.9588,0.9588,0.9588,0.9588,0.9588,0.9197,0.8988,0.8981,0.8508,0.8296,0.8296,0.8164,0.7877,0.7482,0.7348,0.695,0.6418,0.6418,0.6309,0.615,0.5845,0.5677,0.5508,0.4787,0.437,0.4177,0.3965,0.3777,0.3616,0.3755,0.3708,0.3601,0.337,0.3189,0.2948,0.2501,0.2352,0.2287,0.2221,0.2188,0.2188,0.2188,0.2188,0.2052,0.1614,0.1513,0.1379,0.0975,0.0773,0.0672,0.0672,0.0571,0.0504,0.0504,0.0504,0.0336,-0.0067,-0.0101,-0.0336,-0.0874,-0.0908,-0.0975,-0.1076,-0.1344,-0.1648,-0.2052,-0.2386,-0.2755,-0.3092,-0.3159,-0.3192,-0.3192,-0.3192,-0.3426,-0.3828,-0.3928,-0.4425,1.1344,1.1179,1.1014,1.1477,1.1613,1.1851,1.2664,1.2553,0.0,1.3341,0.0,1.3652,1.4086,1.4888,1.5443,1.5273,1.5352,1.5187,1.4542,1.4569,1.4449,1.3918,1.3816,1.3398,1.2421,1.2139,1.1889,1.1541,1.1321,1.1025,1.0558,1.0542,1.0244,0.9614,0.9588,0.9588,0.9588,0.9588,0.9588,0.9588,0.9562,0.9536,0.9536,0.951,0.9484,0.9451,0.8955,0.8725,0.8646,0.8084,0.753,0.7031,0.7031,0.6685,0.6205,0.6178,0.5927,0.5595,0.5508,0.4928,0.426,0.4677,0.427,0.3688,0.4196,0.4088,0.3794,0.3846,0.3688,0.3375,0.2607,0.2543,0.2586,0.2288,0.2188,0.2188,0.2188,0.2188,0.2188,0.2154,0.212,0.212,0.2087,0.1614,0.1244,0.1244,0.0807,0.0504,0.0504,0.0504,0.047,0.0437,0.0437,0.0235,-0.0302,-0.037,-0.0571,-0.1076,-0.1109,-0.1277,-0.1614,-0.2018,-0.2388,-0.272,-0.3058,-0.3192,-0.3192,-0.3192,-0.3226,-0.3259,-0.3761,-0.4028,1.0683,1.0601,1.0652,1.1415,1.183,0.0,0.0,1.3445,1.3714,1.4345,1.448,1.4521,1.4707,1.5256,1.5687,1.5601,1.5827,1.5951,1.572,1.5691,1.5494,1.503,1.4421,1.3776,1.3113,1.2437,1.1946,1.1728,1.166,1.1472,1.1124,1.1091,1.0948,1.0617,1.0584,1.0584,1.0584,1.0259,1.0113,1.0087,0.9769,0.9588,0.9588,0.9588,0.9588,0.9588,0.938,0.9112,0.8778,0.856,0.8111,0.7557,0.7241,0.7034,0.691,0.6529,0.6359,0.6307,0.5917,0.5559,0.5229,0.4986,0.4748,0.4644,0.4843,0.4866,0.4803,0.447,0.4394,0.416,0.3048,0.274,0.2621,0.2287,0.2188,0.2188,0.2188,0.2188,0.2188,0.2188,0.2188,0.2188,0.2188,0.2018,0.185,0.185,0.1681,0.1547,0.1547,0.1547,0.1412,0.1042,0.0706,0.0403,0.0202,0.0202,0.0101,-0.0101,-0.0739,-0.1379,-0.1951,-0.212,-0.2455,-0.2989,-0.3125,-0.3192,-0.3192,-0.3192,-0.3192,-0.3192,-0.3393,-0.356,1.0242,1.02,1.0386,1.1178,0.0,0.0,1.3631,1.4076,1.4521,1.5277,1.5318,1.5266,1.5401,1.5577,1.5742,1.5915,1.6205,1.6361,1.6216,1.6184,1.5967,1.5328,1.4641,1.3973,1.3326,1.2653,1.2203,1.211,1.211,1.2012,1.1789,1.1789,1.1625,1.1267,1.1267,1.1242,1.12,1.0829,1.0651,1.0651,1.0285,0.9925,0.9588,0.9588,0.9588,0.9588,0.9588,0.9406,0.9066,0.9066,0.8718,0.8137,0.7557,0.734,0.7271,0.6922,0.6726,0.6556,0.6209,0.5971,0.5765,0.5501,0.5312,0.526,0.5514,0.5566,0.5478,0.5165,0.5156,0.4942,0.3811,0.3276,0.2921,0.2453,0.2354,0.2321,0.2221,0.2188,0.2188,0.2188,0.2188,0.2188,0.2188,0.2188,0.2188,0.2188,0.2188,0.2188,0.2188,0.2188,0.2052,0.1614,0.1244,0.0975,0.0773,0.0739,0.0672,0.0504,-0.0202,-0.0908,-0.158,-0.1985,-0.2423,-0.2891,-0.3092,-0.3192,-0.3192,-0.3192,-0.3192,-0.3192,-0.3192,-0.3261,1.0324,1.02,1.0314,1.0797,0.0,0.0,1.4107,1.4314,1.4707,1.6122,1.6039,1.5863,1.6319,1.6029,1.5873,1.6319,1.6392,1.6236,1.577,1.568,1.5339,1.4417,1.4304,1.392,1.29,1.2812,1.2812,1.2812,1.2812,1.274,1.2609,1.2618,1.2242,1.1441,1.1416,1.135,1.1225,1.12,1.1209,1.1209,1.12,1.0635,0.9614,0.9614,0.9614,0.9588,0.9614,0.9614,0.9588,0.9588,0.9302,0.8751,0.8137,0.7584,0.7139,0.7338,0.69,0.6238,0.6431,0.6117,0.5707,0.6318,0.5928,0.5364,0.6166,0.6085,0.5739,0.5876,0.5925,0.5723,0.4824,0.4225,0.3623,0.2887,0.272,0.2621,0.2287,0.2221,0.2188,0.2188,0.2188,0.2188,0.2188,0.2188,0.2188,0.2188,0.2188,0.2188,0.2188,0.2188,0.2188,0.2188,0.2188,0.1951,0.1344,0.1311,0.1076,0.0538,0.0504,0.0269,-0.0269,-0.1513,-0.2188,-0.2221,-0.2857,-0.3192,-0.3192,-0.3192,-0.3192,-0.3192,-0.3192,-0.3192,1.0242,1.02,1.0477,1.1592,1.2648,1.371,0.0,1.5277,0.0,0.0,1.6299,1.6143,1.5929,1.607,1.6011,1.5494,1.568,1.5732,1.5266,1.5204,1.4976,1.4376,1.4304,1.4043,1.3436,1.3362,1.3362,1.3362,1.3362,1.329,1.317,1.316,1.2977,1.2608,1.2608,1.2535,1.2397,1.2058,1.1884,1.1819,1.1484,1.0931,1.0164,1.0164,0.9958,0.9614,0.9706,0.9681,0.9588,0.9588,0.951,0.9302,0.8745,0.853,0.8447,0.788,0.7608,0.7459,0.7021,0.6724,0.6538,0.6346,0.6316,0.6364,0.6605,0.6827,0.6895,0.656,0.6478,0.6313,0.5686,0.5388,0.4891,0.3391,0.3058,0.2958,0.2621,0.2554,0.2487,0.2255,0.2188,0.2188,0.2188,0.2188,0.2188,0.2188,0.2188,0.2188,0.2188,0.2188,0.2188,0.2188,0.2188,0.212,0.1951,0.1918,0.185,0.1715,0.1311,0.0538,-0.0605,-0.1244,-0.1883,-0.2554,-0.2991,-0.3192,-0.3192,-0.3192,-0.3192,-0.3192,-0.3192,-0.3192,1.0435,1.0611,1.1095,1.2483,1.3351,1.4252,1.5676,1.5998,1.607,1.635,1.6267,1.6073,1.6008,1.5887,1.5711,1.5328,1.5349,1.5256,1.479,1.4718,1.4552,1.4086,1.4035,1.3896,1.3617,1.3597,1.3597,1.3597,1.3597,1.3563,1.3491,1.3491,1.3406,1.3234,1.3162,1.3089,1.2978,1.2652,1.2471,1.2505,1.2197,1.1767,1.1191,1.0914,1.0482,0.9906,0.9844,0.9766,0.9673,0.9673,0.9647,0.9562,0.9309,0.9131,0.9004,0.8614,0.8253,0.7886,0.7506,0.7372,0.7304,0.6783,0.6944,0.7319,0.713,0.7262,0.7423,0.7101,0.7031,0.6905,0.635,0.6218,0.5785,0.4159,0.3758,0.3558,0.2854,0.2686,0.2586,0.2255,0.2188,0.2188,0.2188,0.2188,0.2188,0.2188,0.2188,0.2188,0.2188,0.2188,0.2188,0.2188,0.2188,0.2188,0.2188,0.2188,0.2188,0.2188,0.185,0.1176,0.0067,-0.084,-0.1579,-0.215,-0.2855,-0.3192,-0.3192,-0.3192,-0.3192,-0.3192,-0.3192,-0.3192,1.0733,1.1178,1.1882,1.339,1.4209,1.4976,1.6196,1.6516,1.6545,1.6431,1.607,1.5905,1.6376,1.5741,1.5263,1.5648,1.5315,1.4821,1.4314,1.4242,1.4086,1.3638,1.3597,1.3597,1.3597,1.3597,1.3597,1.3597,1.3597,1.3597,1.3597,1.3597,1.3539,1.3396,1.329,1.318,1.3099,1.3002,1.3002,1.3099,1.3123,1.29,1.2463,1.1789,1.1149,1.0498,1.012,0.9947,0.9903,0.9895,0.9784,0.964,0.9766,0.9524,0.912,0.9459,0.8882,0.7937,0.8028,0.8097,0.8069,0.7578,0.7757,0.8152,0.7725,0.754,0.7489,0.7489,0.7489,0.7391,0.6905,0.6773,0.6441,0.512,0.4758,0.4392,0.3153,0.2854,0.272,0.2321,0.2221,0.2188,0.2188,0.2188,0.2188,0.2188,0.2188,0.2188,0.2188,0.2188,0.2188,0.2188,0.2188,0.2188,0.2188,0.2188,0.2188,0.2188,0.2188,0.1951,0.1412,-0.0235,-0.1143,-0.121,-0.2386,-0.3058,-0.3125,-0.3125,-0.3125,-0.3192,-0.3192,-0.3192,1.0318,1.0721,1.1662,1.4221,1.6077,1.7236,1.7064,1.7379,1.7473,1.6563,1.633,1.6419,1.6922,1.6509,1.6057,1.5892,1.5376,1.4704,1.3876,1.3741,1.37,1.3607,1.3597,1.3597,1.3597,1.3597,1.3597,1.3597,1.3597,1.3597,1.3597,1.3597,1.3539,1.3396,1.3362,1.329,1.318,1.3252,1.3252,1.318,1.3286,1.3228,1.3016,1.2438,1.1938,1.15,1.13,1.1032,1.0727,1.0625,1.0326,0.9914,0.9947,0.9895,0.9795,0.9987,0.987,0.9651,0.9453,0.9417,0.9356,0.9028,0.868,0.8331,0.823,0.7867,0.7489,0.7489,0.7489,0.7456,0.7363,0.7326,0.7129,0.6408,0.5918,0.5355,0.4389,0.3954,0.3485,0.2753,0.2388,0.2188,0.2188,0.2188,0.2188,0.2188,0.2188,0.2188,0.2188,0.2188,0.2188,0.2188,0.2188,0.2188,0.2188,0.2188,0.2188,0.2188,0.2188,0.2154,0.2018,0.0773,-0.0101,-0.0504,-0.121,-0.1847,-0.2417,-0.2417,-0.2686,-0.3192,-0.3192,-0.3192,1.0769,1.1287,1.2184,1.4534,1.6617,1.7929,1.7341,1.7902,1.8267,1.7401,1.7217,1.7213,1.7233,1.6852,1.6346,1.593,1.5413,1.4882,1.4395,1.4316,1.4316,1.4316,1.4316,1.4222,1.3999,1.3975,1.3881,1.3621,1.3597,1.3597,1.3597,1.3597,1.3573,1.3491,1.3433,1.3372,1.329,1.329,1.329,1.329,1.3372,1.3396,1.3372,1.2691,1.2365,1.2267,1.1864,1.1575,1.1359,1.1023,1.0702,1.0377,1.0205,1.0128,1.0174,1.0459,1.0473,1.0287,1.0278,1.0352,1.0373,0.9793,0.9562,0.9425,0.868,0.8233,0.7912,0.7587,0.7489,0.7489,0.7489,0.7489,0.7423,0.7167,0.6675,0.605,0.5117,0.4782,0.4411,0.3716,0.3416,0.3286,0.3222,0.2921,0.2554,0.2255,0.2188,0.2188,0.2188,0.2188,0.2188,0.2188,0.2188,0.2188,0.2188,0.2188,0.2188,0.2188,0.2188,0.2188,0.2188,0.1547,0.084,0.0101,-0.0605,-0.1209,-0.1679,-0.2013,-0.2383,-0.272,-0.3058,-0.3192,1.1099,1.2014,1.3049,1.4679,1.6528,1.7854,1.7357,1.8159,1.8854,1.8348,1.8174,1.7959,1.7505,1.7049,1.6564,1.6031,1.5533,1.5187,1.5108,1.5108,1.5108,1.5108,1.5108,1.4926,1.4454,1.4396,1.4186,1.3634,1.3692,1.3692,1.3597,1.3692,1.365,1.3473,1.345,1.3403,1.3321,1.3273,1.3314,1.3433,1.3433,1.3491,1.3586,1.2909,1.274,1.2919,1.2365,1.2061,1.1938,1.1484,1.115,1.0854,1.059,1.0419,1.0397,1.0904,1.0884,1.0639,1.0983,1.1248,1.13,1.0548,1.0559,1.064,0.9314,0.8839,0.8587,0.7879,0.7684,0.7652,0.7521,0.7489,0.7489,0.7489,0.7162,0.6605,0.5741,0.5474,0.5276,0.4743,0.4574,0.4444,0.432,0.3785,0.3218,0.2654,0.2455,0.2388,0.2388,0.2288,0.2188,0.2188,0.2188,0.2188,0.2188,0.2188,0.2188,0.2188,0.2188,0.2188,0.2188,0.2052,0.158,0.0773,-0.0034,-0.0605,-0.0908,-0.151,-0.1946,-0.2214,-0.2753,-0.3092,0.9981,1.1875,1.396,1.5071,1.6421,1.75,1.7478,1.8251,1.8999,1.8907,1.8456,1.8078,1.8009,1.7551,1.7051,1.6573,1.6047,1.5557,1.5153,1.5108,1.5108,1.5108,1.5108,1.4926,1.4454,1.4396,1.4186,1.3634,1.4022,1.4093,1.361,1.4046,1.39,1.3031,1.3356,1.3377,1.2975,1.3343,1.3563,1.3563,1.3563,1.3586,1.3597,1.3491,1.3467,1.3491,1.3396,1.3088,1.2667,1.2594,1.2039,1.1217,1.1175,1.0871,1.055,1.1185,1.1396,1.1434,1.2122,1.2366,1.2373,1.2259,1.1794,1.1173,1.0798,1.0174,0.9454,0.8619,0.8361,0.8231,0.7652,0.7489,0.7489,0.7489,0.7456,0.7228,0.6638,0.6239,0.584,0.5309,0.4809,0.4444,0.432,0.422,0.412,0.402,0.3485,0.305,0.305,0.2554,0.2188,0.2188,0.2188,0.2188,0.2188,0.2188,0.2188,0.2188,0.2188,0.2188,0.2188,0.2188,0.2018,0.1715,0.1244,0.0638,-0.0134,-0.0235,-0.094,-0.2214,-0.2281,-0.2653,1.0741,1.2277,1.3756,1.4758,1.5876,1.6817,1.7136,1.8005,1.8709,1.871,1.8659,1.8502,1.8216,1.7712,1.7182,1.6616,1.6355,1.6107,1.5901,1.5879,1.5879,1.5879,1.5879,1.5702,1.5243,1.5164,1.4858,1.4048,1.4495,1.4551,1.4025,1.4216,1.4049,1.3364,1.3222,1.3067,1.2905,1.3101,1.3338,1.3597,1.3597,1.3597,1.3597,1.3597,1.3597,1.3597,1.3597,1.3467,1.3218,1.2909,1.2555,1.2064,1.1519,1.115,1.0979,1.137,1.1487,1.1619,1.2343,1.259,1.259,1.2467,1.2174,1.1756,1.1173,1.0766,1.03,0.9448,0.923,0.9032,0.8264,0.8069,0.7972,0.7587,0.7489,0.7423,0.7199,0.6999,0.6765,0.6437,0.6075,0.5679,0.5117,0.5017,0.4851,0.4386,0.402,0.3818,0.3818,0.3553,0.3389,0.3389,0.3389,0.3222,0.2785,0.2753,0.2586,0.2221,0.2188,0.2188,0.2188,0.2188,0.212,0.1918,0.1614,0.121,0.0739,0.0235,-0.0336,-0.0974,-0.1377,-0.1746,1.1086,1.2026,1.2839,1.4121,1.5045,1.5836,1.6625,1.7494,1.8126,1.8276,1.851,1.8552,1.816,1.7697,1.7209,1.6644,1.6522,1.65,1.65,1.65,1.65,1.65,1.65,1.6315,1.5854,1.581,1.5435,1.4568,1.4852,1.4851,1.433,1.4278,1.397,1.3345,1.2966,1.2722,1.2575,1.2791,1.3132,1.3597,1.3597,1.3597,1.3597,1.3597,1.3597,1.3597,1.3597,1.3597,1.3573,1.317,1.2909,1.274,1.1974,1.158,1.1447,1.165,1.1656,1.1717,1.2375,1.259,1.259,1.2436,1.2367,1.2243,1.1531,1.1337,1.1149,1.0332,1.0085,0.9862,0.9032,0.878,0.8587,0.7912,0.7749,0.7717,0.7521,0.7489,0.7428,0.7237,0.7073,0.6745,0.6046,0.5914,0.5646,0.5014,0.4719,0.4586,0.4586,0.442,0.4331,0.4361,0.4366,0.4175,0.3657,0.3592,0.3379,0.2854,0.2649,0.2506,0.2455,0.2287,0.212,0.1985,0.1783,0.158,0.1379,0.0672,0.0235,0.0067,-0.0538,-0.0908,0.9922,1.0454,1.1214,1.3249,1.3939,1.4486,1.6017,1.666,1.713,1.7642,1.7766,1.7753,1.7728,1.7546,1.7244,1.6764,1.6577,1.65,1.65,1.65,1.65,1.65,1.65,1.6315,1.5854,1.581,1.5589,1.5096,1.5018,1.4811,1.434,1.4246,1.3621,1.2318,1.2619,1.2434,1.1684,1.2492,1.3132,1.3597,1.3597,1.3597,1.3597,1.3597,1.3597,1.3597,1.3597,1.3597,1.3597,1.3573,1.3266,1.2788,1.274,1.2328,1.1805,1.2153,1.215,1.2014,1.2463,1.259,1.259,1.259,1.259,1.2529,1.2305,1.2236,1.205,1.118,1.086,1.0584,0.9894,0.9582,0.9294,0.8619,0.8458,0.8264,0.7652,0.7489,0.7428,0.7237,0.7204,0.7106,0.6881,0.6745,0.6642,0.6576,0.5877,0.5345,0.5345,0.4716,0.4361,0.4577,0.4593,0.4609,0.472,0.4731,0.4646,0.4469,0.3834,0.3342,0.3153,0.2554,0.2188,0.2188,0.1985,0.1783,0.158,0.1344,0.0908,0.0269,0.0034,-0.0437,0.9824,1.019,1.0603,1.1951,1.2804,1.352,1.4435,1.567,1.6705,1.6894,1.7339,1.7628,1.7407,1.7213,1.7011,1.685,1.6791,1.6769,1.6769,1.6769,1.6727,1.6654,1.6633,1.6534,1.6259,1.625,1.589,1.5036,1.5266,1.5077,1.4221,1.4147,1.38,1.3058,1.2788,1.2453,1.1992,1.2602,1.2987,1.3152,1.3452,1.3597,1.3597,1.3597,1.3597,1.3597,1.3597,1.3597,1.3597,1.3597,1.3491,1.332,1.3273,1.3103,1.2883,1.2779,1.2711,1.2647,1.2615,1.259,1.259,1.259,1.259,1.259,1.2498,1.2498,1.2398,1.195,1.1732,1.1452,1.0654,1.0275,0.9875,0.878,0.8587,0.8484,0.7684,0.7489,0.7493,0.7396,0.7396,0.733,0.7138,0.704,0.697,0.6843,0.6478,0.6239,0.6239,0.6011,0.5859,0.594,0.608,0.5955,0.5542,0.5512,0.5275,0.4761,0.4398,0.3967,0.3401,0.3031,0.2627,0.2221,0.212,0.1985,0.1783,0.158,0.1311,0.0941,0.0874,0.0638,0.9419,0.9714,1.0075,1.1102,1.179,1.2469,1.3535,1.4823,1.5872,1.6207,1.6945,1.7463,1.7256,1.7094,1.6981,1.6939,1.6897,1.6897,1.6897,1.6897,1.6854,1.6782,1.6761,1.6727,1.665,1.6443,1.6027,1.5295,1.5212,1.4885,1.4141,1.3909,1.361,1.3216,1.2704,1.2417,1.2377,1.2892,1.3127,1.3107,1.3626,1.3776,1.3597,1.3597,1.3597,1.3597,1.3597,1.3597,1.3597,1.3597,1.3597,1.3614,1.3711,1.3743,1.3665,1.3598,1.3535,1.3462,1.3042,1.2889,1.2858,1.2683,1.259,1.259,1.259,1.259,1.256,1.2428,1.2274,1.2019,1.1413,1.0888,1.0295,0.939,0.9102,0.8807,0.8004,0.7652,0.7489,0.7489,0.7489,0.7456,0.733,0.7237,0.7138,0.7007,0.6876,0.6766,0.6764,0.6785,0.6802,0.6952,0.704,0.6921,0.6577,0.6471,0.6215,0.563,0.5323,0.4844,0.4235,0.361,0.3068,0.2559,0.2322,0.212,0.1985,0.1783,0.1648,0.1513,0.1446,0.1311,0.0,0.0,0.0,1.0749,1.0931,1.1326,1.3349,1.4082,1.4624,1.5583,1.6496,1.7133,1.7173,1.716,1.7118,1.6997,1.6926,1.6897,1.6897,1.6897,1.6897,1.6897,1.6897,1.6897,1.6897,1.6355,1.5962,1.5889,1.4847,1.4163,1.4078,1.3521,1.3012,1.2638,1.2282,1.2295,1.2681,1.3266,1.3519,1.3487,1.4076,1.4095,1.3597,1.3597,1.3597,1.3597,1.3597,1.3597,1.3597,1.3597,1.3597,1.3638,1.4138,1.4199,1.4089,1.4564,1.4649,1.444,1.3752,1.3511,1.339,1.2828,1.2621,1.259,1.259,1.259,1.259,1.259,1.2467,1.2274,1.212,1.1334,1.0516,1.0516,1.0002,0.9358,0.8683,0.8004,0.7554,0.7521,0.7489,0.7489,0.7489,0.733,0.7204,0.7209,0.7045,0.6917,0.6907,0.6932,0.7071,0.7474,0.7339,0.738,0.7748,0.7603,0.742,0.7224,0.6585,0.6065,0.5641,0.4306,0.3439,0.3204,0.2559,0.2221,0.2188,0.2018,0.1918,0.1884,0.1681,0.148,0.8958,0.0,0.0,0.0,0.0,0.0,1.1487,1.2553,1.3717,1.4902,1.5286,1.5642,1.6474,1.6258,1.6114,1.6505,1.6889,1.7115,1.7115,1.7115,1.7073,1.6981,1.696,1.6939,1.6897,1.6355,1.5836,1.5408,1.4637,1.4016,1.361,1.3342,1.3146,1.303,1.2656,1.2514,1.2626,1.2604,1.2718,1.3011,1.321,1.3428,1.3597,1.3597,1.3597,1.3597,1.3597,1.3597,1.3597,1.3597,1.3597,1.3669,1.449,1.4779,1.4763,1.5102,1.5187,1.5059,1.444,1.3902,1.348,1.3307,1.295,1.259,1.259,1.259,1.259,1.259,1.2467,1.2274,1.212,1.1778,1.1334,1.0843,1.0471,1.0034,0.9358,0.9069,0.8651,0.7684,0.7489,0.7489,0.7489,0.7461,0.748,0.7602,0.7333,0.7227,0.7499,0.7408,0.7361,0.7491,0.7714,0.7778,0.7599,0.768,0.7617,0.7424,0.7113,0.6663,0.6043,0.5393,0.4525,0.3439,0.3102,0.2695,0.2188,0.2154,0.2052,0.1884,0.1681,0.148,0.0,0.0,0.0,0.9785,0.0,0.0,1.0835,1.1757,1.2754,1.3836,1.4325,1.4815,1.5634,1.5498,1.542,1.5938,1.6284,1.665,1.7133,1.7199,1.7178,1.7094,1.7073,1.7086,1.7044,1.6279,1.5653,1.5299,1.4459,1.3804,1.3421,1.3323,1.3267,1.3198,1.2978,1.2843,1.2843,1.298,1.3053,1.3055,1.3365,1.3537,1.3597,1.3597,1.3597,1.3597,1.3597,1.3597,1.3597,1.3597,1.3597,1.369,1.4635,1.4997,1.5085,1.5628,1.5836,1.572,1.5089,1.4608,1.4222,1.3653,1.3268,1.292,1.2683,1.259,1.259,1.259,1.2467,1.2274,1.2212,1.1996,1.1709,1.132,1.1076,1.0769,1.0066,0.9901,0.9518,0.8166,0.8134,0.8166,0.7587,0.7749,0.7889,0.7817,0.7606,0.7579,0.7879,0.7825,0.7792,0.7871,0.7993,0.8025,0.7906,0.791,0.7838,0.7642,0.7522,0.7203,0.6643,0.6026,0.5312,0.4398,0.3897,0.3326,0.2621,0.2321,0.2154,0.2018,0.1817,0.1648,0.0,0.0,0.0,1.0699,1.0114,0.0,1.0868,1.1409,1.1885,1.2609,1.3447,1.4173,1.4595,1.4683,1.4826,1.5181,1.5335,1.5793,1.6859,1.7003,1.7042,1.7094,1.7107,1.7107,1.7107,1.6127,1.5442,1.5333,1.4253,1.3531,1.3425,1.3408,1.334,1.3232,1.3215,1.3223,1.3303,1.3848,1.3914,1.3508,1.4061,1.4063,1.3597,1.3597,1.3597,1.3597,1.3597,1.3597,1.3597,1.3597,1.3597,1.369,1.4635,1.4997,1.5111,1.6042,1.6413,1.6316,1.571,1.5468,1.5206,1.4073,1.3653,1.3511,1.2981,1.2805,1.2805,1.2713,1.2521,1.2336,1.2336,1.2089,1.1833,1.184,1.1716,1.1435,1.0769,1.0611,1.0256,0.8973,0.9134,0.9134,0.7939,0.8252,0.851,0.8015,0.7952,0.8001,0.813,0.8162,0.818,0.8353,0.8241,0.8203,0.8329,0.8199,0.803,0.7838,0.7804,0.7642,0.7242,0.6457,0.5897,0.5609,0.4746,0.3984,0.3316,0.2654,0.2288,0.2188,0.2018,0.1918,1.089,1.0866,1.0782,1.0489,1.0881,0.0,1.0286,1.0797,1.156,1.1883,1.1885,1.2118,1.3036,1.335,1.348,1.3551,1.4343,1.5151,1.5754,1.5826,1.6009,1.6493,1.6558,1.6558,1.6558,1.5924,1.5291,1.4789,1.4042,1.3564,1.3493,1.3425,1.3391,1.3357,1.3267,1.3428,1.3921,1.3741,1.3796,1.4116,1.3928,1.3741,1.3597,1.3597,1.3597,1.3597,1.3597,1.3597,1.3597,1.3597,1.3597,1.369,1.4635,1.4997,1.5111,1.6042,1.6413,1.6374,1.6259,1.5865,1.5352,1.5108,1.4706,1.4291,1.4172,1.4112,1.4022,1.348,1.295,1.2529,1.2529,1.2367,1.2182,1.2058,1.1903,1.1685,1.1435,1.1404,1.1115,1.0288,0.9779,0.9422,0.9166,0.9432,0.9494,0.892,0.8927,0.8923,0.8628,0.8431,0.8309,0.8166,0.8421,0.8392,0.7973,0.8176,0.8255,0.8068,0.7876,0.7684,0.7442,0.6967,0.6352,0.5599,0.4746,0.422,0.4087,0.3351,0.272,0.2188,0.2154,0.2052,1.1644,1.1512,1.1512,1.1512,1.1291,0.0,0.0,1.077,1.1005,1.1575,1.1407,1.1475,1.2509,1.2789,1.2915,1.307,1.3831,1.4381,1.43,1.4992,1.5604,1.5924,1.5944,1.5944,1.5944,1.5414,1.4807,1.4232,1.3898,1.3661,1.356,1.3514,1.3621,1.3881,1.377,1.397,1.4544,1.4359,1.4278,1.4297,1.4116,1.388,1.3597,1.3597,1.3597,1.3597,1.3597,1.3597,1.3597,1.3597,1.3597,1.369,1.4635,1.4997,1.5111,1.6042,1.6413,1.6413,1.6413,1.6163,1.5836,1.5507,1.5206,1.4883,1.4588,1.4499,1.435,1.3692,1.3268,1.2981,1.2683,1.2467,1.2274,1.212,1.1965,1.1771,1.1622,1.1591,1.1498,1.1115,1.0793,1.0313,0.9614,0.9923,1.0071,0.9525,0.9497,0.9395,0.8964,0.8804,0.8596,0.8137,0.8356,0.857,0.8687,0.8604,0.8637,0.8846,0.8289,0.7842,0.7646,0.725,0.6773,0.617,0.5613,0.5183,0.4848,0.448,0.3749,0.2686,0.2354,0.2154,1.2613,1.2354,1.2379,1.2528,1.1728,1.0972,0.0,0.0,0.0,1.1251,1.1128,1.1184,1.2055,1.2327,1.2459,1.2611,1.3322,1.3603,1.2894,1.4092,1.5044,1.5039,1.5204,1.5296,1.5191,1.4629,1.4128,1.3831,1.37,1.3624,1.3632,1.3731,1.3981,1.4405,1.4381,1.4613,1.5164,1.5151,1.4949,1.4586,1.4552,1.4257,1.3752,1.3752,1.3752,1.3752,1.3752,1.3752,1.3763,1.3634,1.3597,1.3669,1.4542,1.4914,1.5101,1.5939,1.633,1.6413,1.6413,1.6413,1.6316,1.5778,1.5594,1.5497,1.501,1.4765,1.4558,1.4013,1.3773,1.3541,1.292,1.2644,1.2451,1.2212,1.2027,1.1833,1.1685,1.1654,1.1622,1.1622,1.1591,1.124,1.0091,1.0397,1.0612,1.0067,1.0047,0.9904,0.9443,0.9333,0.9111,0.8659,0.8727,0.9087,0.9763,0.9431,0.9359,0.9846,0.8894,0.8236,0.8043,0.7456,0.699,0.6708,0.6548,0.6181,0.558,0.5477,0.4713,0.3382,0.272,0.2388,1.4048,1.4024,1.3698,1.233,1.2559,1.2535,1.0264,0.0,1.0852,1.0317,0.0,1.0341,1.0739,0.0,0.0,1.1061,1.233,1.2972,1.1844,1.2656,1.3377,1.3372,1.4156,1.4542,1.4125,1.3484,1.3294,1.3765,1.3307,1.3226,1.3749,1.4167,1.443,1.449,1.4769,1.5209,1.5792,1.5668,1.5606,1.5616,1.5231,1.4766,1.4303,1.4303,1.4303,1.4303,1.4303,1.4303,1.428,1.381,1.3597,1.3638,1.4179,1.4635,1.5059,1.5577,1.6022,1.6413,1.6413,1.6413,1.6384,1.6316,1.6288,1.6259,1.6202,1.5778,1.5294,1.5206,1.4795,1.4231,1.3571,1.339,1.3177,1.2451,1.2274,1.2151,1.1833,1.1771,1.1747,1.1622,1.1591,1.156,1.1404,1.1628,1.1563,1.0798,1.0954,1.0953,1.0486,1.0178,1.0119,1.045,1.0401,1.0449,1.0641,1.0758,1.085,1.0931,0.9823,0.908,0.8864,0.7611,0.6863,0.6708,0.6675,0.6544,0.6284,0.5679,0.4981,0.4154,0.3418,0.3084,1.4373,1.4329,1.4106,1.3071,1.278,1.235,1.0825,1.0467,1.0462,1.0501,0.0,0.0,0.0,0.0,0.0,0.0,1.2307,1.2647,1.1802,1.2249,1.2715,1.2803,1.3052,1.3258,1.3364,1.3156,1.3229,1.3752,1.3274,1.3195,1.3765,1.4276,1.4727,1.5066,1.5473,1.5973,1.6517,1.6363,1.6168,1.5923,1.5367,1.4857,1.4384,1.4093,1.4116,1.4373,1.4069,1.4116,1.4361,1.3823,1.3597,1.3662,1.4128,1.4593,1.5059,1.5515,1.6008,1.6413,1.6413,1.6413,1.6413,1.6413,1.6413,1.6413,1.6413,1.6202,1.5894,1.5507,1.5206,1.4883,1.4222,1.4082,1.3872,1.3056,1.2873,1.2728,1.212,1.1864,1.1771,1.1716,1.1654,1.1591,1.1591,1.1701,1.1662,1.1337,1.1385,1.125,1.061,1.0421,1.0326,1.0355,1.0381,1.0725,1.1446,1.1259,1.1223,1.1481,1.0311,0.9327,0.8749,0.8037,0.7377,0.6811,0.6741,0.6609,0.6387,0.6115,0.5815,0.5484,0.435,0.3851,1.4811,1.4772,1.4582,1.3555,1.285,1.2119,1.1021,1.0693,1.0678,1.0998,1.1321,0.0,0.0,0.0,1.2222,1.2053,0.0,1.2471,1.167,1.1952,1.2225,1.2196,1.2129,1.2313,1.2842,1.2719,1.2913,1.3569,1.3085,1.3071,1.3798,1.4472,1.5042,1.5492,1.6107,1.661,1.7002,1.6846,1.6577,1.6228,1.5635,1.5176,1.4823,1.4398,1.4421,1.4754,1.4246,1.4222,1.4535,1.3871,1.3597,1.3662,1.4128,1.4593,1.5059,1.5515,1.6008,1.6413,1.6413,1.6413,1.6413,1.6413,1.6413,1.6413,1.6413,1.6413,1.6288,1.5797,1.5681,1.5536,1.4913,1.4765,1.4558,1.3803,1.348,1.3177,1.2544,1.2143,1.1872,1.1809,1.1685,1.1621,1.1709,1.165,1.1591,1.1591,1.1591,1.1469,1.109,1.0903,1.0852,1.0944,1.0932,1.1301,1.2339,1.1939,1.1591,1.1591,1.0653,0.9725,0.8828,0.8468,0.7962,0.7269,0.6937,0.6675,0.6482,0.6416,0.6387,0.6383,0.515,0.4619,1.5766,1.5842,1.5441,1.335,1.2855,1.232,1.0225,1.0983,1.2005,1.1575,1.2664,1.3594,1.3218,1.3046,1.2782,0.0,0.0,0.0,0.0,1.1437,1.1653,1.12,1.1549,1.2016,1.2553,1.1912,1.1922,1.3037,1.2509,1.2663,1.3838,1.49,1.5474,1.5487,1.6464,1.6976,1.7002,1.6918,1.6876,1.6854,1.6262,1.5966,1.5944,1.58,1.5744,1.5722,1.5255,1.5062,1.4994,1.4012,1.3597,1.3662,1.4128,1.4593,1.5059,1.5515,1.6008,1.6413,1.6413,1.6413,1.6413,1.6413,1.6413,1.6413,1.6413,1.6413,1.6413,1.6374,1.6384,1.622,1.5536,1.5381,1.5206,1.4617,1.3962,1.345,1.3299,1.2636,1.2027,1.184,1.1685,1.1694,1.1937,1.1765,1.1591,1.1591,1.1591,1.1787,1.2375,1.1916,1.2043,1.3273,1.2822,1.2713,1.3382,1.3147,1.2405,1.1092,1.0972,1.0497,0.9498,0.8844,0.8393,0.8172,0.7335,0.6811,0.6675,0.6482,0.6387,0.6383,0.5679,0.5378,1.6529,1.6814,1.6769,1.4963,1.4113,1.3196,1.1315,1.1631,1.2077,1.1161,1.2927,1.4267,1.2967,1.3346,0.0,0.0,0.0,0.0,0.0,1.168,1.1501,1.1253,1.1763,1.2116,1.2083,1.1905,1.217,1.3027,1.2601,1.2771,1.3838,1.4962,1.5543,1.5487,1.6557,1.7136,1.7136,1.7023,1.696,1.696,1.6355,1.6061,1.6039,1.57,1.571,1.594,1.5085,1.4892,1.5164,1.4059,1.4013,1.468,1.4736,1.5274,1.5962,1.5754,1.6008,1.6413,1.6413,1.6413,1.6413,1.6413,1.6413,1.6413,1.6413,1.6413,1.6413,1.6413,1.6413,1.6355,1.6105,1.6048,1.5894,1.5235,1.4617,1.4022,1.3541,1.2789,1.2182,1.2027,1.2422,1.2798,1.2788,1.2905,1.282,1.2295,1.2197,1.2277,1.2456,1.2328,1.2445,1.3104,1.298,1.3023,1.3455,1.3007,1.2485,1.2016,1.1614,1.103,1.0199,0.9939,0.9326,0.8231,0.7912,0.7423,0.6708,0.6642,0.6515,0.6387,0.6181,0.605,1.7144,1.7433,1.7454,1.6089,1.5341,1.445,1.2543,1.3006,1.3514,1.2323,1.4049,1.5412,1.4203,1.442,1.4499,0.0,0.0,0.0,0.0,1.1588,1.1365,1.1376,1.1722,1.1842,1.1573,1.1343,1.1676,1.2795,1.2394,1.2633,1.394,1.5021,1.558,1.5543,1.6618,1.7199,1.7199,1.7115,1.7086,1.7086,1.6625,1.642,1.642,1.6073,1.6095,1.6333,1.5276,1.5096,1.55,1.4374,1.4551,1.5491,1.5314,1.5759,1.6466,1.6087,1.6153,1.6413,1.6413,1.6413,1.6413,1.6413,1.6413,1.6413,1.6413,1.6413,1.6413,1.6413,1.6413,1.6413,1.6413,1.6413,1.6288,1.5865,1.5274,1.4706,1.4282,1.3532,1.2926,1.2812,1.3314,1.373,1.3703,1.4008,1.397,1.3073,1.2687,1.2529,1.2645,1.2558,1.266,1.3133,1.3075,1.3097,1.3301,1.2833,1.2441,1.2324,1.1885,1.1404,1.0895,1.0643,1.0034,0.9037,0.849,0.7879,0.7228,0.6868,0.6642,0.6515,0.6416,0.6387]}]]